[[{"header":{"parameterUnit":"m.s-1","parameterCategory":1,"la1":31.0,"la2":29.5877,"lo1":-88.7671,"lo2":-86.6584,"dy":0.0162,"dx":0.0185,"nx":115,"ny":88,"refTime":"2023-06-24T00:00:00:Z","depth":0,"parameterNumber":2,"parameterNumberName":"U-component_of_WINDS"},"data":[0.0,0.0,0.0,0.0,0.0,0.0,0.0,0.0,0.0,0.0,0.0,0.0,0.0,0.0,0.0,0.0,0.0,0.0,0.0,0.0,0.0,0.0,0.0,0.0,0.0,0.0,0.0,0.0,0.0,0.0,0.0,0.0,0.0,0.0,0.0,0.0,0.0,0.0,0.0,0.0,0.0,0.0,0.0,0.0,0.0,0.0,0.0,0.0,0.0,0.0,0.0,0.0,0.0,0.0,0.0,0.0,0.0,0.0,0.0,0.0,0.0,0.0,0.0,0.0,0.0,0.0,0.0,0.0,0.0,0.0,0.0,0.0,0.0,0.0,0.0,0.0,0.0,0.0,0.0,0.0,0.0,0.0,0.0,0.0,0.0,0.0,0.0,0.0,0.0,0.0,0.0,0.0,0.0,0.0,0.0,0.0,0.0,0.0,0.0,0.0,0.0,0.0,0.0,0.0,0.0,0.0,0.0,0.0,0.0,0.0,0.0,0.0,0.0,0.0,0.0,0.0,0.0,0.0,0.0,0.0,0.0,0.0,0.0,0.0,0.0,0.0,0.0,0.0,0.0,0.0,0.0,0.0,0.0,0.0,0.0,0.0,0.0,0.0,0.0,0.0,0.0,0.0,0.0,0.0,0.0,0.0,0.0,0.0,0.0,0.0,0.0,0.0,0.0,0.0,0.0,0.0,0.0,0.0,0.0,0.0,0.0,0.0,0.0,0.0,0.0,0.0,0.0,0.0,0.0,0.0,0.0,0.0,0.0,0.0,0.0,0.0,0.0,0.0,0.0,0.0,0.0,0.0,0.0,0.0,0.0,0.0,0.0,0.0,0.0,0.0,0.0,0.0,0.0,0.0,0.0,0.0,0.0,0.0,0.0,0.0,0.0,0.0,0.0,0.0,0.0,0.0,0.0,0.0,0.0,0.0,0.0,0.0,0.0,0.0,0.0,0.0,0.0,0.0,0.0,0.0,0.0,0.0,0.0,0.0,0.0,0.0,0.0,0.0,0.0,0.0,0.0,0.0,0.0,0.0,0.0,0.0,0.0,0.0,0.0,0.0,0.0,0.0,0.0,0.0,0.0,0.0,0.0,0.0,0.0,0.0,0.0,0.0,0.0,0.0,0.0,0.0,0.0,0.0,0.0,0.0,0.0,0.0,0.0,0.0,0.0,0.0,0.0,0.0,0.0,0.0,0.0,0.0,0.0,0.0,0.0,0.0,0.0,0.0,0.0,0.0,0.0,0.0,0.0,0.0,0.0,0.0,0.0,0.0,0.0,0.0,0.0,0.0,0.0,0.0,0.0,0.0,0.0,0.0,0.0,0.0,0.0,0.0,0.0,0.0,0.0,0.0,0.0,0.0,0.0,0.0,0.0,0.0,0.0,0.0,0.0,0.0,0.0,0.0,0.0,0.0,0.0,0.0,0.0,0.0,0.0,0.0,0.0,0.0,0.0,0.0,0.0,0.0,0.0,0.0,0.0,0.0,0.0,0.0,0.0,0.0,0.0,0.0,0.0,0.0,0.0,0.0,0.0,0.0,0.0,0.0,0.0,0.0,0.0,0.0,0.0,0.0,0.0,0.0,0.0,0.0,0.0,0.0,0.0,0.0,0.0,0.0,0.0,0.0,0.0,0.0,0.0,0.0,0.0,0.0,0.0,0.0,0.0,0.0,0.0,0.0,0.0,0.0,0.0,0.0,0.0,0.0,0.0,0.0,0.0,0.0,0.0,0.0,0.0,0.0,0.0,0.0,0.0,0.0,0.0,0.0,0.0,0.0,0.0,0.0,0.0,0.0,0.0,0.0,0.0,0.0,0.0,0.0,0.0,0.0,0.0,0.0,0.0,0.0,0.0,0.0,0.0,0.0,0.0,0.0,0.0,0.0,0.0,0.0,0.0,0.0,0.0,0.0,0.0,0.0,0.0,0.0,0.0,0.0,0.0,0.0,0.0,0.0,0.0,0.0,0.0,0.0,0.0,0.0,0.0,0.0,0.0,0.0,0.0,0.0,0.0,0.0,0.0,0.0,0.0,0.0,0.0,0.0,0.0,0.0,0.0,0.0,0.0,0.0,0.0,0.0,0.0,0.0,0.0,0.0,0.0,0.0,0.0,0.0,0.0,0.0,0.0,0.0,0.0,0.0,0.0,0.0,0.0,0.0,0.0,0.0,0.0,0.0,0.0,0.0,0.0,0.0,0.0,0.0,0.0,0.0,0.0,0.0,0.0,0.0,0.0,0.0,0.0,0.0,0.0,0.0,0.0,0.0,0.0,0.0,0.0,0.0,0.0,0.0,0.0,0.0,0.0,0.0,0.0,0.0,0.0,0.0,0.0,0.0,0.0,0.0,0.0,0.0,0.0,0.0,0.0,0.0,0.0,0.0,0.0,0.0,0.0,0.0,0.0,0.0,0.0,0.0,0.0,0.0,0.0,0.0,0.0,0.0,0.0,0.0,0.0,0.0,0.0,0.0,0.0,0.0,0.0,0.0,0.0,0.0,0.0,0.0,0.0,0.0,0.0,0.0,0.0,0.0,0.0,0.0,0.0,0.0,0.0,0.0,0.0,0.0,0.0,0.0,0.0,0.0,0.0,0.0,0.0,0.0,0.0,0.0,0.0,0.0,0.0,0.0,0.0,0.0,0.0,0.0,0.0,0.0,0.0,0.0,0.0,0.0,0.0,0.0,0.0,0.0,0.0,0.0,0.0,0.0,0.0,0.0,0.0,0.0,0.0,0.0,0.0,0.0,0.0,0.0,0.0,0.0,0.0,0.0,0.0,0.0,0.0,0.0,0.0,0.0,0.0,0.0,0.0,0.0,0.0,0.0,0.0,0.0,0.0,0.0,0.0,0.0,0.0,0.0,0.0,0.0,0.0,0.0,0.0,0.0,0.0,0.0,0.0,0.0,0.0,0.0,0.0,0.0,0.0,0.0,0.0,0.0,0.0,0.0,0.0,0.0,0.0,0.0,0.0,0.0,0.0,0.0,0.0,0.0,0.0,0.0,0.0,0.0,0.0,0.0,0.0,0.0,0.0,0.0,0.0,0.0,0.0,0.0,0.0,0.0,0.0,0.0,0.0,0.0,0.0,0.0,0.0,0.0,0.0,0.0,0.0,0.0,0.0,0.0,0.0,0.0,0.0,0.0,0.0,0.0,0.0,0.0,0.0,0.0,0.0,0.0,0.0,0.0,0.0,0.0,0.0,0.0,0.0,0.0,0.0,0.0,0.0,0.0,0.0,0.0,0.0,0.0,0.0,0.0,0.0,0.0,0.0,0.0,0.0,0.0,0.0,0.0,0.0,0.0,0.0,0.0,0.0,0.0,0.0,0.0,0.0,0.0,0.0,0.0,0.0,0.0,0.0,0.0,0.0,0.0,0.0,0.0,0.0,0.0,0.0,0.0,0.0,0.0,0.0,0.0,0.0,0.0,0.0,0.0,0.0,0.0,0.0,0.0,0.0,0.0,0.0,0.0,0.0,0.0,0.0,0.0,0.0,0.0,0.0,0.0,0.0,0.0,0.0,0.0,0.0,0.0,0.0,0.0,0.0,0.0,0.0,0.0,0.0,0.0,0.0,0.0,0.0,0.0,0.0,0.0,0.0,0.0,0.0,0.0,0.0,0.0,0.0,0.0,0.0,0.0,0.0,0.0,0.0,0.0,0.0,0.0,0.0,0.0,0.0,0.0,0.0,0.0,0.0,0.0,0.0,0.0,0.0,0.0,0.0,0.0,0.0,0.0,0.0,0.0,0.0,0.0,0.0,0.0,0.0,0.0,0.0,0.0,0.0,0.0,0.0,0.0,0.0,0.0,0.0,0.0,0.0,0.0,0.0,0.0,0.0,0.0,0.0,0.0,0.0,0.0,0.0,0.0,0.0,0.0,0.0,0.0,0.0,0.0,0.0,0.0,0.0,0.0,0.0,0.0,0.0,0.0,0.0,0.0,0.0,0.0,0.0,0.0,0.0,0.0,0.0,0.0,0.0,0.0,0.0,0.0,0.0,0.0,0.0,0.0,0.0,0.0,0.0,0.0,0.0,0.0,0.0,0.0,0.0,0.0,0.0,0.0,0.0,0.0,0.0,0.0,0.0,0.0,0.0,0.0,0.0,0.0,0.0,0.0,0.0,0.0,0.0,0.0,0.0,0.0,0.0,0.0,0.0,0.0,0.0,0.0,0.0,0.0,0.0,0.0,0.0,0.0,0.0,0.0,0.0,0.0,0.0,0.0,0.0,0.0,0.0,0.0,0.0,0.0,0.0,0.0,0.0,0.0,0.0,0.0,-2.3886,0.0,0.0,0.0,0.0,0.0,0.0,0.0,0.0,0.0,0.0,0.0,0.0,0.0,0.0,0.0,0.0,0.0,0.0,0.0,0.0,0.0,0.0,0.0,0.0,0.0,0.0,0.0,0.0,0.0,0.0,0.0,0.0,0.0,0.0,0.0,0.0,0.0,0.0,0.0,0.0,0.0,0.0,0.0,0.0,0.0,0.0,0.0,0.0,0.0,0.0,0.0,0.0,0.0,0.0,0.0,0.0,0.0,0.0,0.0,0.0,0.0,0.0,0.0,0.0,0.0,0.0,0.0,0.0,0.0,0.0,0.0,0.0,0.0,0.0,0.0,0.0,0.0,0.0,0.0,0.0,0.0,0.0,0.0,0.0,0.0,0.0,0.0,0.0,0.0,0.0,0.0,0.0,0.0,0.0,0.0,0.0,0.0,0.0,0.0,0.0,0.0,0.0,0.0,0.0,0.0,0.0,0.0,0.0,0.0,0.0,-2.2195,-2.3986,-2.1462,-2.1399,-2.4172,0.0,0.0,0.0,0.0,0.0,0.0,0.0,0.0,0.0,0.0,0.0,0.0,0.0,0.0,0.0,0.0,0.0,0.0,0.0,0.0,0.0,0.0,0.0,0.0,0.0,0.0,0.0,0.0,0.0,0.0,0.0,0.0,0.0,0.0,0.0,0.0,0.0,0.0,0.0,0.0,0.0,0.0,0.0,0.0,0.0,0.0,0.0,0.0,0.0,0.0,0.0,0.0,0.0,0.0,0.0,0.0,0.0,0.0,0.0,0.0,0.0,0.0,0.0,0.0,0.0,0.0,0.0,0.0,0.0,0.0,0.0,0.0,0.0,0.0,0.0,0.0,0.0,0.0,0.0,0.0,0.0,0.0,0.0,0.0,0.0,0.0,0.0,0.0,0.0,0.0,0.0,0.0,0.0,0.0,0.0,0.0,0.0,0.0,0.0,0.0,0.0,0.0,0.0,0.0,0.0,0.0,0.0,0.0,0.0,0.0,0.0,0.0,-2.19,-2.1612,-2.4483,0.0,0.0,0.0,0.0,0.0,0.0,0.0,0.0,0.0,0.0,0.0,0.0,0.0,0.0,0.0,0.0,0.0,0.0,0.0,0.0,0.0,0.0,0.0,0.0,0.0,0.0,0.0,0.0,0.0,0.0,0.0,0.0,0.0,0.0,0.0,0.0,0.0,0.0,0.0,0.0,0.0,0.0,0.0,0.0,0.0,0.0,0.0,0.0,0.0,0.0,0.0,0.0,0.0,0.0,0.0,0.0,0.0,0.0,0.0,0.0,0.0,0.0,0.0,0.0,0.0,0.0,0.0,0.0,0.0,0.0,0.0,0.0,0.0,0.0,0.0,0.0,0.0,0.0,0.0,0.0,0.0,0.0,0.0,0.0,0.0,0.0,0.0,0.0,0.0,0.0,0.0,0.0,0.0,0.0,0.0,0.0,0.0,0.0,0.0,0.0,0.0,0.0,0.0,0.0,0.0,0.0,0.0,0.0,0.0,0.0,-2.4606,-2.7077,-2.6216,0.0,-2.6042,0.0,0.0,0.0,0.0,0.0,0.0,0.0,0.0,0.0,0.0,0.0,0.0,0.0,0.0,0.0,0.0,0.0,0.0,0.0,0.0,0.0,0.0,0.0,0.0,0.0,0.0,0.0,0.0,0.0,0.0,0.0,0.0,0.0,0.0,0.0,0.0,0.0,0.0,0.0,0.0,0.0,0.0,0.0,0.0,0.0,0.0,0.0,0.0,0.0,0.0,0.0,0.0,0.0,0.0,0.0,0.0,0.0,0.0,0.0,0.0,0.0,0.0,0.0,0.0,0.0,0.0,0.0,0.0,0.0,0.0,0.0,0.0,0.0,0.0,0.0,0.0,0.0,0.0,0.0,0.0,0.0,0.0,0.0,0.0,0.0,0.0,0.0,0.0,0.0,0.0,0.0,0.0,0.0,0.0,0.0,0.0,0.0,0.0,0.0,0.0,0.0,0.0,0.0,0.0,0.0,0.0,0.0,0.0,0.0,0.0,-2.3844,-2.584,-2.5528,-2.5102,0.0,0.0,0.0,0.0,0.0,0.0,0.0,0.0,0.0,0.0,0.0,0.0,0.0,0.0,0.0,0.0,0.0,0.0,0.0,0.0,0.0,0.0,0.0,0.0,0.0,0.0,0.0,0.0,0.0,0.0,0.0,0.0,0.0,0.0,0.0,0.0,0.0,0.0,0.0,0.0,0.0,0.0,0.0,0.0,0.0,0.0,0.0,0.0,0.0,0.0,0.0,0.0,0.0,0.0,0.0,0.0,0.0,0.0,0.0,0.0,0.0,0.0,0.0,0.0,0.0,0.0,0.0,0.0,0.0,0.0,0.0,0.0,0.0,0.0,0.0,0.0,0.0,0.0,0.0,0.0,0.0,0.0,0.0,0.0,0.0,0.0,0.0,0.0,0.0,0.0,0.0,0.0,0.0,0.0,0.0,0.0,0.0,0.0,0.0,0.0,0.0,0.0,0.0,0.0,0.0,0.0,0.0,0.0,0.0,0.0,-2.3265,-2.3483,-2.4997,-2.432,-2.3868,-2.3856,0.0,0.0,0.0,0.0,0.0,0.0,0.0,0.0,0.0,0.0,0.0,0.0,0.0,0.0,0.0,0.0,0.0,0.0,0.0,0.0,0.0,0.0,0.0,0.0,0.0,0.0,0.0,0.0,0.0,0.0,0.0,0.0,0.0,0.0,0.0,0.0,0.0,0.0,0.0,0.0,0.0,0.0,0.0,0.0,0.0,0.0,0.0,0.0,0.0,0.0,0.0,0.0,0.0,0.0,0.0,0.0,0.0,0.0,0.0,0.0,0.0,0.0,0.0,0.0,0.0,0.0,0.0,0.0,0.0,0.0,0.0,0.0,0.0,0.0,0.0,0.0,0.0,0.0,0.0,0.0,0.0,0.0,0.0,0.0,0.0,0.0,0.0,0.0,0.0,0.0,0.0,0.0,0.0,0.0,0.0,0.0,0.0,0.0,0.0,0.0,0.0,0.0,0.0,0.0,0.0,0.0,0.0,0.0,-2.6974,-2.4777,-2.4273,-2.5733,-2.3586,-2.3064,0.0,0.0,0.0,0.0,0.0,0.0,0.0,0.0,0.0,0.0,0.0,0.0,0.0,0.0,0.0,0.0,0.0,0.0,0.0,0.0,0.0,0.0,0.0,0.0,0.0,0.0,0.0,0.0,0.0,0.0,0.0,0.0,0.0,0.0,0.0,0.0,0.0,0.0,0.0,0.0,0.0,0.0,0.0,0.0,0.0,0.0,0.0,0.0,0.0,0.0,0.0,0.0,0.0,0.0,0.0,0.0,0.0,0.0,0.0,0.0,0.0,0.0,0.0,0.0,0.0,0.0,0.0,0.0,0.0,0.0,0.0,0.0,0.0,0.0,0.0,0.0,0.0,0.0,0.0,0.0,0.0,0.0,0.0,0.0,0.0,0.0,0.0,0.0,0.0,0.0,0.0,0.0,0.0,0.0,0.0,0.0,0.0,0.0,0.0,0.0,0.0,0.0,0.0,0.0,0.0,0.0,0.0,0.0,0.0,-2.2638,-2.2551,-2.2706,-2.3139,-2.2282,-2.2328,0.0,0.0,0.0,0.0,0.0,0.0,0.0,0.0,0.0,0.0,0.0,0.0,0.0,0.0,0.0,0.0,0.0,0.0,0.0,0.0,0.0,0.0,0.0,0.0,0.0,0.0,0.0,0.0,0.0,0.0,0.0,0.0,0.0,0.0,0.0,0.0,0.0,0.0,0.0,0.0,0.0,0.0,0.0,0.0,0.0,0.0,0.0,0.0,0.0,0.0,0.0,0.0,0.0,0.0,0.0,0.0,0.0,0.0,0.0,0.0,0.0,0.0,0.0,0.0,0.0,0.0,0.0,0.0,0.0,0.0,0.0,0.0,0.0,0.0,0.0,0.0,0.0,0.0,0.0,0.0,0.0,0.0,0.0,0.0,0.0,0.0,0.0,0.0,0.0,0.0,0.0,0.0,0.0,0.0,0.0,0.0,0.0,0.0,0.0,0.0,0.0,0.0,0.0,0.0,0.0,0.0,0.0,0.0,0.0,-2.0258,0.0,-2.1631,-2.126,-2.1226,-2.1443,0.0,0.0,0.0,0.0,0.0,0.0,0.0,0.0,0.0,0.0,0.0,0.0,0.0,0.0,0.0,0.0,0.0,0.0,0.0,0.0,0.0,0.0,0.0,0.0,0.0,0.0,0.0,0.0,0.0,0.0,0.0,0.0,0.0,0.0,0.0,0.0,0.0,0.0,0.0,0.0,0.0,0.0,0.0,0.0,0.0,0.0,0.0,0.0,0.0,0.0,0.0,0.0,0.0,0.0,0.0,0.0,0.0,0.0,0.0,0.0,0.0,0.0,0.0,0.0,0.0,0.0,0.0,0.0,0.0,0.0,0.0,0.0,0.0,0.0,0.0,0.0,0.0,0.0,0.0,0.0,0.0,0.0,0.0,0.0,0.0,0.0,0.0,0.0,0.0,0.0,0.0,0.0,0.0,0.0,0.0,0.0,0.0,0.0,0.0,0.0,0.0,0.0,0.0,0.0,0.0,0.0,0.0,0.0,-2.0185,-2.0654,-2.1194,-2.1184,-2.0574,-2.0458,-2.04,0.0,0.0,0.0,0.0,0.0,0.0,0.0,0.0,0.0,0.0,0.0,0.0,0.0,0.0,0.0,0.0,0.0,0.0,0.0,0.0,0.0,0.0,0.0,0.0,0.0,0.0,0.0,0.0,0.0,0.0,0.0,0.0,0.0,0.0,0.0,0.0,0.0,0.0,0.0,0.0,0.0,0.0,0.0,0.0,0.0,0.0,0.0,0.0,0.0,0.0,0.0,0.0,0.0,0.0,0.0,0.0,0.0,0.0,0.0,0.0,0.0,0.0,0.0,0.0,0.0,0.0,0.0,0.0,0.0,0.0,0.0,0.0,0.0,0.0,0.0,0.0,0.0,0.0,0.0,0.0,0.0,0.0,0.0,0.0,0.0,0.0,0.0,0.0,0.0,0.0,0.0,0.0,0.0,0.0,0.0,0.0,0.0,0.0,0.0,0.0,0.0,0.0,0.0,0.0,0.0,0.0,0.0,0.0,0.0,-1.9412,-1.9143,-2.0113,-2.2293,-1.9952,-1.9816,0.0,0.0,0.0,0.0,0.0,0.0,0.0,0.0,0.0,0.0,0.0,0.0,0.0,0.0,0.0,0.0,0.0,0.0,0.0,0.0,0.0,0.0,0.0,0.0,0.0,0.0,0.0,0.0,0.0,0.0,0.0,0.0,0.0,0.0,0.0,0.0,0.0,0.0,0.0,0.0,0.0,0.0,0.0,0.0,0.0,0.0,0.0,0.0,0.0,0.0,0.0,0.0,0.0,0.0,0.0,0.0,0.0,0.0,0.0,0.0,0.0,0.0,0.0,0.0,0.0,0.0,0.0,0.0,0.0,0.0,0.0,0.0,0.0,0.0,0.0,0.0,0.0,0.0,0.0,0.0,0.0,0.0,0.0,0.0,0.0,0.0,0.0,0.0,0.0,0.0,0.0,0.0,0.0,0.0,0.0,0.0,0.0,0.0,0.0,0.0,0.0,0.0,0.0,0.0,0.0,0.0,0.0,0.0,0.0,-1.9584,-1.9275,-2.0044,-2.2107,-2.0128,-1.9891,-2.1613,0.0,0.0,0.0,0.0,0.0,0.0,0.0,0.0,0.0,0.0,0.0,0.0,0.0,0.0,0.0,0.0,0.0,0.0,0.0,0.0,0.0,0.0,0.0,0.0,0.0,0.0,0.0,0.0,0.0,0.0,0.0,0.0,0.0,0.0,0.0,0.0,0.0,0.0,0.0,0.0,0.0,0.0,0.0,0.0,0.0,0.0,0.0,0.0,0.0,0.0,0.0,0.0,0.0,0.0,0.0,0.0,0.0,0.0,0.0,0.0,0.0,0.0,0.0,0.0,0.0,0.0,0.0,0.0,0.0,0.0,0.0,0.0,0.0,0.0,0.0,0.0,0.0,0.0,0.0,0.0,0.0,0.0,0.0,0.0,0.0,0.0,0.0,0.0,0.0,0.0,0.0,0.0,0.0,0.0,0.0,0.0,0.0,0.0,0.0,0.0,0.0,0.0,0.0,0.0,0.0,0.0,0.0,0.0,-2.0896,-2.1295,-2.1177,-2.0521,-2.0923,-2.053,0.0,0.0,0.0,0.0,0.0,0.0,0.0,0.0,0.0,0.0,0.0,0.0,0.0,0.0,0.0,0.0,0.0,0.0,0.0,0.0,0.0,0.0,0.0,0.0,0.0,0.0,0.0,0.0,0.0,0.0,0.0,0.0,0.0,0.0,0.0,0.0,0.0,0.0,0.0,0.0,0.0,0.0,0.0,0.0,0.0,0.0,0.0,0.0,0.0,0.0,0.0,0.0,0.0,0.0,0.0,0.0,0.0,0.0,0.0,0.0,0.0,0.0,0.0,0.0,0.0,0.0,0.0,0.0,0.0,0.0,0.0,0.0,0.0,0.0,0.0,0.0,0.0,0.0,0.0,0.0,0.0,0.0,0.0,0.0,0.0,0.0,0.0,0.0,0.0,0.0,0.0,0.0,0.0,0.0,0.0,0.0,0.0,0.0,0.0,0.0,0.0,0.0,0.0,0.0,0.0,0.0,0.0,0.0,0.0,-2.1055,-2.3755,-2.5185,-2.4898,-2.2513,-2.1275,0.0,0.0,0.0,0.0,0.0,0.0,0.0,0.0,0.0,0.0,0.0,0.0,0.0,0.0,0.0,0.0,0.0,0.0,0.0,0.0,0.0,0.0,0.0,0.0,0.0,0.0,0.0,0.0,0.0,0.0,0.0,0.0,0.0,0.0,0.0,0.0,0.0,0.0,0.0,0.0,0.0,0.0,0.0,0.0,0.0,0.0,0.0,0.0,0.0,0.0,0.0,0.0,0.0,0.0,0.0,0.0,0.0,0.0,0.0,0.0,0.0,0.0,0.0,0.0,0.0,0.0,0.0,0.0,0.0,0.0,0.0,0.0,0.0,0.0,0.0,0.0,0.0,0.0,0.0,0.0,0.0,0.0,0.0,0.0,0.0,0.0,0.0,0.0,0.0,0.0,0.0,0.0,0.0,0.0,0.0,0.0,0.0,0.0,0.0,0.0,0.0,0.0,0.0,0.0,0.0,0.0,0.0,0.0,-2.1467,-2.1826,-2.5698,-2.7578,-2.7164,-2.4719,-2.2702,0.0,0.0,0.0,0.0,0.0,0.0,0.0,0.0,0.0,0.0,0.0,0.0,0.0,0.0,0.0,0.0,0.0,0.0,0.0,0.0,0.0,0.0,0.0,0.0,0.0,0.0,0.0,0.0,0.0,0.0,0.0,0.0,0.0,0.0,0.0,0.0,0.0,0.0,0.0,0.0,0.0,0.0,0.0,0.0,0.0,0.0,0.0,0.0,0.0,0.0,0.0,0.0,0.0,0.0,0.0,0.0,0.0,0.0,0.0,0.0,0.0,0.0,0.0,0.0,0.0,0.0,0.0,0.0,0.0,0.0,0.0,0.0,0.0,0.0,0.0,0.0,0.0,0.0,0.0,0.0,0.0,0.0,0.0,0.0,0.0,0.0,0.0,0.0,0.0,0.0,0.0,0.0,0.0,0.0,0.0,0.0,0.0,0.0,0.0,0.0,0.0,0.0,0.0,0.0,0.0,0.0,0.0,0.0,-2.2311,-2.2992,-2.7191,-2.8974,-2.8042,-2.6857,-2.4275,0.0,0.0,0.0,0.0,0.0,0.0,0.0,0.0,0.0,0.0,0.0,0.0,0.0,0.0,0.0,0.0,0.0,0.0,0.0,0.0,0.0,0.0,0.0,0.0,0.0,0.0,0.0,0.0,0.0,0.0,0.0,0.0,0.0,0.0,0.0,0.0,0.0,0.0,0.0,0.0,0.0,0.0,0.0,0.0,0.0,0.0,0.0,0.0,0.0,0.0,0.0,0.0,0.0,0.0,0.0,0.0,0.0,0.0,0.0,0.0,0.0,0.0,0.0,0.0,0.0,0.0,0.0,0.0,0.0,0.0,0.0,0.0,0.0,0.0,0.0,0.0,0.0,0.0,0.0,0.0,0.0,0.0,0.0,0.0,0.0,0.0,0.0,0.0,0.0,0.0,0.0,0.0,0.0,0.0,0.0,0.0,0.0,0.0,0.0,0.0,0.0,0.0,0.0,0.0,0.0,0.0,0.0,0.0,-2.2916,-2.344,-2.8219,-3.0398,-2.9616,-2.6556,-2.3652,0.0,0.0,0.0,0.0,0.0,0.0,0.0,0.0,0.0,0.0,0.0,0.0,0.0,0.0,0.0,0.0,0.0,0.0,0.0,0.0,0.0,0.0,0.0,0.0,0.0,0.0,0.0,0.0,0.0,0.0,0.0,0.0,0.0,0.0,0.0,0.0,0.0,0.0,0.0,0.0,0.0,0.0,0.0,0.0,0.0,0.0,0.0,0.0,-1.1892,0.0,0.0,0.0,0.0,0.0,0.0,0.0,0.0,0.0,0.0,0.0,0.0,0.0,0.0,0.0,0.0,0.0,0.0,0.0,0.0,0.0,0.0,0.0,0.0,0.0,0.0,0.0,0.0,0.0,0.0,0.0,0.0,0.0,0.0,0.0,0.0,0.0,0.0,0.0,0.0,0.0,0.0,0.0,0.0,0.0,0.0,0.0,0.0,0.0,0.0,0.0,0.0,0.0,0.0,0.0,0.0,0.0,0.0,0.0,-2.2735,-2.4166,-2.7896,-2.9656,-2.9087,-2.6471,-2.4074,0.0,0.0,0.0,0.0,0.0,0.0,0.0,0.0,0.0,0.0,0.0,0.0,0.0,0.0,0.0,0.0,0.0,0.0,0.0,0.0,0.0,0.0,0.0,0.0,0.0,0.0,0.0,0.0,0.0,0.0,0.0,0.0,0.0,0.0,0.0,0.0,0.0,0.0,0.0,0.0,0.0,0.0,0.0,0.0,0.0,0.0,0.0,0.0,0.0,0.0,0.0,0.0,0.0,0.0,0.0,0.0,0.0,0.0,0.0,0.0,0.0,0.0,0.0,0.0,0.0,0.0,0.0,0.0,0.0,0.0,0.0,0.0,0.0,0.0,0.0,0.0,0.0,0.0,0.0,0.0,0.0,0.0,0.0,0.0,0.0,0.0,0.0,0.0,0.0,0.0,0.0,0.0,0.0,0.0,0.0,0.0,0.0,0.0,0.0,0.0,0.0,0.0,0.0,0.0,0.0,0.0,0.0,-2.0258,-2.2366,-2.4969,-2.7219,-2.8326,-2.8213,-2.6436,-2.467,-2.3048,0.0,0.0,0.0,0.0,0.0,0.0,0.0,0.0,0.0,0.0,0.0,0.0,0.0,0.0,0.0,0.0,0.0,0.0,0.0,0.0,0.0,0.0,0.0,0.0,0.0,0.0,0.0,0.0,0.0,0.0,0.0,0.0,0.0,0.0,0.0,0.0,0.0,0.0,-1.1984,-1.1852,0.0,0.0,0.0,0.0,0.0,0.0,0.0,0.0,-1.1671,0.0,0.0,0.0,0.0,0.0,0.0,0.0,0.0,0.0,0.0,0.0,0.0,0.0,0.0,0.0,0.0,0.0,0.0,0.0,0.0,0.0,0.0,0.0,0.0,0.0,0.0,0.0,0.0,0.0,0.0,0.0,0.0,0.0,0.0,0.0,0.0,0.0,0.0,0.0,0.0,0.0,0.0,0.0,0.0,0.0,0.0,0.0,0.0,0.0,0.0,0.0,0.0,0.0,0.0,0.0,0.0,-1.9596,-2.0562,-2.2658,-2.5979,-2.7476,-2.8442,-2.8762,-2.6134,-2.4148,-2.2963,0.0,0.0,0.0,0.0,0.0,0.0,0.0,0.0,0.0,0.0,0.0,0.0,0.0,0.0,0.0,0.0,0.0,0.0,0.0,0.0,0.0,0.0,0.0,0.0,0.0,0.0,0.0,0.0,0.0,0.0,0.0,0.0,0.0,0.0,0.0,0.0,0.0,0.0,0.0,-1.0557,-1.0543,0.0,0.0,0.0,0.0,0.0,0.0,0.0,0.0,-1.2017,0.0,0.0,0.0,0.0,0.0,0.0,0.0,0.0,0.0,0.0,0.0,0.0,0.0,0.0,0.0,0.0,0.0,0.0,0.0,0.0,0.0,0.0,0.0,0.0,0.0,0.0,0.0,0.0,0.0,0.0,0.0,0.0,0.0,0.0,0.0,0.0,0.0,0.0,0.0,0.0,0.0,0.0,0.0,0.0,0.0,0.0,0.0,0.0,0.0,0.0,0.0,0.0,0.0,0.0,0.0,-1.9801,-2.0593,-2.2394,-2.534,-2.6595,-2.7326,-2.7487,-2.513,-2.338,0.0,0.0,0.0,0.0,0.0,0.0,0.0,0.0,0.0,0.0,0.0,0.0,0.0,0.0,0.0,0.0,0.0,0.0,0.0,0.0,0.0,0.0,0.0,0.0,0.0,0.0,0.0,0.0,0.0,0.0,0.0,0.0,0.0,0.0,0.0,0.0,0.0,0.0,0.0,0.0,-1.0301,-1.0298,-0.9454,0.0,0.0,0.0,0.0,0.0,0.0,-1.1259,-1.2102,0.0,0.0,0.0,0.0,0.0,0.0,0.0,0.0,0.0,0.0,0.0,0.0,0.0,0.0,0.0,0.0,0.0,0.0,0.0,0.0,0.0,0.0,0.0,0.0,0.0,0.0,0.0,0.0,0.0,0.0,0.0,0.0,0.0,0.0,0.0,0.0,0.0,0.0,0.0,0.0,0.0,0.0,0.0,0.0,0.0,0.0,0.0,0.0,0.0,0.0,0.0,0.0,0.0,0.0,0.0,-1.961,-2.0355,-2.1892,-2.4271,-2.5097,-2.5639,-2.5869,-2.377,-2.2325,0.0,0.0,0.0,0.0,0.0,0.0,0.0,0.0,0.0,0.0,0.0,0.0,0.0,0.0,0.0,0.0,0.0,0.0,0.0,0.0,0.0,0.0,0.0,0.0,0.0,0.0,0.0,0.0,0.0,0.0,0.0,0.0,0.0,0.0,0.0,0.0,0.0,0.0,0.0,0.0,0.0,-1.0327,-0.9541,-1.0056,0.0,0.0,0.0,0.0,-1.0556,-1.1528,0.0,0.0,0.0,0.0,0.0,0.0,0.0,0.0,0.0,0.0,0.0,0.0,0.0,0.0,0.0,0.0,0.0,0.0,0.0,0.0,0.0,0.0,0.0,0.0,0.0,0.0,0.0,0.0,0.0,0.0,0.0,0.0,0.0,0.0,0.0,0.0,0.0,0.0,0.0,0.0,0.0,0.0,0.0,0.0,0.0,0.0,0.0,0.0,0.0,0.0,0.0,0.0,0.0,0.0,0.0,0.0,-1.8826,-1.9622,-2.1173,-2.3377,-2.3103,-2.3507,-2.488,-2.2162,-2.071,0.0,0.0,0.0,0.0,0.0,0.0,0.0,0.0,0.0,0.0,0.0,0.0,0.0,0.0,0.0,0.0,0.0,0.0,0.0,0.0,0.0,0.0,0.0,0.0,0.0,0.0,0.0,0.0,0.0,0.0,0.0,0.0,0.0,0.0,0.0,0.0,0.0,0.0,0.0,0.0,0.0,-1.0391,-1.0491,-1.0219,-0.9889,0.0,0.0,-1.0533,-0.9754,-1.1102,0.0,0.0,0.0,0.0,0.0,0.0,0.0,0.0,0.0,0.0,0.0,0.0,0.0,0.0,0.0,0.0,0.0,0.0,0.0,0.0,0.0,0.0,0.0,0.0,0.0,0.0,0.0,0.0,0.0,0.0,0.0,0.0,0.0,0.0,0.0,0.0,0.0,0.0,0.0,0.0,0.0,0.0,0.0,0.0,0.0,0.0,0.0,0.0,0.0,0.0,0.0,0.0,0.0,0.0,0.0,-1.7823,-1.8702,-1.9804,-2.1012,-2.2367,-2.2416,-2.287,-2.3802,-2.1098,-2.017,0.0,0.0,0.0,0.0,0.0,0.0,0.0,0.0,0.0,0.0,0.0,0.0,0.0,0.0,0.0,0.0,0.0,0.0,0.0,0.0,0.0,0.0,0.0,0.0,0.0,0.0,0.0,0.0,0.0,0.0,0.0,0.0,0.0,0.0,0.0,0.0,0.0,0.0,0.0,0.0,0.0,0.0,-1.0753,-1.0544,0.0,0.0,0.0,-1.0704,-1.0681,0.0,0.0,0.0,0.0,0.0,0.0,0.0,0.0,0.0,0.0,0.0,0.0,0.0,0.0,0.0,0.0,0.0,0.0,0.0,0.0,0.0,0.0,0.0,0.0,0.0,0.0,0.0,0.0,0.0,0.0,0.0,0.0,0.0,0.0,0.0,0.0,0.0,0.0,0.0,0.0,0.0,0.0,0.0,0.0,0.0,0.0,0.0,0.0,0.0,0.0,0.0,0.0,0.0,0.0,0.0,0.0,0.0,-1.8461,-1.9779,-2.0782,-2.141,-2.1618,-2.2069,-2.2764,-2.0318,0.0,0.0,0.0,0.0,0.0,0.0,0.0,0.0,0.0,0.0,0.0,0.0,0.0,0.0,0.0,0.0,0.0,0.0,0.0,0.0,0.0,0.0,0.0,0.0,0.0,0.0,0.0,-1.4098,0.0,0.0,0.0,0.0,0.0,0.0,0.0,0.0,0.0,0.0,0.0,0.0,0.0,0.0,-1.2144,-1.1427,-1.1273,-1.1178,0.0,0.0,-1.0992,-1.1228,-1.1544,-1.1729,0.0,0.0,0.0,0.0,0.0,0.0,0.0,0.0,0.0,0.0,0.0,0.0,0.0,0.0,0.0,0.0,0.0,0.0,0.0,0.0,0.0,0.0,0.0,0.0,0.0,0.0,0.0,0.0,0.0,0.0,0.0,0.0,0.0,0.0,0.0,0.0,0.0,0.0,0.0,0.0,0.0,0.0,0.0,0.0,0.0,0.0,0.0,0.0,0.0,0.0,0.0,0.0,0.0,0.0,0.0,-1.7817,-1.9091,-2.0094,-2.0737,-2.019,-2.0569,-2.1978,-1.983,-1.9307,0.0,0.0,0.0,0.0,0.0,0.0,0.0,0.0,0.0,0.0,0.0,0.0,0.0,0.0,0.0,0.0,0.0,0.0,0.0,0.0,0.0,0.0,0.0,0.0,0.0,0.0,0.0,0.0,0.0,0.0,0.0,0.0,0.0,0.0,0.0,0.0,0.0,0.0,0.0,0.0,0.0,-1.338,-1.3088,-1.2669,-1.223,0.0,0.0,-1.1204,-1.0498,-1.1384,-1.1912,-1.1171,0.0,0.0,0.0,0.0,0.0,0.0,0.0,0.0,0.0,0.0,0.0,0.0,0.0,0.0,0.0,0.0,0.0,0.0,0.0,0.0,0.0,0.0,0.0,0.0,0.0,0.0,0.0,0.0,0.0,0.0,0.0,0.0,0.0,0.0,0.0,0.0,0.0,0.0,0.0,0.0,0.0,0.0,0.0,0.0,0.0,0.0,0.0,0.0,0.0,0.0,0.0,0.0,0.0,-1.8379,-1.8326,-1.9211,-1.9828,-2.0049,-1.9828,-2.0102,-2.0942,-1.9571,-1.9249,0.0,0.0,0.0,0.0,0.0,0.0,0.0,0.0,0.0,0.0,0.0,0.0,0.0,0.0,0.0,0.0,0.0,0.0,0.0,0.0,0.0,0.0,0.0,0.0,0.0,0.0,0.0,0.0,-1.344,-1.321,-1.3623,0.0,0.0,0.0,0.0,0.0,0.0,0.0,0.0,0.0,0.0,-1.3146,-1.3066,-1.2992,0.0,0.0,-1.1993,-1.179,-1.1372,-1.1709,-1.1712,-1.088,-1.0963,0.0,0.0,0.0,0.0,0.0,0.0,0.0,0.0,0.0,0.0,0.0,0.0,0.0,0.0,0.0,0.0,0.0,0.0,0.0,0.0,0.0,0.0,0.0,0.0,0.0,0.0,0.0,0.0,0.0,0.0,0.0,0.0,0.0,0.0,0.0,0.0,0.0,0.0,0.0,0.0,0.0,0.0,0.0,0.0,0.0,0.0,0.0,0.0,0.0,0.0,0.0,0.0,-1.8617,-1.8616,-1.9328,-1.9723,-1.9723,-1.9723,-1.9892,-2.0249,-1.9496,-1.9305,0.0,0.0,0.0,0.0,0.0,0.0,0.0,0.0,0.0,0.0,0.0,0.0,0.0,0.0,0.0,0.0,0.0,0.0,0.0,0.0,0.0,0.0,0.0,0.0,0.0,0.0,0.0,0.0,-1.322,-1.2914,-1.2901,0.0,0.0,0.0,0.0,0.0,0.0,0.0,0.0,0.0,0.0,-1.3159,-1.3094,-1.3301,-1.3275,-1.2797,-1.253,-1.2272,-1.1992,-1.182,-1.1466,-1.0795,0.0,0.0,0.0,0.0,0.0,0.0,0.0,0.0,0.0,0.0,0.0,0.0,0.0,0.0,0.0,0.0,0.0,0.0,0.0,0.0,0.0,0.0,0.0,0.0,0.0,0.0,0.0,0.0,0.0,0.0,-2.308,0.0,0.0,0.0,0.0,0.0,0.0,0.0,0.0,0.0,0.0,0.0,0.0,0.0,0.0,0.0,0.0,0.0,0.0,0.0,0.0,0.0,0.0,-1.8877,-1.844,-1.9289,-1.9723,-1.9723,-1.9723,-1.9892,-2.0248,-1.958,-1.937,-1.9783,0.0,0.0,0.0,0.0,0.0,0.0,0.0,0.0,0.0,0.0,0.0,0.0,0.0,0.0,0.0,0.0,0.0,0.0,0.0,0.0,0.0,0.0,0.0,0.0,0.0,0.0,-1.4833,-1.4362,-1.3718,0.0,0.0,0.0,0.0,0.0,0.0,0.0,0.0,0.0,0.0,-1.3248,-1.3692,-1.3235,-1.3687,-1.3914,-1.3663,-1.3141,-1.2616,-1.2147,-1.1601,-1.1134,0.0,0.0,0.0,0.0,0.0,0.0,0.0,0.0,0.0,0.0,0.0,0.0,0.0,0.0,0.0,0.0,0.0,0.0,0.0,0.0,0.0,0.0,0.0,0.0,0.0,0.0,0.0,-2.6767,-2.6568,0.0,0.0,0.0,0.0,0.0,0.0,0.0,0.0,0.0,0.0,0.0,-2.2803,-2.189,0.0,0.0,0.0,0.0,0.0,0.0,0.0,0.0,0.0,0.0,0.0,0.0,-1.9093,-1.9071,-1.9495,-1.9723,-1.9723,-1.9723,-1.9764,-1.9894,-1.9662,-1.9465,-1.9305,0.0,0.0,0.0,0.0,0.0,0.0,0.0,0.0,0.0,0.0,0.0,0.0,0.0,0.0,0.0,0.0,0.0,0.0,0.0,0.0,0.0,0.0,0.0,0.0,0.0,-1.4199,0.0,0.0,0.0,0.0,0.0,0.0,0.0,0.0,0.0,0.0,0.0,-1.1562,-1.1839,-1.2256,-1.2455,-1.216,-1.2658,-1.2946,0.0,0.0,0.0,0.0,0.0,0.0,0.0,0.0,0.0,0.0,0.0,0.0,0.0,0.0,-1.1621,-1.1217,-1.0939,-1.0638,-1.0197,0.0,0.0,0.0,0.0,0.0,0.0,0.0,0.0,0.0,0.0,0.0,0.0,0.0,0.0,0.0,0.0,-2.742,0.0,0.0,0.0,0.0,0.0,0.0,0.0,0.0,-2.4179,-2.4449,-2.4269,-2.3864,-2.3657,0.0,-2.2513,-2.1197,0.0,0.0,0.0,0.0,0.0,0.0,0.0,0.0,-1.9055,-1.9013,-1.9462,-1.9723,-1.9723,-1.9723,-1.9723,-1.969,-1.9483,-1.9238,-1.8972,-1.7776,-1.747,0.0,0.0,0.0,0.0,0.0,0.0,0.0,0.0,0.0,0.0,0.0,0.0,0.0,0.0,0.0,0.0,0.0,0.0,0.0,0.0,0.0,0.0,0.0,-1.3705,0.0,0.0,0.0,0.0,0.0,0.0,0.0,0.0,0.0,-1.151,-1.1501,-1.16,-1.161,-1.1811,-1.1857,-1.1423,0.0,0.0,0.0,0.0,0.0,0.0,0.0,-1.1155,-1.0975,-1.1204,-1.1489,-1.176,-1.1946,-1.2142,-1.2389,0.0,0.0,-1.1533,-1.1164,-1.0744,-0.9945,-0.9461,-0.9097,-0.8889,-0.8601,-0.8325,0.0,0.0,0.0,0.0,0.0,0.0,0.0,0.0,-2.741,-2.783,0.0,-2.8315,0.0,0.0,0.0,0.0,0.0,-2.5264,0.0,0.0,-2.6438,-2.6262,-2.4181,-2.5054,-2.4789,-2.3588,-2.4441,-2.4138,-2.2803,-2.0486,0.0,0.0,0.0,0.0,0.0,0.0,-1.88,-1.8331,-1.9215,-1.9723,-1.9723,-1.9723,-1.9723,-1.9693,-1.9079,-1.8734,-1.8702,-1.8661,-1.8375,-1.7773,-1.8035,0.0,0.0,0.0,0.0,0.0,0.0,0.0,0.0,0.0,0.0,0.0,0.0,0.0,0.0,0.0,0.0,0.0,0.0,0.0,0.0,-1.4256,0.0,0.0,0.0,0.0,0.0,0.0,0.0,0.0,0.0,0.0,-1.1562,-1.2254,-1.2573,-1.1768,0.0,0.0,0.0,0.0,-1.3011,-1.1706,-1.2093,-1.2292,-1.1623,-1.1348,-1.1294,-1.154,0.0,0.0,-1.3369,-1.3125,-1.2886,-1.2895,-1.2886,-1.2915,-1.2861,-1.2158,-1.1391,-1.0557,-0.9881,-0.9188,-0.8605,-0.8361,-0.8075,-3.4994,0.0,0.0,0.0,0.0,-2.9761,-3.0844,-3.2763,-3.2187,-3.1775,-3.1462,-3.0348,0.0,0.0,0.0,0.0,0.0,0.0,-2.8209,-2.8649,-2.9894,-2.999,-2.9127,-2.8989,-2.8484,-2.7624,-2.6486,-2.5753,-2.5285,-2.3319,-2.1773,-2.0681,0.0,0.0,0.0,0.0,-1.8655,-1.906,-1.9492,-1.9723,-1.9723,-1.9723,-1.9723,-1.9708,-1.929,-1.8943,-1.8702,-1.8472,-1.8367,-1.8418,-1.8374,0.0,0.0,0.0,0.0,0.0,0.0,0.0,0.0,0.0,0.0,0.0,0.0,0.0,0.0,0.0,0.0,0.0,0.0,0.0,-1.4406,-1.4734,-1.4557,0.0,0.0,0.0,0.0,0.0,0.0,0.0,0.0,0.0,-1.2875,-1.2404,-1.2287,0.0,0.0,-1.1328,-1.1838,-1.1785,-1.165,-1.1591,0.0,0.0,0.0,-1.1713,-1.1502,-1.1587,-1.2041,-1.2428,-1.2578,-1.2754,-1.2915,-1.2915,-1.2915,-1.2915,-1.2881,-1.2284,-1.1554,-1.0847,-1.0499,-1.0145,-0.9548,-0.9326,-0.9083,-4.0036,-3.6651,-3.3785,-3.2564,-3.2575,-3.2326,-3.3205,-3.4778,-3.4326,-3.4096,-3.402,-3.3033,-3.1305,-2.9113,-2.7851,0.0,0.0,0.0,-3.0187,-3.1307,-3.2047,-3.2174,-3.1775,-3.1926,-3.1373,-3.0162,-2.919,-2.8448,-2.7833,-2.5416,-2.3909,-2.3131,0.0,0.0,-1.9823,-1.9594,-1.9457,-1.9461,-1.9867,-1.9992,-1.9723,-1.9723,-1.9723,-1.9693,-1.9513,-1.9301,-1.9109,-1.8908,-1.8896,-1.9094,-1.8898,-1.8596,0.0,0.0,0.0,0.0,0.0,0.0,0.0,0.0,0.0,0.0,0.0,-1.4255,0.0,0.0,0.0,0.0,-1.4412,-1.4493,-1.4671,-1.4647,0.0,0.0,0.0,0.0,0.0,0.0,0.0,-1.3031,-1.3755,-1.4169,-1.3784,-1.3185,-1.3003,-1.3543,-1.2731,-1.2229,-1.2657,0.0,-1.1982,-1.1945,-1.1845,-1.1814,-1.1937,-1.1907,-1.1956,-1.2308,-1.2402,-1.2535,-1.2725,-1.2842,-1.2905,-1.2915,-1.2915,-1.2915,-1.2915,-1.2535,-1.203,-1.1341,-1.0998,-1.0585,-0.9935,-0.9588,-0.9283,-4.4091,-4.2621,-3.7409,-3.4981,-3.4579,-3.4391,-3.4549,-3.4928,-3.4895,-3.5322,-3.6122,-3.5755,-3.4681,-3.3019,-3.1187,0.0,-3.1004,-3.0987,-3.1629,-3.2666,-3.3305,-3.3242,-3.2739,-3.3928,-3.3465,-3.1572,-3.206,-3.1599,-3.0152,-2.7096,-2.5698,-2.5948,-2.3127,-2.1197,-2.0269,-2.0872,-2.0676,-1.9605,-2.0314,-2.0374,-1.9798,-1.9738,-1.9723,-1.9723,-1.9723,-1.9708,-1.9708,-1.9708,-1.9723,-1.9708,-1.9508,-1.9398,-1.9306,0.0,0.0,0.0,0.0,0.0,0.0,0.0,0.0,0.0,0.0,0.0,0.0,0.0,0.0,0.0,-1.4921,0.0,-1.5426,-1.4411,0.0,0.0,0.0,-1.3602,-1.4241,-1.4333,-1.4377,-1.4321,0.0,0.0,-1.4389,0.0,-1.436,-1.4306,-1.4176,-1.394,-1.3555,-1.3487,-1.3303,-1.2519,-1.225,-1.1997,-1.1873,-1.2061,-1.2476,-1.3154,-1.3125,-1.3023,-1.3281,-1.3115,-1.2935,-1.2915,-1.2915,-1.2915,-1.2915,-1.2881,-1.2691,-1.2021,-1.1416,-1.0821,-1.0192,-0.9562,-0.9113,-4.456,-4.3575,-4.1267,-3.9667,-3.8646,-3.8017,-3.8154,-3.8708,-3.8176,-3.7749,-3.7367,-3.6128,-3.4745,-3.3326,-3.3398,-3.3782,-3.4425,-3.4403,-3.4891,-3.5695,-3.5284,-3.4734,-3.4136,-3.4376,-3.3979,-3.303,-3.2547,-3.2107,-3.1678,-2.946,-2.7939,-2.7134,-2.5264,-2.3125,-2.084,-2.0089,-1.9897,-2.0184,-2.037,-2.048,-2.0434,-1.9977,-1.9723,-1.9723,-1.9723,-1.9723,-1.9723,-1.9723,-1.9723,-1.9708,-1.9654,-1.9355,-1.8756,-1.9216,0.0,0.0,0.0,0.0,0.0,0.0,0.0,0.0,0.0,-1.5237,-1.4636,0.0,-1.5269,0.0,-1.5273,-1.5649,-1.5985,-1.5749,0.0,0.0,-1.4751,-1.457,-1.4345,-1.4801,-1.4915,-1.4377,-1.4789,-1.5155,-1.5147,-1.5135,-1.5331,-1.5825,-1.4776,-1.4015,-1.4183,-1.3639,-1.2977,-1.2474,-1.252,-1.2663,-1.2596,-1.267,-1.2783,-1.3013,-1.2974,-1.2944,-1.3042,-1.2959,-1.2915,-1.2915,-1.2915,-1.2915,-1.2915,-1.2915,-1.2856,-1.2666,-1.2486,-1.2172,-1.1475,-1.0796,-1.0167,-4.6173,-4.5423,-4.4409,-4.3349,-4.2286,-4.0336,-3.9897,-4.0431,-4.0021,-3.9501,-3.8785,-3.7652,-3.6671,-3.5926,-3.5977,-3.6248,-3.6637,-3.6614,-3.6874,-3.7229,-3.6485,-3.5952,-3.5566,-3.5178,-3.4617,-3.3934,-3.3477,-3.3106,-3.2709,-3.1112,-2.9815,-2.8829,-2.7113,-2.512,-2.2915,-2.1548,-2.1117,-2.1633,-2.1208,-2.091,-2.0703,-2.0329,-2.0083,-1.9957,-1.9429,-1.923,-1.9424,-1.8942,-1.888,-1.9391,-1.9173,-1.8959,-1.876,-1.8709,-1.8344,0.0,0.0,0.0,0.0,0.0,0.0,0.0,0.0,0.0,0.0,0.0,-1.5811,0.0,-1.5627,-1.5736,-1.5846,-1.5622,-1.5429,-1.524,-1.5228,-1.5236,-1.5258,-1.5641,-1.5723,-1.5336,-1.5641,-1.5889,-1.5877,-1.5898,-1.6031,-1.645,-1.568,-1.5033,-1.4935,-1.4316,-1.3596,-1.3039,-1.2897,-1.2915,-1.2915,-1.2915,-1.2915,-1.2915,-1.2915,-1.2915,-1.2915,-1.2915,-1.2915,-1.2915,-1.2915,-1.2915,-1.2915,-1.2915,-1.2915,-1.2915,-1.2915,-1.2642,-1.1947,-1.1291,-1.0661,-4.7677,-4.7209,-4.6383,-4.5735,-4.5012,-4.1705,-4.0638,-4.1134,-4.1047,-4.0703,-4.017,-3.9443,-3.9148,-3.9089,-3.8481,-3.8193,-3.8176,-3.8067,-3.8058,-3.8007,-3.728,-3.6948,-3.6931,-3.6231,-3.5549,-3.4945,-3.4742,-3.432,-3.3656,-3.2376,-3.1343,-3.053,-2.8792,-2.7157,-2.5626,-2.4067,-2.3185,-2.304,-2.2328,-2.1665,-2.1077,-2.0917,-2.0712,-2.0421,-1.9266,-1.8737,-1.8946,-1.7978,-1.7865,-1.8786,-1.8368,-1.8353,-1.895,-1.7837,-1.7502,0.0,-1.7645,0.0,0.0,0.0,0.0,0.0,0.0,0.0,0.0,-1.616,-1.617,-1.6253,-1.5894,-1.5657,-1.5542,-1.5105,-1.5019,-1.5472,-1.5554,-1.5794,-1.6416,-1.6513,-1.6513,-1.6513,-1.6513,-1.6513,-1.6475,-1.6513,-1.65,-1.65,-1.6441,-1.6077,-1.5555,-1.4971,-1.4389,-1.3802,-1.3238,-1.2915,-1.2915,-1.2915,-1.2915,-1.2915,-1.2915,-1.2915,-1.2915,-1.2915,-1.2915,-1.2915,-1.2915,-1.2915,-1.2915,-1.2915,-1.2915,-1.2915,-1.2915,-1.2691,-1.2104,-1.1466,-1.0939,-4.624,-4.647,-4.5107,-4.4718,-4.4848,-4.2515,-4.167,-4.195,-4.1722,-4.1291,-4.0709,-4.015,-3.9893,-3.9893,-3.974,-3.9706,-3.9656,-3.9056,-3.8785,-3.8768,-3.8024,-3.7686,-3.7669,-3.755,-3.7398,-3.7178,-3.6011,-3.5312,-3.516,-3.3722,-3.2509,-3.1423,-3.0238,-2.9,-2.7783,0.0,0.0,0.0,-2.291,-2.3176,-2.3026,-2.2039,-2.1421,-2.1178,-1.9933,0.0,-1.84,-1.8135,-1.7905,-1.7646,-1.7546,0.0,0.0,0.0,0.0,0.0,0.0,0.0,0.0,0.0,0.0,0.0,-1.7076,-1.6879,-1.6262,-1.5952,-1.5969,-1.6373,-1.5999,-1.5881,-1.6244,-1.6207,-1.6182,-1.6282,-1.6295,-1.6332,-1.6488,-1.6513,-1.6513,-1.6513,-1.6513,-1.6513,-1.6513,-1.6513,-1.6513,-1.6513,-1.6513,-1.6042,-1.5017,-1.4801,-1.4294,-1.331,-1.2978,-1.2915,-1.2915,-1.2915,-1.2915,-1.2915,-1.2915,-1.2915,-1.2915,-1.2915,-1.2915,-1.2915,-1.2915,-1.2915,-1.2915,-1.2915,-1.2915,-1.2915,-1.2915,-1.2847,-1.2691,-1.2104,-1.1466,-4.6564,0.0,-4.5902,-4.5524,0.0,-4.3876,-4.2989,-4.2565,-4.2039,-4.1468,-4.0874,-4.0319,-4.0113,-4.0113,-4.0113,-4.0113,-4.0079,-3.9723,-3.9554,-3.9503,-3.8785,-3.8447,-3.8447,-3.8075,-3.7898,-3.7848,-3.6755,-3.6383,-3.6631,-3.5233,-3.4177,-3.3616,-3.2415,-3.1348,-3.0389,-2.8563,-2.6305,-2.3648,-2.4227,-2.4249,-2.3571,-2.2338,-2.158,-2.132,0.0,0.0,0.0,0.0,0.0,0.0,0.0,0.0,0.0,0.0,0.0,-1.924,-1.9045,-1.8951,-1.9095,-1.8936,-1.8464,-1.7612,-1.7673,-1.7359,-1.643,-1.6457,-1.6522,-1.6522,-1.6748,-1.6801,-1.6525,-1.6773,-1.6835,-1.6538,-1.6513,-1.6513,-1.6513,-1.6513,-1.6513,-1.6513,-1.6513,-1.6513,-1.6513,-1.6513,-1.6513,-1.6513,-1.6513,-1.6064,-1.4971,-1.4709,-1.4271,-1.3113,-1.2915,-1.2915,-1.2915,-1.2915,-1.2915,-1.2915,-1.2915,-1.2915,-1.2915,-1.2915,-1.2915,-1.2915,-1.2915,-1.2915,-1.2915,-1.2915,-1.2915,-1.2915,-1.2915,-1.2749,-1.2476,-1.2344,-1.2138,-4.7399,-4.7296,-4.7149,-4.6617,-4.5847,-4.5057,-4.3953,-4.2717,0.0,0.0,0.0,-4.0336,-4.0113,-4.0113,-4.0113,-4.0113,-4.0113,-4.0113,-4.0113,-4.0079,-3.9486,-3.9191,-3.9157,-3.8582,-3.8278,-3.8261,-3.7557,-3.7483,-3.8024,-3.6546,-3.5825,-3.5695,-3.443,-3.3342,-3.2424,-3.0744,-2.8632,-2.6337,-2.5981,-2.5244,-2.3961,-2.2817,-2.2021,-2.1663,-1.9948,-1.9108,-1.9236,-1.8328,-1.8197,-1.9047,-1.863,-1.8662,-1.9259,-1.8859,-1.891,-1.9581,-1.9639,-1.9744,-1.9941,-1.9964,-1.9581,-1.8665,-1.8566,-1.8052,-1.6892,-1.7254,-1.7338,-1.6861,-1.7664,-1.7815,-1.6889,-1.7237,-1.7322,-1.6713,-1.6638,-1.6626,-1.6525,-1.6513,-1.6513,-1.6513,-1.6513,-1.6513,-1.6513,-1.6513,-1.6513,-1.6513,-1.6513,-1.6076,-1.4983,-1.4456,-1.3954,-1.3113,-1.2915,-1.2915,-1.2915,-1.2915,-1.2915,-1.2915,-1.2915,-1.2915,-1.2915,-1.2915,-1.2915,-1.2915,-1.2915,-1.2915,-1.2915,-1.2915,-1.2915,-1.2915,-1.2798,-1.2535,-1.2021,-1.2172,-1.2181,-4.7791,-4.8086,-4.7388,-4.6617,-4.5828,-4.5057,-4.3663,-4.1888,-4.0819,-4.0528,-4.0874,-4.0336,-4.0113,-4.0113,-4.0113,-4.0113,-4.0113,-4.0113,-4.0113,0.0,-4.0011,-3.9943,-3.9943,-3.9842,-3.9791,-3.974,-3.9022,-3.8734,-3.8667,-3.7354,-3.662,-3.6451,-3.5132,-3.3734,-3.2524,-3.1605,-3.0689,-2.9743,-2.8098,-2.6619,-2.533,-2.4575,-2.3792,-2.3002,-2.168,-2.0651,-1.9987,-1.9798,-1.9536,-1.9205,-1.9107,-1.9415,-2.015,-2.014,-2.0467,-2.1272,-2.1332,-2.1376,-2.1391,-2.1406,-2.1147,-2.0543,-2.0112,-1.9312,-1.8118,-1.805,-1.8053,-1.7978,-1.8129,-1.8154,-1.7978,-1.8028,-1.7865,-1.7373,-1.7272,-1.7074,-1.6588,-1.6513,-1.6513,-1.6513,-1.6513,-1.6513,-1.6513,-1.6513,-1.6513,-1.6513,-1.6371,-1.602,-1.4835,-1.3789,-1.3162,-1.2954,-1.2915,-1.2915,-1.2915,-1.2915,-1.2915,-1.2915,-1.2915,-1.2915,-1.2915,-1.2915,-1.2915,-1.2915,-1.2915,-1.2915,-1.2915,-1.2915,-1.2832,-1.2774,-1.2393,-1.1898,-1.1665,-1.14,-1.0906,-4.7433,-4.7179,-4.7109,-4.6379,-4.515,-4.3735,-4.2445,-4.1268,-4.0466,-4.0229,-4.0424,-4.0204,-4.0113,-4.0113,-4.0113,-4.0113,-4.0113,-4.0113,-4.0113,-4.0113,-4.0113,-4.0113,-4.0113,-4.0113,-4.0113,-4.0062,-3.9343,-3.9216,-3.9436,-3.8132,-3.7381,-3.728,-3.5859,-3.4594,-3.3634,-3.3244,-3.2425,-3.1045,-2.9357,-2.8023,-2.7112,-2.572,-2.4647,-2.3948,-2.2651,-2.1637,-2.0996,-2.0961,-2.0843,-2.0552,-2.0537,-2.0724,-2.1069,-2.1118,-2.1436,-2.2173,-2.2239,-2.2239,-2.2239,-2.1904,-2.1595,-2.1359,-2.1118,-2.0724,-2.0162,-1.9522,-1.8911,-1.8314,-1.8706,-1.8819,-1.8304,-1.848,-1.8442,-1.789,-1.7564,-1.7297,-1.7011,-1.6685,-1.6513,-1.6513,-1.6513,-1.6513,-1.6513,-1.6513,-1.6513,-1.6445,-1.602,-1.5197,-1.4352,-1.3491,-1.2915,-1.2915,-1.2915,-1.2915,-1.2915,-1.2915,-1.2915,-1.2915,-1.2915,-1.2915,-1.2915,-1.2915,-1.2915,-1.2915,-1.2915,-1.2915,-1.2891,-1.2559,-1.2369,-1.2246,-1.1733,-1.1241,-1.0788,-1.0192,-0.9762,-4.7169,-4.6522,-4.6966,-4.6356,-4.4875,-4.2908,-4.1732,-4.1116,-4.0421,-4.0113,-4.0113,-4.0113,-4.0113,-4.0113,-4.0113,-4.0113,-4.0113,-4.0113,-4.0113,-4.0113,-4.0113,-4.0113,-4.0113,-4.0113,-4.0113,-4.0045,-3.952,-3.9554,-3.9893,-3.8768,-3.8058,-3.7804,-3.6698,-3.5735,-3.5013,-3.4827,-3.3896,-3.2208,-3.0869,-2.9636,-2.8427,-2.6707,-2.546,-2.4698,-2.3531,-2.2674,-2.2169,-2.2128,-2.2128,-2.2128,-2.2128,-2.2128,-2.2128,-2.2113,-2.2353,-2.2838,-2.2912,-2.2912,-2.2882,-2.2413,-2.2113,-2.2128,-2.2144,-2.2018,-2.1672,-2.0896,-1.9951,-1.9081,-1.9546,-1.9636,-1.8844,-1.892,-1.8958,-1.8418,-1.8028,-1.7739,-1.7551,-1.7061,-1.671,-1.6722,-1.6722,-1.6685,-1.655,-1.6613,-1.6585,-1.6188,-1.5354,-1.4514,-1.3897,-1.3286,-1.2929,-1.2915,-1.2915,-1.2915,-1.2915,-1.2915,-1.2915,-1.2915,-1.2915,-1.2915,-1.2915,-1.2915,-1.2915,-1.2915,-1.2915,-1.2798,-1.2642,-1.2236,-1.1814,-1.1616,-1.104,-1.0364,-0.9769,-0.929,-0.8975,-4.752,-4.7302,-4.7319,-4.6871,-4.5776,-4.374,-4.25,-4.1812,-4.066,-4.0113,-4.0113,-4.0113,-4.0113,-4.0113,-4.0113,-4.0113,-4.0113,-4.0113,-4.0113,-4.0113,-4.0113,-4.0113,-4.0113,-4.0113,-4.0113,-4.0096,-3.9994,-3.9977,-4.0045,-3.93,-3.8548,-3.7973,-3.7753,-3.728,-3.6592,-3.5876,-3.5082,-3.4235,-3.344,-3.155,-2.8662,-2.7712,-2.6701,-2.545,-2.477,-2.4103,-2.3428,-2.343,-2.3415,-2.3415,-2.3385,-2.34,-2.34,-2.34,-2.3445,-2.349,-2.3505,-2.3505,-2.3505,-2.346,-2.337,-2.3415,-2.3351,-2.2885,-2.1857,-2.16,-2.1271,-2.0635,-2.0593,-2.0268,-1.9737,-1.9673,-1.9472,-1.8995,-1.882,-1.8657,-1.8166,-1.7639,-1.7322,-1.7322,-1.7322,-1.7146,-1.6798,-1.6986,-1.6811,-1.5891,-1.5197,-1.4479,-1.3897,-1.3286,-1.2915,-1.2915,-1.2915,-1.2915,-1.2915,-1.2915,-1.2915,-1.2915,-1.2915,-1.2915,-1.2915,-1.2915,-1.2915,-1.2915,-1.2915,-1.2725,-1.227,-1.1789,-1.1566,-1.1065,-1.044,-0.971,-0.9106,-0.8857,-0.8877,-4.7413,-4.6916,-4.6836,-4.615,-4.5012,-4.3693,-4.2521,-4.1519,-4.0994,-4.0519,-4.013,-4.0113,-4.0113,-4.0113,-4.0113,-4.0113,-4.0113,-4.0113,-4.0113,-4.0113,-4.0113,-4.0113,-4.0113,-4.0113,-4.0113,-4.0113,-4.0113,-4.0113,-3.9977,-3.9368,-3.8836,-3.8514,-3.8125,-3.7736,-3.7398,-3.6688,-3.5952,-3.5211,-3.4448,-3.3,-3.1047,-3.0095,-2.8837,-2.7199,-2.6135,-2.5087,-2.4151,-2.3773,-2.3595,-2.3595,-2.3595,-2.3595,-2.3595,-2.3595,-2.3595,-2.3595,-2.3595,-2.3774,-2.4178,-2.3834,-2.3595,-2.3595,-2.3595,-2.3231,-2.2392,-2.23,-2.1903,-2.0968,-2.0446,-2.008,-1.985,-1.9798,-1.971,-1.9447,-1.9196,-1.8907,-1.8707,-1.818,-1.7865,-1.7865,-1.7865,-1.779,-1.7551,-1.7426,-1.6878,-1.582,-1.5085,-1.4468,-1.3886,-1.3286,-1.2954,-1.2915,-1.2915,-1.2915,-1.2915,-1.2915,-1.2915,-1.2915,-1.2915,-1.2915,-1.2915,-1.2915,-1.2915,-1.2915,-1.2915,-1.2832,-1.2584,-1.1658,-1.1065,-1.0593,-0.9865,-0.9106,-0.8831,-0.8778,-0.8778,-4.7131,-4.663,-4.646,-4.5754,-4.4661,-4.3865,-4.2859,-4.1788,-4.1407,-4.0882,-4.0392,-4.0197,-4.0113,-4.0113,-4.0113,-4.0113,-4.0113,-4.0113,-4.0113,-4.0113,-4.0113,-4.0113,-4.0113,-4.0113,-4.0113,-4.0113,-4.0113,-4.0113,-4.0045,-3.958,-3.9317,-3.9191,-3.8768,-3.8396,-3.8159,-3.7635,-3.6932,-3.6037,-3.5418,-3.4453,-3.3107,-3.2066,-3.0501,-2.8428,-2.7203,-2.6042,-2.4798,-2.4353,-2.4148,-2.4148,-2.3984,-2.3857,-2.3864,-2.3699,-2.3595,-2.364,-2.3954,-2.4246,-2.459,-2.4141,-2.3879,-2.3864,-2.3729,-2.3355,-2.283,-2.2709,-2.2198,-2.121,-2.0459,-2.0067,-1.9824,-1.9798,-1.9798,-1.9773,-1.9409,-1.9221,-1.9183,-1.8744,-1.843,-1.843,-1.843,-1.843,-1.8329,-1.7817,-1.7008,-1.6011,-1.5188,-1.4468,-1.3897,-1.331,-1.2915,-1.2915,-1.2915,-1.2915,-1.2915,-1.2915,-1.2915,-1.2915,-1.2915,-1.2915,-1.2915,-1.2915,-1.2915,-1.2915,-1.2915,-1.27,-1.2295,-1.1475,-1.0568,-1.0167,-0.9517,-0.8831,-0.8804,-0.8778,-0.8778,-4.6737,-4.656,-4.6435,-4.5937,-4.5364,-4.4645,-4.3915,-4.3054,-4.1847,-4.1221,-4.1018,-4.0409,-4.0113,-4.0113,-4.0113,-4.0113,-4.0113,-4.0113,-4.0113,-4.0113,-4.0146,-4.0113,-4.0113,-4.0113,-4.0113,-4.0113,-4.0113,-4.0113,-4.0113,-4.0045,-4.0062,-4.0011,-3.991,-3.9622,-3.9005,-3.8768,-3.8159,-3.6871,-3.6546,-3.5881,-3.4409,-3.3095,-3.117,-2.8826,-2.7782,-2.6787,-2.5688,-2.5518,-2.5465,-2.5495,-2.4874,-2.456,-2.45,-2.3984,-2.3684,-2.3804,-2.4807,-2.5202,-2.4754,-2.4605,-2.456,-2.4485,-2.4073,-2.34,-2.2886,-2.2795,-2.2417,-2.1697,-2.1064,-2.0522,-1.9978,-1.985,-1.9798,-1.9798,-1.9773,-1.9697,-1.9736,-1.9246,-1.9008,-1.897,-1.8958,-1.892,-1.8907,-1.8041,-1.7248,-1.6391,-1.5418,-1.4537,-1.399,-1.3324,-1.3017,-1.2915,-1.2915,-1.2915,-1.2915,-1.2915,-1.2915,-1.2915,-1.2915,-1.2915,-1.2915,-1.2915,-1.2915,-1.2915,-1.2915,-1.2618,-1.1981,-1.1191,-1.0287,-0.971,-0.9237,-0.8778,-0.8778,-0.8778,-0.8778,-4.6214,-4.5326,-4.5289,-4.5098,-4.4899,-4.4626,-4.4089,-4.3369,-4.2861,-4.204,-4.1271,-4.0916,-4.0544,-4.0113,-4.0113,-4.0113,-4.0113,-4.0113,-4.0113,-4.0163,-4.0561,-4.0544,-4.018,-4.0544,-4.0536,-4.0146,-4.0113,-4.0113,-4.0113,-4.0113,-4.0113,-4.0113,-4.0113,-3.9943,-3.9588,-3.8768,-3.799,-3.7466,-3.6586,-3.5542,-3.4588,-3.3621,-3.2077,-2.9931,-2.831,-2.7079,-2.6153,-2.5786,-2.56,-2.56,-2.539,-2.5232,-2.5217,-2.4993,-2.5091,-2.5465,-2.5585,-2.5689,-2.5809,-2.548,-2.5232,-2.5217,-2.5046,-2.4415,-2.3586,-2.3308,-2.2917,-2.1977,-2.1558,-2.1099,-2.0522,-2.008,-1.9798,-1.9798,-1.9798,-1.9798,-1.9773,-1.9623,-1.9497,-1.9522,-1.9522,-1.9384,-1.897,-1.8367,-1.7708,-1.7045,-1.6012,-1.5119,-1.4468,-1.3873,-1.3334,-1.2992,-1.2915,-1.2915,-1.2915,-1.2915,-1.2915,-1.2915,-1.2915,-1.2915,-1.2915,-1.2915,-1.2915,-1.2915,-1.2915,-1.2774,-1.2197,-1.1466,-1.0466,-0.9465,-0.8982,-0.908,-0.8778,-0.9054,-0.9008,-4.643,-4.541,-4.5326,-4.519,-4.4959,-4.4942,-4.4502,-4.3809,-4.3521,-4.2817,-4.1999,-4.1677,-4.1271,-4.0874,-4.0823,-4.0807,-4.079,-4.0603,-4.0587,-4.0857,-4.1322,-4.1288,-4.095,-4.1305,-4.1153,-4.0493,-4.0197,-4.0113,-4.0113,-4.0113,-4.0113,-4.0113,-4.0113,-4.0113,-3.9926,-3.9073,-3.8447,-3.7797,-3.6636,-3.5585,-3.4633,-3.3461,-3.2309,-3.0844,-2.8938,-2.7524,-2.681,-2.6443,-2.6243,-2.6213,-2.6033,-2.5824,-2.5636,-2.5809,-2.6019,-2.6228,-2.6273,-2.6318,-2.6497,-2.6183,-2.5914,-2.5899,-2.5704,-2.5165,-2.4385,-2.4318,-2.3835,-2.316,-2.2738,-2.2415,-2.174,-2.112,-2.0475,-1.9989,-1.9798,-1.9798,-1.9798,-1.9798,-1.9786,-1.9773,-1.9761,-1.961,-1.9309,-1.8782,-1.8243,-1.7727,-1.6605,-1.5667,-1.5074,-1.4295,-1.3708,-1.3262,-1.3017,-1.2929,-1.2915,-1.2915,-1.2915,-1.2915,-1.2915,-1.2915,-1.2915,-1.2915,-1.2915,-1.2915,-1.2856,-1.2774,-1.2353,-1.1674,-1.0745,-0.964,-0.9614,-0.984,-0.9658,-0.9529,-0.9577,-4.7445,-4.6718,-4.6769,-4.6278,-4.5737,-4.5635,-4.5246,-4.4519,-4.3809,-4.3375,-4.3064,-4.2591,-4.2219,-4.2168,-4.2033,-4.2202,-4.2083,-4.1508,-4.1525,-4.2049,-4.2236,-4.2202,-4.2016,-4.21,-4.1728,-4.0984,-4.0392,-4.0113,-4.0113,-4.0113,-4.0113,-4.0113,-4.0113,-4.0113,-4.0113,-3.9842,-3.9191,-3.8005,-3.7019,-3.5952,-3.457,-3.2822,-3.1768,-3.1367,-2.9655,-2.8325,-2.7635,-2.7535,-2.742,-2.739,-2.6926,-2.6303,-2.5944,-2.6273,-2.6348,-2.6123,-2.6866,-2.718,-2.6737,-2.6641,-2.6602,-2.6566,-2.6048,-2.5756,-2.555,-2.5506,-2.5422,-2.5118,-2.4684,-2.4205,-2.3437,-2.2696,-2.1641,-2.0193,-1.9899,-1.9899,-1.9811,-1.9798,-1.9798,-1.9798,-1.9798,-1.9798,-1.9685,-1.9233,-1.8707,-1.8147,-1.7198,-1.6226,-1.562,-1.4743,-1.4003,-1.3661,-1.3372,-1.3138,-1.3002,-1.2915,-1.2915,-1.2915,-1.2915,-1.2915,-1.2915,-1.2915,-1.2915,-1.2915,-1.2915,-1.2798,-1.2246,-1.1591,-1.1316,-1.0568,-1.0669,-1.0491,-1.0338,-1.0218,-1.047,-4.7479,-4.6819,-4.6786,-4.6667,-4.638,-4.5923,-4.5551,-4.5263,-4.4553,-4.3927,-4.3453,-4.3166,-4.2777,-4.2388,-4.2303,-4.2591,-4.2963,-4.232,-4.2083,-4.2371,-4.2828,-4.2523,-4.183,-4.2066,-4.1627,-4.0603,-4.0231,-4.0113,-4.0113,-4.0113,-4.0113,-4.0113,-4.0113,-4.0113,-4.0079,-3.9605,-3.8819,-3.7884,-3.6679,-3.5556,-3.4561,-3.3081,-3.2086,-3.1542,-3.047,-2.943,-2.8353,-2.7854,-2.76,-2.76,-2.7405,-2.7195,-2.7061,-2.7165,-2.7195,-2.7061,-2.733,-2.754,-2.7345,-2.727,-2.727,-2.7255,-2.7061,-2.6761,-2.6363,-2.6273,-2.6093,-2.5649,-2.4975,-2.4298,-2.364,-2.291,-2.1941,-2.057,-2.0415,-2.0226,-1.9874,-1.9798,-1.9798,-1.9798,-1.9798,-1.9798,-1.9723,-1.9334,-1.8983,-1.8694,-1.7767,-1.6902,-1.6203,-1.5485,-1.4641,-1.4003,-1.3647,-1.3296,-1.3051,-1.2915,-1.2915,-1.2915,-1.2915,-1.2915,-1.2915,-1.2915,-1.2915,-1.2915,-1.2915,-1.27,-1.2113,-1.1798,-1.1575,-1.1241,-1.0965,-1.0838,-1.0813,-1.0998,-1.1294,-4.8054,-4.7631,-4.7614,-4.7445,-4.7175,-4.6701,-4.6194,-4.5703,-4.5213,-4.4553,-4.3961,-4.3859,-4.3589,-4.32,-4.3159,-4.3403,-4.3741,-4.3064,-4.2861,-4.3108,-4.3234,-4.2834,-4.1999,-4.1847,-4.1474,-4.0612,-4.0248,-4.0113,-4.0113,-4.0113,-4.0113,-4.0113,-4.0113,-4.0113,-4.0079,-3.9631,-3.8847,-3.7559,-3.6363,-3.5129,-3.3893,-3.2788,-3.1989,-3.1509,-3.085,-3.0011,-2.9011,-2.8334,-2.7869,-2.766,-2.7585,-2.7585,-2.7585,-2.757,-2.7585,-2.7585,-2.7585,-2.7585,-2.7585,-2.7555,-2.7585,-2.7585,-2.7585,-2.7435,-2.7061,-2.6986,-2.6746,-2.635,-2.5706,-2.4967,-2.4332,-2.3581,-2.2604,-2.1426,-2.0905,-2.0478,-1.9936,-1.9798,-1.9798,-1.9798,-1.9798,-1.9798,-1.971,-1.9559,-1.9196,-1.8945,-1.8418,-1.7633,-1.6934,-1.6259,-1.5326,-1.4487,-1.392,-1.3491,-1.3027,-1.2915,-1.2915,-1.2915,-1.2915,-1.2915,-1.2915,-1.2915,-1.2915,-1.2915,-1.2915,-1.2881,-1.2403,-1.2344,-1.2197,-1.1758,-1.145,-1.1717,-1.1902,-1.2032,-1.2259,-4.8984,-4.9018,-4.8984,-4.8545,-4.7956,-4.7804,-4.709,-4.6007,-4.5686,-4.5263,-4.4739,-4.453,-4.4485,-4.453,-4.4344,-4.4395,-4.4429,-4.369,-4.369,-4.4012,-4.3809,-4.3234,-4.2868,-4.1728,-4.1052,-4.0865,-4.0367,-4.013,-4.0113,-4.0113,-4.0113,-4.0113,-4.0113,-4.0113,-4.0079,-4.0079,-3.9068,-3.7402,-3.6283,-3.4824,-3.3045,-3.1966,-3.1538,-3.1463,-3.0954,-3.0313,-2.9654,-2.8996,-2.8308,-2.772,-2.7585,-2.7585,-2.7585,-2.7585,-2.7585,-2.7585,-2.7585,-2.7585,-2.7585,-2.7585,-2.7585,-2.7585,-2.7585,-2.7585,-2.751,-2.745,-2.7435,-2.731,-2.6637,-2.5967,-2.526,-2.4448,-2.3482,-2.2391,-2.1267,-2.049,-1.9911,-1.9798,-1.9798,-1.9798,-1.9798,-1.9798,-1.9798,-1.9761,-1.9509,-1.9208,-1.8958,-1.8358,-1.7738,-1.6934,-1.6008,-1.5233,-1.4507,-1.3802,-1.3358,-1.2929,-1.2905,-1.2915,-1.2915,-1.2925,-1.2915,-1.2915,-1.2915,-1.2915,-1.2915,-1.2881,-1.2822,-1.2691,-1.2691,-1.2461,-1.252,-1.2832,-1.2929,-1.289,-1.307,-4.9018,-4.9018,-4.9018,-4.89,-4.8646,-4.8142,-4.7686,-4.7192,-4.616,-4.5669,-4.5314,-4.4835,-4.4632,-4.4598,-4.4598,-4.4598,-4.4384,-4.3775,-4.3826,-4.4378,-4.3775,-4.3098,-4.2388,-4.1145,-4.0409,-4.04,-4.0231,-4.0113,-4.0113,-4.0113,-4.0113,-4.0113,-4.0113,-4.0113,-4.0113,-4.0113,-3.9547,-3.8313,-3.6617,-3.5321,-3.4009,-3.2361,-3.1524,-3.1481,-3.1316,-3.0896,-3.0283,-2.9654,-2.8768,-2.7705,-2.7585,-2.7585,-2.76,-2.7585,-2.7585,-2.7585,-2.7585,-2.7585,-2.7585,-2.7585,-2.7585,-2.7585,-2.7585,-2.7585,-2.7585,-2.7585,-2.7585,-2.7367,-2.6481,-2.5646,-2.5231,-2.4221,-2.3157,-2.2355,-2.1393,-2.0541,-1.9999,-1.9798,-1.9798,-1.9798,-1.9798,-1.9798,-1.9798,-1.9786,-1.9736,-1.9535,-1.9246,-1.892,-1.8333,-1.7713,-1.6842,-1.6021,-1.5244,-1.4392,-1.3708,-1.32,-1.2929,-1.2915,-1.2925,-1.2935,-1.2925,-1.2915,-1.2915,-1.2915,-1.2915,-1.2881,-1.2881,-1.2832,-1.2915,-1.3003,-1.3042,-1.312,-1.3281,-1.3343,-1.3729,-4.9018,-4.9018,-4.9018,-4.9018,-4.8968,-4.8514,-4.8176,-4.777,-4.7027,-4.6244,-4.5737,-4.528,-4.4857,-4.4632,-4.4598,-4.4598,-4.4513,-4.3775,-4.3876,-4.4361,-4.3775,-4.3031,-4.2168,-4.1052,-4.0417,-4.0113,-4.0113,-4.0113,-4.0113,-4.0113,-4.0113,-4.0113,-4.0113,-4.0113,-4.0113,-4.0054,-3.9387,-3.8171,-3.7008,-3.5911,-3.382,-3.2942,-3.2123,-3.1686,-3.1481,-3.1182,-3.0537,-2.9894,-2.9097,-2.8259,-2.8019,-2.7874,-2.7615,-2.7585,-2.7585,-2.7585,-2.7585,-2.7585,-2.7585,-2.7585,-2.7585,-2.7585,-2.7585,-2.7585,-2.7585,-2.7585,-2.7585,-2.7458,-2.6242,-2.5563,-2.5147,-2.4018,-2.298,-2.2359,-2.1732,-2.1029,-2.0263,-1.9949,-1.9823,-1.9798,-1.9798,-1.9798,-1.9798,-1.9798,-1.9798,-1.9748,-1.956,-1.9259,-1.8883,-1.8319,-1.755,-1.6539,-1.5768,-1.4969,-1.4111,-1.3516,-1.3248,-1.3208,-1.3164,-1.3135,-1.3071,-1.3032,-1.2993,-1.2993,-1.2944,-1.2944,-1.3013,-1.3091,-1.3184,-1.3252,-1.3271,-1.3418,-1.3617,-1.3831,-1.4238,-4.912,-4.9103,-4.9035,-4.9018,-4.9018,-4.8984,-4.8545,-4.7956,-4.7635,-4.6887,-4.5889,-4.5602,-4.5077,-4.4598,-4.4598,-4.4598,-4.4536,-4.3944,-4.4062,-4.4248,-4.391,-4.325,-4.2489,-4.1525,-4.0832,-4.0367,-4.018,-4.0113,-4.0113,-4.0113,-4.0113,-4.0113,-4.0113,-4.0113,-4.0113,-4.0096,-3.9018,-3.7931,-3.7562,-3.6268,-3.4154,-3.3497,-3.2813,-3.1867,-3.154,-3.1271,-3.0731,-3.0163,-2.9535,-2.8846,-2.8682,-2.8278,-2.7779,-2.7705,-2.7585,-2.7585,-2.7585,-2.7585,-2.7585,-2.7585,-2.7585,-2.7585,-2.7585,-2.7585,-2.7585,-2.7585,-2.7534,-2.7357,-2.6188,-2.5398,-2.4754,-2.3745,-2.2892,-2.2305,-2.2142,-2.1594,-2.0893,-2.0226,-1.9861,-1.9798,-1.9798,-1.9798,-1.9798,-1.9798,-1.9798,-1.9798,-1.9647,-1.9382,-1.9019,-1.8449,-1.7589,-1.6583,-1.5978,-1.5491,-1.4651,-1.3857,-1.3688,-1.3574,-1.3574,-1.3525,-1.3359,-1.3281,-1.3154,-1.3135,-1.334,-1.335,-1.3271,-1.3369,-1.3516,-1.3535,-1.3564,-1.3802,-1.4094,-1.4316,-1.4629,-4.9864,-4.9813,-4.9255,-4.9018,-4.9018,-4.9001,-4.8578,-4.7855,-4.7293,-4.6566,-4.5737,-4.5139,-4.4818,-4.4598,-4.4598,-4.4598,-4.4598,-4.4378,-4.4496,-4.4513,-4.4496,-4.3893,-4.3031,-4.1914,-4.117,-4.0798,-4.0324,-4.013,-4.0113,-4.0113,-4.0113,-4.0113,-4.0113,-4.0113,-4.0113,-4.007,-3.9986,-3.9172,-3.7953,-3.6777,-3.5574,-3.4176,-3.3215,-3.2287,-3.1795,-3.1481,-3.1331,-3.1167,-3.0763,-3.0058,-2.9175,-2.8562,-2.8293,-2.7854,-2.7615,-2.7585,-2.7585,-2.7585,-2.7585,-2.7585,-2.7585,-2.7585,-2.7585,-2.7585,-2.7585,-2.7585,-2.7291,-2.6785,-2.5919,-2.4979,-2.3875,-2.2988,-2.2498,-2.2234,-2.1644,-2.1081,-2.0742,-2.0553,-2.0239,-1.9924,-1.9798,-1.9798,-1.9798,-1.9798,-1.9798,-1.9798,-1.9644,-1.944,-1.9024,-1.8499,-1.7601,-1.6591,-1.6114,-1.5616,-1.5055,-1.4353,-1.4109,-1.4004,-1.4004,-1.4075,-1.3926,-1.3818,-1.3773,-1.3802,-1.387,-1.3792,-1.3588,-1.3799,-1.3984,-1.3916,-1.388,-1.4163,-1.4436,-1.4717,-1.4893,-5.0101,-5.0016,-4.9306,-4.9018,-4.8951,-4.8629,-4.8274,-4.7787,-4.7107,-4.638,-4.5754,-4.5263,-4.4925,-4.4615,-4.4598,-4.4598,-4.4598,-4.4598,-4.4598,-4.4598,-4.4581,-4.435,-4.3758,-4.2489,-4.1576,-4.1221,-4.0832,-4.046,-4.0197,-4.0113,-4.0113,-4.0113,-4.0113,-4.0113,-4.0113,-4.007,-3.9636,-3.8983,-3.8275,-3.7211,-3.571,-3.5015,-3.3683,-3.2736,-3.2123,-3.1854,-3.1525,-3.1481,-3.1107,-3.0447,-2.9594,-2.8906,-2.8532,-2.7974,-2.763,-2.7585,-2.7585,-2.7585,-2.7585,-2.7585,-2.7585,-2.7585,-2.7585,-2.7585,-2.7585,-2.7585,-2.7255,-2.6549,-2.5783,-2.4796,-2.3297,-2.2619,-2.2343,-2.2184,-2.1568,-2.1006,-2.0717,-2.0465,-2.0201,-1.9861,-1.9798,-1.9798,-1.9798,-1.9773,-1.9747,-1.9721,-1.9176,-1.8982,-1.8797,-1.8266,-1.7526,-1.6732,-1.6222,-1.5745,-1.532,-1.4852,-1.452,-1.4443,-1.4443,-1.4629,-1.4717,-1.4611,-1.4552,-1.4426,-1.4231,-1.4085,-1.3958,-1.4182,-1.4414,-1.4424,-1.4482,-1.4629,-1.4767,-1.5029,-1.5166,-5.0185,-5.0033,-4.9306,-4.9018,-4.89,-4.8257,-4.7868,-4.7614,-4.6955,-4.6126,-4.5618,-4.5534,-4.5026,-4.4716,-4.4598,-4.4598,-4.4598,-4.4598,-4.4598,-4.4598,-4.4598,-4.4547,-4.4141,-4.3132,-4.2117,-4.1424,-4.0967,-4.0561,-4.0231,-4.0113,-4.0113,-4.0113,-4.0113,-4.0113,-4.0113,-4.0045,-3.9532,-3.8509,-3.836,-3.747,-3.5569,-3.5324,-3.444,-3.3066,-3.2467,-3.2079,-3.1645,-3.1466,-3.1256,-3.0687,-3.0058,-2.943,-2.8783,-2.8019,-2.7585,-2.7585,-2.7585,-2.7585,-2.7585,-2.7585,-2.7585,-2.7585,-2.7585,-2.7484,-2.7433,-2.724,-2.6811,-2.6108,-2.5231,-2.4381,-2.3237,-2.2769,-2.2393,-2.2121,-2.1719,-2.123,-2.0641,-2.0113,-1.9874,-1.9823,-1.9798,-1.9798,-1.9721,-1.9631,-1.9643,-1.9501,-1.8939,-1.8447,-1.8259,-1.7911,-1.7103,-1.6497,-1.5941,-1.5749,-1.5352,-1.5228,-1.4883,-1.4834,-1.4853,-1.5019,-1.5244,-1.5108,-1.4913,-1.465,-1.4455,-1.4397,-1.4455,-1.4697,-1.4853,-1.4922,-1.4951,-1.5,-1.5156,-1.5352,-1.54,-5.0659,-5.0033,-4.9306,-4.9018,-4.89,-4.8223,-4.7547,-4.6904,-4.6227,-4.5466,-4.4886,-4.4801,-4.4784,-4.4615,-4.4598,-4.4598,-4.4598,-4.4513,-4.4496,-4.4496,-4.4445,-4.4395,-4.4124,-4.3301,-4.2608,-4.1914,-4.1018,-4.0282,-4.0163,-4.0113,-4.0045,-4.007,-4.002,-4.002,-4.002,-4.0045,-3.9532,-3.8513,-3.8218,-3.7284,-3.623,-3.5578,-3.4845,-3.3365,-3.2856,-3.2213,-3.166,-3.1496,-3.1451,-3.1286,-3.0717,-3.0058,-2.925,-2.8229,-2.772,-2.7585,-2.7585,-2.7585,-2.7585,-2.7585,-2.7585,-2.7585,-2.7585,-2.7255,-2.6904,-2.6669,-2.6188,-2.5021,-2.4163,-2.3412,-2.3155,-2.2832,-2.2431,-2.1945,-2.1418,-2.1016,-2.0238,-1.9886,-1.9798,-1.9798,-1.9798,-1.9798,-1.9695,-1.9449,-1.9202,-1.8886,-1.8286,-1.7688,-1.7313,-1.6968,-1.6451,-1.5938,-1.5535,-1.5467,-1.5381,-1.538,-1.5254,-1.5205,-1.5215,-1.5254,-1.54,-1.5391,-1.5234,-1.5088,-1.5029,-1.5049,-1.5137,-1.5195,-1.5107,-1.5029,-1.5156,-1.5293,-1.5332,-1.5371,-1.5439,-5.0439,-5.0016,-4.9306,-4.9018,-4.8815,-4.78,-4.7141,-4.665,-4.5618,-4.4953,-4.4682,-4.4598,-4.4598,-4.4598,-4.4598,-4.4598,-4.4496,-4.4096,-4.3995,-4.3944,-4.3606,-4.3413,-4.3396,-4.2658,-4.2168,-4.1491,-4.0612,-4.0113,-4.0113,-4.0113,-3.9885,-3.9516,-3.9506,-3.9506,-3.9506,-3.9437,-3.9049,-3.8386,-3.7921,-3.7189,-3.6165,-3.5636,-3.4818,-3.3784,-3.3155,-3.2497,-3.1675,-3.1496,-3.1301,-3.0972,-3.0687,-2.9998,-2.922,-2.8588,-2.7934,-2.7705,-2.76,-2.7585,-2.7585,-2.7585,-2.7585,-2.7585,-2.7585,-2.7229,-2.6721,-2.639,-2.5742,-2.4567,-2.3603,-2.3095,-2.3095,-2.2669,-2.2058,-2.1556,-2.1081,-2.0476,-1.9999,-1.9836,-1.9798,-1.9798,-1.9798,-1.9773,-1.9695,-1.9371,-1.8886,-1.8286,-1.7633,-1.7062,-1.6492,-1.6179,-1.5892,-1.5719,-1.541,-1.541,-1.542,-1.542,-1.542,-1.542,-1.543,-1.5478,-1.5518,-1.5498,-1.5635,-1.5703,-1.5654,-1.5439,-1.5391,-1.5303,-1.5225,-1.5195,-1.543,-1.5566,-1.541,-1.5361,-1.5459,-4.9999,-4.9813,-4.9255,-4.8917,-4.8578,-4.7361,-4.6701,-4.6329,-4.519,-4.4632,-4.4581,-4.4412,-4.4299,-4.4265,-4.4175,-4.409,-4.4062,-4.3403,-4.3234,-4.3098,-4.2709,-4.2354,-4.2117,-4.1644,-4.1288,-4.1255,-4.0519,-4.0113,-4.0113,-4.0113,-3.9714,-3.9437,-3.9129,-3.8924,-3.8978,-3.8816,-3.8274,-3.779,-3.7544,-3.6783,-3.5846,-3.5444,-3.4966,-3.3799,-3.3574,-3.2916,-3.1914,-3.157,-3.1286,-3.0957,-3.0658,-3.0253,-2.9235,-2.8876,-2.8472,-2.7929,-2.769,-2.76,-2.7585,-2.7585,-2.7585,-2.7585,-2.7585,-2.7111,-2.6295,-2.5701,-2.5175,-2.4192,-2.3531,-2.3095,-2.3007,-2.241,-2.1857,-2.138,-2.0765,-2.0087,-1.9911,-1.9798,-1.9798,-1.9798,-1.9798,-1.9773,-1.9721,-1.9176,-1.8688,-1.7988,-1.7357,-1.6641,-1.6122,-1.5787,-1.5555,-1.5526,-1.541,-1.541,-1.542,-1.542,-1.542,-1.542,-1.543,-1.5459,-1.5527,-1.5576,-1.5723,-1.5831,-1.5625,-1.542,-1.542,-1.542,-1.5342,-1.541,-1.5723,-1.5782,-1.5478,-1.5459,-1.5586,-4.9712,-4.912,-4.9035,-4.8629,-4.7986,-4.7141,-4.6397,-4.5771,-4.4959,-4.4598,-4.4564,-4.3893,-4.3606,-4.3436,-4.2912,-4.2685,-4.2618,-4.254,-4.2439,-4.2371,-4.2168,-4.2049,-4.21,-4.1542,-4.1119,-4.0967,-4.0417,-4.0146,-4.0045,-4.0045,-3.9969,-3.9627,-3.8951,-3.8843,-3.8525,-3.8117,-3.7528,-3.6904,-3.6768,-3.6337,-3.5668,-3.5489,-3.5055,-3.4397,-3.38,-3.3125,-3.2302,-3.1809,-3.1391,-3.1361,-3.1331,-3.0987,-3.0357,-2.9744,-2.9175,-2.8517,-2.7979,-2.7585,-2.7585,-2.7585,-2.7484,-2.7484,-2.7499,-2.6823,-2.5741,-2.4483,-2.3754,-2.3352,-2.3095,-2.3095,-2.3095,-2.2932,-2.238,-2.1794,-2.1154,-2.0489,-2.0087,-1.9798,-1.9798,-1.9798,-1.9798,-1.9798,-1.9773,-1.9111,-1.8463,-1.7731,-1.7034,-1.635,-1.5856,-1.5634,-1.5547,-1.5586,-1.5752,-1.5781,-1.5801,-1.5742,-1.5693,-1.5615,-1.5547,-1.5566,-1.5703,-1.5781,-1.5586,-1.5605,-1.5488,-1.5498,-1.5547,-1.5537,-1.5459,-1.5518,-1.5703,-1.5625,-1.5449,-1.5547,-1.5742,-4.8917,-4.8968,-4.8562,-4.8193,-4.7753,-4.6667,-4.6007,-4.5602,-4.4908,-4.4598,-4.4462,-4.3758,-4.32,-4.2777,-4.2388,-4.232,-4.2219,-4.1863,-4.1694,-4.1542,-4.1348,-4.1085,-4.0959,-4.073,-4.0578,-4.0544,-4.0316,-4.013,-3.9995,-3.961,-3.9279,-3.8805,-3.8088,-3.7541,-3.7745,-3.7306,-3.6964,-3.66,-3.6228,-3.5831,-3.5572,-3.5459,-3.519,-3.4518,-3.3874,-3.3185,-3.2557,-3.1854,-3.1525,-3.1496,-3.1496,-3.1182,-3.0552,-2.9936,-2.9307,-2.8622,-2.7949,-2.763,-2.7585,-2.7585,-2.7382,-2.706,-2.6878,-2.6295,-2.4951,-2.3842,-2.3095,-2.3095,-2.3095,-2.3095,-2.302,-2.2807,-2.2243,-2.1732,-2.1355,-2.0765,-2.02,-1.9949,-1.9798,-1.9798,-1.9823,-1.9886,-1.9756,-1.8982,-1.8418,-1.7954,-1.7097,-1.6197,-1.5909,-1.5802,-1.5771,-1.584,-1.6064,-1.6239,-1.6278,-1.6278,-1.6258,-1.6151,-1.5908,-1.5947,-1.6015,-1.5995,-1.584,-1.5713,-1.5703,-1.5703,-1.5703,-1.5615,-1.5508,-1.5547,-1.5615,-1.5644,-1.5693,-1.582,-1.6016,-4.7953,-4.8392,-4.7868,-4.7547,-4.7276,-4.6143,-4.5585,-4.5348,-4.4852,-4.4598,-4.4327,-4.3555,-4.2692,-4.2066,-4.1779,-4.1559,-4.1627,-4.1153,-4.0984,-4.0713,-4.0451,-4.0231,-4.0265,-4.0163,-4.0146,-4.0113,-4.0163,-4.0113,-3.9859,-3.9368,-3.8734,-3.8035,-3.7306,-3.6813,-3.6615,-3.6446,-3.6275,-3.6228,-3.5814,-3.5554,-3.5489,-3.5489,-3.522,-3.4666,-3.3963,-3.3245,-3.2751,-3.1884,-3.1511,-3.1496,-3.1496,-3.1256,-3.0821,-3.0058,-2.9487,-2.8816,-2.8169,-2.7615,-2.7585,-2.7534,-2.7178,-2.6669,-2.5987,-2.5425,-2.4567,-2.359,-2.3095,-2.3095,-2.3095,-2.3095,-2.302,-2.2744,-2.2368,-2.187,-2.1333,-2.0752,-2.0326,-2.0225,-2.0162,-2.0201,-2.0214,-2.0163,-1.9783,-1.8895,-1.8327,-1.8051,-1.7205,-1.6262,-1.6108,-1.6207,-1.6245,-1.6384,-1.6357,-1.6541,-1.657,-1.6638,-1.6697,-1.6687,-1.6436,-1.6309,-1.6365,-1.6278,-1.6123,-1.6025,-1.5937,-1.5752,-1.5644,-1.5596,-1.5586,-1.5752,-1.5938,-1.5986,-1.6055,-1.6182,-1.63,-4.6887,-4.6938,-4.6887,-4.6498,-4.5923,-4.5754,-4.528,-4.4801,-4.4666,-4.453,-4.4175,-4.3098,-4.2049,-4.1305,-4.0773,-4.0485,-4.0333,-4.0214,-4.0299,-4.0265,-4.013,-4.0113,-4.0113,-4.0113,-4.0113,-4.0113,-4.0113,-4.0113,-3.9901,-3.9289,-3.8951,-3.8663,-3.7217,-3.6752,-3.6353,-3.6006,-3.5782,-3.5718,-3.5522,-3.5489,-3.5489,-3.5489,-3.5429,-3.5145,-3.4247,-3.3455,-3.3365,-3.2168,-3.1496,-3.1496,-3.1496,-3.1496,-3.1107,-3.0178,-2.9562,-2.9202,-2.8229,-2.769,-2.7585,-2.7534,-2.7163,-2.6363,-2.537,-2.4509,-2.4089,-2.3501,-2.3155,-2.3095,-2.3095,-2.3095,-2.3095,-2.2995,-2.2644,-2.2184,-2.1669,-2.1355,-2.0978,-2.074,-2.0691,-2.0654,-2.0629,-2.0629,-2.0661,-1.9939,-1.936,-1.9081,-1.8513,-1.7567,-1.7073,-1.7062,-1.6998,-1.6962,-1.6792,-1.6775,-1.6755,-1.6853,-1.7048,-1.7028,-1.6855,-1.6748,-1.6697,-1.6541,-1.6367,-1.6269,-1.6152,-1.5869,-1.5732,-1.5996,-1.6172,-1.6193,-1.6222,-1.6191,-1.6445,-1.6689,-1.6728,-4.6126,-4.6092,-4.5664,-4.5551,-4.5669,-4.5213,-4.4869,-4.4632,-4.4598,-4.4005,-4.32,-4.2506,-4.1653,-4.0739,-4.0333,-4.0113,-4.0113,-4.0113,-4.0113,-4.0113,-4.0113,-4.0113,-4.0113,-4.0113,-4.0113,-4.0113,-4.0113,-4.0113,-4.002,-3.9342,-3.8652,-3.8019,-3.7174,-3.643,-3.5943,-3.5686,-3.5554,-3.5489,-3.5489,-3.5489,-3.5489,-3.5489,-3.5489,-3.5385,-3.4188,-3.3574,-3.3305,-3.2153,-3.169,-3.1496,-3.1496,-3.1496,-3.1331,-3.0268,-2.9741,-2.9487,-2.8364,-2.775,-2.756,-2.7484,-2.7086,-2.5741,-2.4496,-2.3603,-2.3662,-2.3245,-2.3125,-2.3095,-2.3095,-2.3095,-2.3095,-2.307,-2.2857,-2.2435,-2.2096,-2.1832,-2.1631,-2.1368,-2.1204,-2.1207,-2.1194,-2.1194,-2.1262,-2.1256,-2.0686,-2.0151,-1.9546,-1.8928,-1.8288,-1.7894,-1.7818,-1.7514,-1.7282,-1.7324,-1.7334,-1.7369,-1.7447,-1.734,-1.7266,-1.7197,-1.7067,-1.6746,-1.656,-1.6494,-1.6465,-1.6338,-1.6387,-1.665,-1.6701,-1.6496,-1.6388,-1.6318,-1.667,-1.7126,-1.7187,-4.5382,-4.5297,-4.4835,-4.4874,-4.5263,-4.4835,-4.4598,-4.4598,-4.4598,-4.3904,-4.2625,-4.2371,-4.1627,-4.0646,-4.018,-4.0113,-4.0113,-4.0113,-4.0113,-4.0113,-4.0113,-4.0113,-4.0113,-4.0113,-4.0113,-4.0113,-4.0113,-4.0113,-4.007,-3.9516,-3.8789,-3.7978,-3.7219,-3.6554,-3.5701,-3.5489,-3.5489,-3.5489,-3.5489,-3.5489,-3.5489,-3.5489,-3.5489,-3.537,-3.4397,-3.3739,-3.3335,-3.2452,-3.1795,-3.1585,-3.1496,-3.1496,-3.1122,-3.0597,-2.9894,-2.9307,-2.8648,-2.7844,-2.7594,-2.6993,-2.6416,-2.5119,-2.3959,-2.3305,-2.3095,-2.3095,-2.3095,-2.3095,-2.3095,-2.3095,-2.3095,-2.3083,-2.3032,-2.2686,-2.2347,-2.2096,-2.2133,-2.197,-2.1832,-2.1732,-2.1732,-2.1744,-2.1879,-2.1939,-2.1665,-2.1345,-2.1307,-2.0301,-1.8924,-1.8625,-1.8623,-1.8226,-1.7715,-1.7842,-1.7969,-1.7832,-1.7715,-1.7701,-1.7637,-1.7607,-1.7461,-1.7126,-1.6931,-1.6924,-1.6904,-1.6865,-1.6785,-1.6797,-1.6728,-1.6652,-1.6741,-1.6914,-1.7139,-1.7545,-1.7588,-4.4649,-4.4632,-4.4615,-4.4632,-4.4649,-4.4615,-4.4598,-4.4598,-4.4581,-4.4045,-4.3149,-4.2557,-4.1813,-4.1001,-4.0316,-4.013,-4.0113,-4.0113,-4.0113,-4.0113,-4.0113,-4.0113,-4.0113,-4.0113,-4.0113,-4.0113,-4.0113,-4.0113,-4.0096,-3.9756,-3.8968,-3.8035,-3.7324,-3.6677,-3.5587,-3.5489,-3.5489,-3.5489,-3.5489,-3.5489,-3.5489,-3.5489,-3.5489,-3.531,-3.4592,-3.3873,-3.3395,-3.2557,-3.1899,-3.157,-3.1511,-3.1496,-3.1376,-3.0763,-3.0178,-2.9681,-2.8936,-2.8233,-2.7588,-2.627,-2.537,-2.4681,-2.3783,-2.3155,-2.3095,-2.3095,-2.3095,-2.3095,-2.3095,-2.3095,-2.3095,-2.3095,-2.3045,-2.292,-2.2581,-2.2456,-2.2493,-2.2506,-2.2372,-2.2297,-2.2297,-2.2334,-2.2468,-2.2543,-2.2425,-2.242,-2.2761,-2.177,-1.992,-1.9328,-1.9317,-1.8491,-1.793,-1.7959,-1.8008,-1.8008,-1.7969,-1.7964,-1.7969,-1.7861,-1.7852,-1.7705,-1.7539,-1.7393,-1.7324,-1.7275,-1.6989,-1.6755,-1.6934,-1.7178,-1.7529,-1.7754,-1.7867,-1.7876,-1.7852,-4.4282,-4.3859,-4.4367,-4.4282,-4.3927,-4.4395,-4.4598,-4.4598,-4.4513,-4.3876,-4.2828,-4.2354,-4.1559,-4.0679,-4.0299,-4.0113,-4.0113,-4.0113,-4.0113,-4.0113,-4.0113,-4.0113,-4.0113,-4.0113,-4.0113,-4.0113,-4.0113,-4.0113,-4.0113,-3.9705,-3.8843,-3.7876,-3.686,-3.6022,-3.5619,-3.5489,-3.5489,-3.5489,-3.5489,-3.5489,-3.5489,-3.5489,-3.5489,-3.5444,-3.4487,-3.3814,-3.3455,-3.2557,-3.1869,-3.1555,-3.1496,-3.1496,-3.1406,-3.0883,-3.0447,-2.9953,-2.9268,-2.8058,-2.7056,-2.596,-2.537,-2.4681,-2.3842,-2.3168,-2.3095,-2.3095,-2.3095,-2.3108,-2.312,-2.312,-2.3095,-2.3095,-2.307,-2.307,-2.2895,-2.2907,-2.292,-2.2895,-2.2832,-2.2832,-2.2832,-2.2782,-2.2857,-2.2844,-2.2737,-2.2659,-2.2823,-2.2051,-2.0415,-2.0008,-1.9836,-1.8693,-1.7988,-1.7998,-1.8008,-1.8008,-1.8008,-1.8008,-1.8008,-1.7969,-1.7988,-1.8008,-1.7812,-1.751,-1.7598,-1.7666,-1.7412,-1.7233,-1.7516,-1.7842,-1.7959,-1.8008,-1.7978,-1.7969,-1.7959,-4.3504,-4.3132,-4.3859,-4.3741,-4.3217,-4.3859,-4.4181,-4.4231,-4.4401,-4.3724,-4.254,-4.2269,-4.1474,-4.0468,-4.0113,-4.0113,-4.0113,-4.0113,-4.0113,-4.0113,-4.0113,-4.0113,-4.0113,-4.0113,-4.0113,-4.0113,-4.0113,-4.0113,-4.007,-3.9289,-3.8342,-3.7263,-3.6164,-3.5733,-3.5489,-3.5489,-3.5489,-3.5489,-3.5489,-3.5489,-3.5489,-3.5489,-3.5489,-3.522,-3.4562,-3.3754,-3.329,-3.2542,-3.172,-3.1585,-3.1496,-3.1496,-3.1331,-3.1137,-3.0703,-3.0268,-2.9286,-2.8075,-2.7025,-2.5893,-2.5424,-2.516,-2.3896,-2.3198,-2.3095,-2.3095,-2.3283,-2.3308,-2.3221,-2.3296,-2.3371,-2.3333,-2.312,-2.312,-2.3108,-2.3108,-2.3083,-2.3058,-2.3045,-2.3083,-2.3095,-2.3095,-2.3095,-2.3083,-2.2992,-2.2914,-2.2823,-2.1772,-2.0782,-2.0333,-1.9846,-1.8754,-1.8008,-1.8008,-1.8008,-1.8008,-1.8008,-1.8008,-1.8008,-1.8008,-1.8008,-1.7998,-1.7812,-1.7686,-1.7783,-1.7832,-1.7773,-1.7783,-1.7871,-1.793,-1.7978,-1.8008,-1.8008,-1.8008,-1.8008,-4.2303,-4.2405,-4.3054,-4.3014,-4.2557,-4.3166,-4.3358,-4.3426,-4.4181,-4.3684,-4.232,-4.2303,-4.1542,-4.0417,-4.0146,-4.0113,-4.0113,-4.0113,-4.0113,-4.0113,-4.0113,-4.0113,-4.0113,-4.0113,-4.0113,-4.0113,-4.0113,-4.007,-4.002,-3.9076,-3.7975,-3.6783,-3.5878,-3.5554,-3.5489,-3.5489,-3.5489,-3.5489,-3.5489,-3.5489,-3.5489,-3.5489,-3.54,-3.51,-3.4517,-3.3829,-3.3275,-3.2587,-3.2004,-3.1705,-3.1496,-3.1496,-3.1481,-3.1496,-3.1062,-3.0387,-2.931,-2.8478,-2.7567,-2.6495,-2.5615,-2.5316,-2.3923,-2.3334,-2.3183,-2.3296,-2.3609,-2.3622,-2.3547,-2.3753,-2.3879,-2.3496,-2.3145,-2.3145,-2.3133,-2.312,-2.3108,-2.3095,-2.3095,-2.3095,-2.3095,-2.3095,-2.3095,-2.3095,-2.3005,-2.2537,-2.2187,-2.1322,-2.043,-1.9879,-1.9299,-1.8519,-1.8008,-1.8008,-1.8008,-1.8018,-1.8008,-1.8008,-1.8008,-1.8008,-1.8008,-1.8008,-1.791,-1.7871,-1.7949,-1.7959,-1.7891,-1.79,-1.7969,-1.8008,-1.8008,-1.8008,-1.8008,-1.8008,-1.8008,-4.2303,-4.232,-4.254,-4.2794,-4.3003,-4.2743,-4.2608,-4.2709,-4.3403,-4.3149,-4.2303,-4.2286,-4.166,-4.0882,-4.0367,-4.0163,-4.0113,-4.0113,-4.0113,-4.0113,-4.0113,-4.0113,-4.0113,-4.0113,-4.0113,-4.0113,-4.0113,-4.0045,-3.9731,-3.887,-3.7322,-3.5958,-3.5636,-3.5522,-3.5489,-3.5489,-3.5489,-3.5489,-3.5489,-3.5489,-3.5489,-3.5489,-3.528,-3.4816,-3.4218,-3.3559,-3.2916,-3.2213,-3.172,-3.157,-3.1496,-3.1496,-3.1496,-3.1481,-3.1197,-3.0597,-3.0073,-2.9652,-2.8775,-2.7144,-2.6043,-2.5574,-2.4257,-2.3321,-2.3296,-2.3672,-2.4048,-2.3973,-2.3954,-2.4104,-2.4092,-2.376,-2.3521,-2.3471,-2.3358,-2.312,-2.3095,-2.3095,-2.3095,-2.3095,-2.3095,-2.2975,-2.3005,-2.3095,-2.2944,-2.2279,-2.1553,-2.0751,-2.0009,-1.9464,-1.8944,-1.8202,-1.8096,-1.8125,-1.8047,-1.8027,-1.8018,-1.8008,-1.8008,-1.8008,-1.8008,-1.8008,-1.8008,-1.8008,-1.8008,-1.8008,-1.7988,-1.8008,-1.8008,-1.8008,-1.8008,-1.8008,-1.8008,-1.8008,-1.8008,-4.145,-4.1457,-4.1745,-4.2134,-4.2354,-4.1728,-4.145,-4.1593,-4.2523,-4.2675,-4.2286,-4.1965,-4.161,-4.1119,-4.0468,-4.0113,-4.0113,-4.0113,-4.0113,-4.0113,-4.0113,-4.0113,-4.0113,-4.0113,-4.0113,-4.0113,-4.0045,-3.9901,-3.9358,-3.8117,-3.66,-3.5668,-3.5489,-3.5489,-3.5489,-3.5489,-3.5489,-3.5489,-3.5489,-3.5489,-3.5489,-3.5474,-3.507,-3.4533,-3.3874,-3.3185,-3.2542,-3.1854,-3.1555,-3.1496,-3.1496,-3.1496,-3.1496,-3.1481,-3.1182,-3.0657,-3.0432,-2.9972,-2.9139,-2.7456,-2.6755,-2.6077,-2.4862,-2.3968,-2.3672,-2.3923,-2.423,-2.4343,-2.4368,-2.4381,-2.4255,-2.4098,-2.4029,-2.3941,-2.3521,-2.3133,-2.3095,-2.3095,-2.3095,-2.3095,-2.3005,-2.2841,-2.2871,-2.3005,-2.2659,-2.171,-2.1005,-2.0462,-1.965,-1.8944,-1.8586,-1.811,-1.8154,-1.8237,-1.8149,-1.8125,-1.8144,-1.8105,-1.8008,-1.8008,-1.8008,-1.8008,-1.8008,-1.8008,-1.8008,-1.8008,-1.8008,-1.8008,-1.8008,-1.8008,-1.8008,-1.8008,-1.8008,-1.8008,-1.8008,-4.0163,-4.0333,-4.0984,-4.1305,-4.1035,-4.0553,-4.0299,-4.0248,-4.1534,-4.2134,-4.1999,-4.1508,-4.1271,-4.1068,-4.0426,-4.013,-4.0113,-4.0113,-4.0113,-4.0113,-4.0113,-4.0113,-4.0113,-4.0113,-4.0113,-4.0113,-3.9969,-3.9662,-3.8591,-3.7467,-3.643,-3.5554,-3.5489,-3.5489,-3.5489,-3.5489,-3.5489,-3.5489,-3.5489,-3.5489,-3.5489,-3.5415,-3.5175,-3.4533,-3.3844,-3.3185,-3.2527,-3.1959,-3.1496,-3.1496,-3.1496,-3.1496,-3.1496,-3.1481,-3.1092,-3.0898,-3.0733,-3.0432,-2.958,-2.8009,-2.7214,-2.6543,-2.5666,-2.4766,-2.4418,-2.4443,-2.4695,-2.4644,-2.4619,-2.4782,-2.4745,-2.4469,-2.4305,-2.423,-2.3948,-2.3597,-2.3421,-2.3308,-2.3095,-2.3158,-2.3303,-2.3126,-2.28,-2.2929,-2.2614,-2.1342,-2.0566,-2.0204,-1.9551,-1.8771,-1.8458,-1.8193,-1.8256,-1.8403,-1.8364,-1.835,-1.833,-1.8262,-1.8174,-1.8027,-1.8047,-1.8027,-1.8008,-1.8008,-1.8008,-1.8008,-1.8008,-1.8008,-1.8008,-1.8008,-1.8008,-1.8008,-1.8008,-1.8008,-1.8008,-4.0451,-4.1001,-4.1728,-4.145,-4.0476,-4.0781,-4.0603,-4.013,-4.0434,-4.0967,-4.1356,-4.1288,-4.1204,-4.1085,-4.0409,-4.0113,-4.0113,-4.0113,-4.0113,-4.0113,-4.0113,-4.0113,-4.0113,-4.0113,-4.0113,-4.0113,-3.9901,-3.9358,-3.8189,-3.7114,-3.6244,-3.5587,-3.5489,-3.5489,-3.5489,-3.5489,-3.5489,-3.5489,-3.5489,-3.5489,-3.5489,-3.5415,-3.5175,-3.4517,-3.3858,-3.323,-3.2572,-3.1914,-3.1615,-3.1496,-3.1496,-3.1496,-3.1496,-3.1496,-3.1421,-3.1271,-3.1167,-3.0936,-3.0221,-2.8806,-2.7826,-2.7058,-2.6274,-2.5504,-2.5096,-2.5159,-2.5109,-2.4946,-2.4958,-2.5159,-2.5159,-2.4845,-2.4607,-2.4512,-2.4399,-2.4086,-2.3816,-2.3484,-2.3195,-2.3358,-2.3602,-2.3362,-2.3004,-2.2645,-2.2292,-2.1665,-2.0917,-2.0324,-1.9712,-1.9055,-1.8897,-1.8646,-1.8529,-1.8588,-1.8578,-1.8701,-1.875,-1.8672,-1.8603,-1.8389,-1.8144,-1.8125,-1.8154,-1.8047,-1.8008,-1.8008,-1.8008,-1.8008,-1.8008,-1.8008,-1.8008,-1.8008,-1.8008,-1.8008,-1.8008,-4.0324,-4.0773,-4.1136,-4.0874,-4.0282,-4.057,-4.0485,-4.0146,-4.0113,-4.0333,-4.0646,-4.073,-4.0882,-4.1018,-4.0426,-4.0113,-4.0113,-4.0113,-4.0113,-4.0113,-4.0113,-4.0113,-4.0113,-4.0113,-4.0113,-4.007,-3.961,-3.8897,-3.7835,-3.701,-3.6244,-3.5604,-3.5489,-3.5489,-3.5489,-3.5489,-3.5489,-3.5489,-3.5489,-3.5489,-3.5489,-3.5429,-3.5145,-3.4517,-3.4099,-3.341,-3.2706,-3.2093,-3.1824,-3.16,-3.1496,-3.1496,-3.1496,-3.1496,-3.1496,-3.1466,-3.1422,-3.1336,-3.0587,-2.9554,-2.8284,-2.7503,-2.6432,-2.5509,-2.5385,-2.541,-2.5398,-2.531,-2.5661,-2.5921,-2.5536,-2.5209,-2.5159,-2.5109,-2.482,-2.4462,-2.423,-2.3954,-2.3898,-2.4111,-2.4141,-2.3894,-2.3533,-2.3115,-2.2585,-2.138,-2.0748,-2.0309,-1.9716,-1.9463,-1.9316,-1.9192,-1.9104,-1.8968,-1.8984,-1.9121,-1.9277,-1.918,-1.9004,-1.8896,-1.8711,-1.8422,-1.8266,-1.8203,-1.8096,-1.8008,-1.8008,-1.8008,-1.8008,-1.8008,-1.8008,-1.8008,-1.8008,-1.8018,-1.8037,-4.0113,-4.0113,-4.013,-4.0113,-4.0113,-4.0113,-4.0113,-4.0113,-4.0113,-4.0113,-4.0163,-4.0163,-4.0527,-4.0612,-4.0443,-4.0248,-4.0113,-4.0113,-4.0113,-4.0113,-4.0113,-4.0113,-4.0113,-4.0113,-4.0113,-3.9731,-3.9183,-3.8569,-3.7777,-3.6874,-3.6023,-3.5572,-3.5489,-3.5489,-3.5489,-3.5489,-3.5489,-3.5489,-3.5489,-3.5489,-3.5489,-3.5489,-3.516,-3.4816,-3.4444,-3.3814,-3.3036,-3.2452,-3.2168,-3.1765,-3.1496,-3.1496,-3.1496,-3.1496,-3.1496,-3.1496,-3.1496,-3.119,-3.0542,-2.9567,-2.8657,-2.7763,-2.649,-2.5891,-2.5812,-2.5636,-2.5624,-2.5871,-2.6235,-2.616,-2.5774,-2.5711,-2.5686,-2.5536,-2.5184,-2.4946,-2.4695,-2.4431,-2.4525,-2.4738,-2.4638,-2.4431,-2.4087,-2.3658,-2.2719,-2.1471,-2.0616,-2.0143,-1.9816,-1.9868,-1.9814,-1.9824,-1.9824,-1.9668,-1.9443,-1.957,-1.9775,-1.9502,-1.9336,-1.9336,-1.9248,-1.8916,-1.8613,-1.8334,-1.8262,-1.8174,-1.8047,-1.8008,-1.8008,-1.8057,-1.8008,-1.8008,-1.8008,-1.8027,-1.8076,-4.0113,-4.0113,-4.0113,-4.0113,-4.0113,-4.0113,-4.0113,-4.0113,-4.0113,-4.0113,-4.0113,-4.0113,-4.0231,-4.029,-4.0214,-4.0113,-4.0113,-4.0113,-4.0113,-4.0113,-4.0113,-4.0113,-4.0113,-4.0113,-4.0113,-3.961,-3.887,-3.8035,-3.7485,-3.6415,-3.5701,-3.5489,-3.5489,-3.5489,-3.5489,-3.5489,-3.5489,-3.5489,-3.5489,-3.5489,-3.5489,-3.5489,-3.5474,-3.5145,-3.4788,-3.4083,-3.3395,-3.2781,-3.2153,-3.172,-3.1496,-3.1496,-3.1496,-3.1496,-3.1496,-3.1496,-3.1496,-3.1278,-3.0631,-2.9888,-2.9139,-2.8346,-2.7269,-2.6637,-2.6367,-2.5824,-2.59,-2.6135,-2.6285,-2.6009,-2.5762,-2.6122,-2.6185,-2.5799,-2.5448,-2.5435,-2.5322,-2.5008,-2.4858,-2.5084,-2.5206,-2.5008,-2.476,-2.4179,-2.3442,-2.2252,-2.1217,-2.0727,-2.0484,-2.0424,-2.0283,-2.0351,-2.039,-2.0166,-1.9883,-2.0116,-2.0224,-1.993,-1.9744,-1.9793,-1.9686,-1.9343,-1.9014,-1.8691,-1.8461,-1.8354,-1.8262,-1.8086,-1.8135,-1.8174,-1.8057,-1.8008,-1.8027,-1.8027,-1.8076]},{"header":{"parameterUnit":"m.s-1","parameterCategory":1,"la1":31.0,"la2":29.5877,"lo1":-88.7671,"lo2":-86.6584,"dy":0.0162,"dx":0.0185,"nx":115,"ny":88,"refTime":"2023-06-24T00:00:00:Z","depth":0,"parameterNumber":3,"parameterNumberName":"V-component_of_WINDS"},"data":[0.0,0.0,0.0,0.0,0.0,0.0,0.0,0.0,0.0,0.0,0.0,0.0,0.0,0.0,0.0,0.0,0.0,0.0,0.0,0.0,0.0,0.0,0.0,0.0,0.0,0.0,0.0,0.0,0.0,0.0,0.0,0.0,0.0,0.0,0.0,0.0,0.0,0.0,0.0,0.0,0.0,0.0,0.0,0.0,0.0,0.0,0.0,0.0,0.0,0.0,0.0,0.0,0.0,0.0,0.0,0.0,0.0,0.0,0.0,0.0,0.0,0.0,0.0,0.0,0.0,0.0,0.0,0.0,0.0,0.0,0.0,0.0,0.0,0.0,0.0,0.0,0.0,0.0,0.0,0.0,0.0,0.0,0.0,0.0,0.0,0.0,0.0,0.0,0.0,0.0,0.0,0.0,0.0,0.0,0.0,0.0,0.0,0.0,0.0,0.0,0.0,0.0,0.0,0.0,0.0,0.0,0.0,0.0,0.0,0.0,0.0,0.0,0.0,0.0,0.0,0.0,0.0,0.0,0.0,0.0,0.0,0.0,0.0,0.0,0.0,0.0,0.0,0.0,0.0,0.0,0.0,0.0,0.0,0.0,0.0,0.0,0.0,0.0,0.0,0.0,0.0,0.0,0.0,0.0,0.0,0.0,0.0,0.0,0.0,0.0,0.0,0.0,0.0,0.0,0.0,0.0,0.0,0.0,0.0,0.0,0.0,0.0,0.0,0.0,0.0,0.0,0.0,0.0,0.0,0.0,0.0,0.0,0.0,0.0,0.0,0.0,0.0,0.0,0.0,0.0,0.0,0.0,0.0,0.0,0.0,0.0,0.0,0.0,0.0,0.0,0.0,0.0,0.0,0.0,0.0,0.0,0.0,0.0,0.0,0.0,0.0,0.0,0.0,0.0,0.0,0.0,0.0,0.0,0.0,0.0,0.0,0.0,0.0,0.0,0.0,0.0,0.0,0.0,0.0,0.0,0.0,0.0,0.0,0.0,0.0,0.0,0.0,0.0,0.0,0.0,0.0,0.0,0.0,0.0,0.0,0.0,0.0,0.0,0.0,0.0,0.0,0.0,0.0,0.0,0.0,0.0,0.0,0.0,0.0,0.0,0.0,0.0,0.0,0.0,0.0,0.0,0.0,0.0,0.0,0.0,0.0,0.0,0.0,0.0,0.0,0.0,0.0,0.0,0.0,0.0,0.0,0.0,0.0,0.0,0.0,0.0,0.0,0.0,0.0,0.0,0.0,0.0,0.0,0.0,0.0,0.0,0.0,0.0,0.0,0.0,0.0,0.0,0.0,0.0,0.0,0.0,0.0,0.0,0.0,0.0,0.0,0.0,0.0,0.0,0.0,0.0,0.0,0.0,0.0,0.0,0.0,0.0,0.0,0.0,0.0,0.0,0.0,0.0,0.0,0.0,0.0,0.0,0.0,0.0,0.0,0.0,0.0,0.0,0.0,0.0,0.0,0.0,0.0,0.0,0.0,0.0,0.0,0.0,0.0,0.0,0.0,0.0,0.0,0.0,0.0,0.0,0.0,0.0,0.0,0.0,0.0,0.0,0.0,0.0,0.0,0.0,0.0,0.0,0.0,0.0,0.0,0.0,0.0,0.0,0.0,0.0,0.0,0.0,0.0,0.0,0.0,0.0,0.0,0.0,0.0,0.0,0.0,0.0,0.0,0.0,0.0,0.0,0.0,0.0,0.0,0.0,0.0,0.0,0.0,0.0,0.0,0.0,0.0,0.0,0.0,0.0,0.0,0.0,0.0,0.0,0.0,0.0,0.0,0.0,0.0,0.0,0.0,0.0,0.0,0.0,0.0,0.0,0.0,0.0,0.0,0.0,0.0,0.0,0.0,0.0,0.0,0.0,0.0,0.0,0.0,0.0,0.0,0.0,0.0,0.0,0.0,0.0,0.0,0.0,0.0,0.0,0.0,0.0,0.0,0.0,0.0,0.0,0.0,0.0,0.0,0.0,0.0,0.0,0.0,0.0,0.0,0.0,0.0,0.0,0.0,0.0,0.0,0.0,0.0,0.0,0.0,0.0,0.0,0.0,0.0,0.0,0.0,0.0,0.0,0.0,0.0,0.0,0.0,0.0,0.0,0.0,0.0,0.0,0.0,0.0,0.0,0.0,0.0,0.0,0.0,0.0,0.0,0.0,0.0,0.0,0.0,0.0,0.0,0.0,0.0,0.0,0.0,0.0,0.0,0.0,0.0,0.0,0.0,0.0,0.0,0.0,0.0,0.0,0.0,0.0,0.0,0.0,0.0,0.0,0.0,0.0,0.0,0.0,0.0,0.0,0.0,0.0,0.0,0.0,0.0,0.0,0.0,0.0,0.0,0.0,0.0,0.0,0.0,0.0,0.0,0.0,0.0,0.0,0.0,0.0,0.0,0.0,0.0,0.0,0.0,0.0,0.0,0.0,0.0,0.0,0.0,0.0,0.0,0.0,0.0,0.0,0.0,0.0,0.0,0.0,0.0,0.0,0.0,0.0,0.0,0.0,0.0,0.0,0.0,0.0,0.0,0.0,0.0,0.0,0.0,0.0,0.0,0.0,0.0,0.0,0.0,0.0,0.0,0.0,0.0,0.0,0.0,0.0,0.0,0.0,0.0,0.0,0.0,0.0,0.0,0.0,0.0,0.0,0.0,0.0,0.0,0.0,0.0,0.0,0.0,0.0,0.0,0.0,0.0,0.0,0.0,0.0,0.0,0.0,0.0,0.0,0.0,0.0,0.0,0.0,0.0,0.0,0.0,0.0,0.0,0.0,0.0,0.0,0.0,0.0,0.0,0.0,0.0,0.0,0.0,0.0,0.0,0.0,0.0,0.0,0.0,0.0,0.0,0.0,0.0,0.0,0.0,0.0,0.0,0.0,0.0,0.0,0.0,0.0,0.0,0.0,0.0,0.0,0.0,0.0,0.0,0.0,0.0,0.0,0.0,0.0,0.0,0.0,0.0,0.0,0.0,0.0,0.0,0.0,0.0,0.0,0.0,0.0,0.0,0.0,0.0,0.0,0.0,0.0,0.0,0.0,0.0,0.0,0.0,0.0,0.0,0.0,0.0,0.0,0.0,0.0,0.0,0.0,0.0,0.0,0.0,0.0,0.0,0.0,0.0,0.0,0.0,0.0,0.0,0.0,0.0,0.0,0.0,0.0,0.0,0.0,0.0,0.0,0.0,0.0,0.0,0.0,0.0,0.0,0.0,0.0,0.0,0.0,0.0,0.0,0.0,0.0,0.0,0.0,0.0,0.0,0.0,0.0,0.0,0.0,0.0,0.0,0.0,0.0,0.0,0.0,0.0,0.0,0.0,0.0,0.0,0.0,0.0,0.0,0.0,0.0,0.0,0.0,0.0,0.0,0.0,0.0,0.0,0.0,0.0,0.0,0.0,0.0,0.0,0.0,0.0,0.0,0.0,0.0,0.0,0.0,0.0,0.0,0.0,0.0,0.0,0.0,0.0,0.0,0.0,0.0,0.0,0.0,0.0,0.0,0.0,0.0,0.0,0.0,0.0,0.0,0.0,0.0,0.0,0.0,0.0,0.0,0.0,0.0,0.0,0.0,0.0,0.0,0.0,0.0,0.0,0.0,0.0,0.0,0.0,0.0,0.0,0.0,0.0,0.0,0.0,0.0,0.0,0.0,0.0,0.0,0.0,0.0,0.0,0.0,0.0,0.0,0.0,0.0,0.0,0.0,0.0,0.0,0.0,0.0,0.0,0.0,0.0,0.0,0.0,0.0,0.0,0.0,0.0,0.0,0.0,0.0,0.0,0.0,0.0,0.0,0.0,0.0,0.0,0.0,0.0,0.0,0.0,0.0,0.0,0.0,0.0,0.0,0.0,0.0,0.0,0.0,0.0,0.0,0.0,0.0,0.0,0.0,0.0,0.0,0.0,0.0,0.0,0.0,0.0,0.0,0.0,0.0,0.0,0.0,0.0,0.0,0.0,0.0,0.0,0.0,0.0,0.0,0.0,0.0,0.0,0.0,0.0,0.0,0.0,0.0,0.0,0.0,0.0,0.0,0.0,0.0,0.0,0.0,0.0,0.0,0.0,0.0,0.0,0.0,0.0,0.0,0.0,0.0,0.0,0.0,0.0,0.0,0.0,0.0,0.0,0.0,0.0,0.0,0.0,0.0,0.0,0.0,0.0,0.0,0.0,0.0,0.0,0.0,0.0,0.0,0.0,0.0,0.0,0.0,0.0,0.0,0.0,0.0,0.0,0.0,0.0,0.0,0.0,0.0,0.0,0.0,0.0,0.0,0.0,0.0,-0.7445,0.0,0.0,0.0,0.0,0.0,0.0,0.0,0.0,0.0,0.0,0.0,0.0,0.0,0.0,0.0,0.0,0.0,0.0,0.0,0.0,0.0,0.0,0.0,0.0,0.0,0.0,0.0,0.0,0.0,0.0,0.0,0.0,0.0,0.0,0.0,0.0,0.0,0.0,0.0,0.0,0.0,0.0,0.0,0.0,0.0,0.0,0.0,0.0,0.0,0.0,0.0,0.0,0.0,0.0,0.0,0.0,0.0,0.0,0.0,0.0,0.0,0.0,0.0,0.0,0.0,0.0,0.0,0.0,0.0,0.0,0.0,0.0,0.0,0.0,0.0,0.0,0.0,0.0,0.0,0.0,0.0,0.0,0.0,0.0,0.0,0.0,0.0,0.0,0.0,0.0,0.0,0.0,0.0,0.0,0.0,0.0,0.0,0.0,0.0,0.0,0.0,0.0,0.0,0.0,0.0,0.0,0.0,0.0,0.0,0.0,-0.8883,-0.8849,-0.7259,-0.6953,-0.8146,0.0,0.0,0.0,0.0,0.0,0.0,0.0,0.0,0.0,0.0,0.0,0.0,0.0,0.0,0.0,0.0,0.0,0.0,0.0,0.0,0.0,0.0,0.0,0.0,0.0,0.0,0.0,0.0,0.0,0.0,0.0,0.0,0.0,0.0,0.0,0.0,0.0,0.0,0.0,0.0,0.0,0.0,0.0,0.0,0.0,0.0,0.0,0.0,0.0,0.0,0.0,0.0,0.0,0.0,0.0,0.0,0.0,0.0,0.0,0.0,0.0,0.0,0.0,0.0,0.0,0.0,0.0,0.0,0.0,0.0,0.0,0.0,0.0,0.0,0.0,0.0,0.0,0.0,0.0,0.0,0.0,0.0,0.0,0.0,0.0,0.0,0.0,0.0,0.0,0.0,0.0,0.0,0.0,0.0,0.0,0.0,0.0,0.0,0.0,0.0,0.0,0.0,0.0,0.0,0.0,0.0,0.0,0.0,0.0,0.0,0.0,0.0,-0.7487,-0.7363,-0.8911,0.0,0.0,0.0,0.0,0.0,0.0,0.0,0.0,0.0,0.0,0.0,0.0,0.0,0.0,0.0,0.0,0.0,0.0,0.0,0.0,0.0,0.0,0.0,0.0,0.0,0.0,0.0,0.0,0.0,0.0,0.0,0.0,0.0,0.0,0.0,0.0,0.0,0.0,0.0,0.0,0.0,0.0,0.0,0.0,0.0,0.0,0.0,0.0,0.0,0.0,0.0,0.0,0.0,0.0,0.0,0.0,0.0,0.0,0.0,0.0,0.0,0.0,0.0,0.0,0.0,0.0,0.0,0.0,0.0,0.0,0.0,0.0,0.0,0.0,0.0,0.0,0.0,0.0,0.0,0.0,0.0,0.0,0.0,0.0,0.0,0.0,0.0,0.0,0.0,0.0,0.0,0.0,0.0,0.0,0.0,0.0,0.0,0.0,0.0,0.0,0.0,0.0,0.0,0.0,0.0,0.0,0.0,0.0,0.0,0.0,-1.0161,-1.0666,-0.9802,0.0,-1.0094,0.0,0.0,0.0,0.0,0.0,0.0,0.0,0.0,0.0,0.0,0.0,0.0,0.0,0.0,0.0,0.0,0.0,0.0,0.0,0.0,0.0,0.0,0.0,0.0,0.0,0.0,0.0,0.0,0.0,0.0,0.0,0.0,0.0,0.0,0.0,0.0,0.0,0.0,0.0,0.0,0.0,0.0,0.0,0.0,0.0,0.0,0.0,0.0,0.0,0.0,0.0,0.0,0.0,0.0,0.0,0.0,0.0,0.0,0.0,0.0,0.0,0.0,0.0,0.0,0.0,0.0,0.0,0.0,0.0,0.0,0.0,0.0,0.0,0.0,0.0,0.0,0.0,0.0,0.0,0.0,0.0,0.0,0.0,0.0,0.0,0.0,0.0,0.0,0.0,0.0,0.0,0.0,0.0,0.0,0.0,0.0,0.0,0.0,0.0,0.0,0.0,0.0,0.0,0.0,0.0,0.0,0.0,0.0,0.0,0.0,-1.006,-1.0703,-1.0639,-1.0494,0.0,0.0,0.0,0.0,0.0,0.0,0.0,0.0,0.0,0.0,0.0,0.0,0.0,0.0,0.0,0.0,0.0,0.0,0.0,0.0,0.0,0.0,0.0,0.0,0.0,0.0,0.0,0.0,0.0,0.0,0.0,0.0,0.0,0.0,0.0,0.0,0.0,0.0,0.0,0.0,0.0,0.0,0.0,0.0,0.0,0.0,0.0,0.0,0.0,0.0,0.0,0.0,0.0,0.0,0.0,0.0,0.0,0.0,0.0,0.0,0.0,0.0,0.0,0.0,0.0,0.0,0.0,0.0,0.0,0.0,0.0,0.0,0.0,0.0,0.0,0.0,0.0,0.0,0.0,0.0,0.0,0.0,0.0,0.0,0.0,0.0,0.0,0.0,0.0,0.0,0.0,0.0,0.0,0.0,0.0,0.0,0.0,0.0,0.0,0.0,0.0,0.0,0.0,0.0,0.0,0.0,0.0,0.0,0.0,0.0,-0.9518,-1.0059,-1.0643,-1.0828,-1.0689,-1.028,0.0,0.0,0.0,0.0,0.0,0.0,0.0,0.0,0.0,0.0,0.0,0.0,0.0,0.0,0.0,0.0,0.0,0.0,0.0,0.0,0.0,0.0,0.0,0.0,0.0,0.0,0.0,0.0,0.0,0.0,0.0,0.0,0.0,0.0,0.0,0.0,0.0,0.0,0.0,0.0,0.0,0.0,0.0,0.0,0.0,0.0,0.0,0.0,0.0,0.0,0.0,0.0,0.0,0.0,0.0,0.0,0.0,0.0,0.0,0.0,0.0,0.0,0.0,0.0,0.0,0.0,0.0,0.0,0.0,0.0,0.0,0.0,0.0,0.0,0.0,0.0,0.0,0.0,0.0,0.0,0.0,0.0,0.0,0.0,0.0,0.0,0.0,0.0,0.0,0.0,0.0,0.0,0.0,0.0,0.0,0.0,0.0,0.0,0.0,0.0,0.0,0.0,0.0,0.0,0.0,0.0,0.0,0.0,-1.0659,-1.0358,-1.0397,-1.0857,-1.0409,-1.0239,0.0,0.0,0.0,0.0,0.0,0.0,0.0,0.0,0.0,0.0,0.0,0.0,0.0,0.0,0.0,0.0,0.0,0.0,0.0,0.0,0.0,0.0,0.0,0.0,0.0,0.0,0.0,0.0,0.0,0.0,0.0,0.0,0.0,0.0,0.0,0.0,0.0,0.0,0.0,0.0,0.0,0.0,0.0,0.0,0.0,0.0,0.0,0.0,0.0,0.0,0.0,0.0,0.0,0.0,0.0,0.0,0.0,0.0,0.0,0.0,0.0,0.0,0.0,0.0,0.0,0.0,0.0,0.0,0.0,0.0,0.0,0.0,0.0,0.0,0.0,0.0,0.0,0.0,0.0,0.0,0.0,0.0,0.0,0.0,0.0,0.0,0.0,0.0,0.0,0.0,0.0,0.0,0.0,0.0,0.0,0.0,0.0,0.0,0.0,0.0,0.0,0.0,0.0,0.0,0.0,0.0,0.0,0.0,0.0,-0.9551,-1.0188,-1.0739,-1.1192,-1.0988,-1.1071,0.0,0.0,0.0,0.0,0.0,0.0,0.0,0.0,0.0,0.0,0.0,0.0,0.0,0.0,0.0,0.0,0.0,0.0,0.0,0.0,0.0,0.0,0.0,0.0,0.0,0.0,0.0,0.0,0.0,0.0,0.0,0.0,0.0,0.0,0.0,0.0,0.0,0.0,0.0,0.0,0.0,0.0,0.0,0.0,0.0,0.0,0.0,0.0,0.0,0.0,0.0,0.0,0.0,0.0,0.0,0.0,0.0,0.0,0.0,0.0,0.0,0.0,0.0,0.0,0.0,0.0,0.0,0.0,0.0,0.0,0.0,0.0,0.0,0.0,0.0,0.0,0.0,0.0,0.0,0.0,0.0,0.0,0.0,0.0,0.0,0.0,0.0,0.0,0.0,0.0,0.0,0.0,0.0,0.0,0.0,0.0,0.0,0.0,0.0,0.0,0.0,0.0,0.0,0.0,0.0,0.0,0.0,0.0,0.0,-0.9286,0.0,-1.1022,-1.1186,-1.1167,-1.1342,0.0,0.0,0.0,0.0,0.0,0.0,0.0,0.0,0.0,0.0,0.0,0.0,0.0,0.0,0.0,0.0,0.0,0.0,0.0,0.0,0.0,0.0,0.0,0.0,0.0,0.0,0.0,0.0,0.0,0.0,0.0,0.0,0.0,0.0,0.0,0.0,0.0,0.0,0.0,0.0,0.0,0.0,0.0,0.0,0.0,0.0,0.0,0.0,0.0,0.0,0.0,0.0,0.0,0.0,0.0,0.0,0.0,0.0,0.0,0.0,0.0,0.0,0.0,0.0,0.0,0.0,0.0,0.0,0.0,0.0,0.0,0.0,0.0,0.0,0.0,0.0,0.0,0.0,0.0,0.0,0.0,0.0,0.0,0.0,0.0,0.0,0.0,0.0,0.0,0.0,0.0,0.0,0.0,0.0,0.0,0.0,0.0,0.0,0.0,0.0,0.0,0.0,0.0,0.0,0.0,0.0,0.0,0.0,-0.9305,-1.027,-1.0974,-1.1205,-1.0853,-1.0906,-1.0932,0.0,0.0,0.0,0.0,0.0,0.0,0.0,0.0,0.0,0.0,0.0,0.0,0.0,0.0,0.0,0.0,0.0,0.0,0.0,0.0,0.0,0.0,0.0,0.0,0.0,0.0,0.0,0.0,0.0,0.0,0.0,0.0,0.0,0.0,0.0,0.0,0.0,0.0,0.0,0.0,0.0,0.0,0.0,0.0,0.0,0.0,0.0,0.0,0.0,0.0,0.0,0.0,0.0,0.0,0.0,0.0,0.0,0.0,0.0,0.0,0.0,0.0,0.0,0.0,0.0,0.0,0.0,0.0,0.0,0.0,0.0,0.0,0.0,0.0,0.0,0.0,0.0,0.0,0.0,0.0,0.0,0.0,0.0,0.0,0.0,0.0,0.0,0.0,0.0,0.0,0.0,0.0,0.0,0.0,0.0,0.0,0.0,0.0,0.0,0.0,0.0,0.0,0.0,0.0,0.0,0.0,0.0,0.0,0.0,-1.0705,-1.0666,-1.1293,-1.2517,-1.126,-1.1183,0.0,0.0,0.0,0.0,0.0,0.0,0.0,0.0,0.0,0.0,0.0,0.0,0.0,0.0,0.0,0.0,0.0,0.0,0.0,0.0,0.0,0.0,0.0,0.0,0.0,0.0,0.0,0.0,0.0,0.0,0.0,0.0,0.0,0.0,0.0,0.0,0.0,0.0,0.0,0.0,0.0,0.0,0.0,0.0,0.0,0.0,0.0,0.0,0.0,0.0,0.0,0.0,0.0,0.0,0.0,0.0,0.0,0.0,0.0,0.0,0.0,0.0,0.0,0.0,0.0,0.0,0.0,0.0,0.0,0.0,0.0,0.0,0.0,0.0,0.0,0.0,0.0,0.0,0.0,0.0,0.0,0.0,0.0,0.0,0.0,0.0,0.0,0.0,0.0,0.0,0.0,0.0,0.0,0.0,0.0,0.0,0.0,0.0,0.0,0.0,0.0,0.0,0.0,0.0,0.0,0.0,0.0,0.0,0.0,-1.1507,-1.1185,-1.1572,-1.2764,-1.1621,-1.1484,-1.2447,0.0,0.0,0.0,0.0,0.0,0.0,0.0,0.0,0.0,0.0,0.0,0.0,0.0,0.0,0.0,0.0,0.0,0.0,0.0,0.0,0.0,0.0,0.0,0.0,0.0,0.0,0.0,0.0,0.0,0.0,0.0,0.0,0.0,0.0,0.0,0.0,0.0,0.0,0.0,0.0,0.0,0.0,0.0,0.0,0.0,0.0,0.0,0.0,0.0,0.0,0.0,0.0,0.0,0.0,0.0,0.0,0.0,0.0,0.0,0.0,0.0,0.0,0.0,0.0,0.0,0.0,0.0,0.0,0.0,0.0,0.0,0.0,0.0,0.0,0.0,0.0,0.0,0.0,0.0,0.0,0.0,0.0,0.0,0.0,0.0,0.0,0.0,0.0,0.0,0.0,0.0,0.0,0.0,0.0,0.0,0.0,0.0,0.0,0.0,0.0,0.0,0.0,0.0,0.0,0.0,0.0,0.0,0.0,-1.2587,-1.245,-1.2227,-1.1878,-1.208,-1.1823,0.0,0.0,0.0,0.0,0.0,0.0,0.0,0.0,0.0,0.0,0.0,0.0,0.0,0.0,0.0,0.0,0.0,0.0,0.0,0.0,0.0,0.0,0.0,0.0,0.0,0.0,0.0,0.0,0.0,0.0,0.0,0.0,0.0,0.0,0.0,0.0,0.0,0.0,0.0,0.0,0.0,0.0,0.0,0.0,0.0,0.0,0.0,0.0,0.0,0.0,0.0,0.0,0.0,0.0,0.0,0.0,0.0,0.0,0.0,0.0,0.0,0.0,0.0,0.0,0.0,0.0,0.0,0.0,0.0,0.0,0.0,0.0,0.0,0.0,0.0,0.0,0.0,0.0,0.0,0.0,0.0,0.0,0.0,0.0,0.0,0.0,0.0,0.0,0.0,0.0,0.0,0.0,0.0,0.0,0.0,0.0,0.0,0.0,0.0,0.0,0.0,0.0,0.0,0.0,0.0,0.0,0.0,0.0,0.0,-1.2589,-1.3854,-1.4504,-1.4375,-1.2998,-1.2252,0.0,0.0,0.0,0.0,0.0,0.0,0.0,0.0,0.0,0.0,0.0,0.0,0.0,0.0,0.0,0.0,0.0,0.0,0.0,0.0,0.0,0.0,0.0,0.0,0.0,0.0,0.0,0.0,0.0,0.0,0.0,0.0,0.0,0.0,0.0,0.0,0.0,0.0,0.0,0.0,0.0,0.0,0.0,0.0,0.0,0.0,0.0,0.0,0.0,0.0,0.0,0.0,0.0,0.0,0.0,0.0,0.0,0.0,0.0,0.0,0.0,0.0,0.0,0.0,0.0,0.0,0.0,0.0,0.0,0.0,0.0,0.0,0.0,0.0,0.0,0.0,0.0,0.0,0.0,0.0,0.0,0.0,0.0,0.0,0.0,0.0,0.0,0.0,0.0,0.0,0.0,0.0,0.0,0.0,0.0,0.0,0.0,0.0,0.0,0.0,0.0,0.0,0.0,0.0,0.0,0.0,0.0,0.0,-1.3742,-1.3277,-1.5555,-1.6407,-1.5723,-1.4488,-1.3372,0.0,0.0,0.0,0.0,0.0,0.0,0.0,0.0,0.0,0.0,0.0,0.0,0.0,0.0,0.0,0.0,0.0,0.0,0.0,0.0,0.0,0.0,0.0,0.0,0.0,0.0,0.0,0.0,0.0,0.0,0.0,0.0,0.0,0.0,0.0,0.0,0.0,0.0,0.0,0.0,0.0,0.0,0.0,0.0,0.0,0.0,0.0,0.0,0.0,0.0,0.0,0.0,0.0,0.0,0.0,0.0,0.0,0.0,0.0,0.0,0.0,0.0,0.0,0.0,0.0,0.0,0.0,0.0,0.0,0.0,0.0,0.0,0.0,0.0,0.0,0.0,0.0,0.0,0.0,0.0,0.0,0.0,0.0,0.0,0.0,0.0,0.0,0.0,0.0,0.0,0.0,0.0,0.0,0.0,0.0,0.0,0.0,0.0,0.0,0.0,0.0,0.0,0.0,0.0,0.0,0.0,0.0,0.0,-1.5191,-1.4472,-1.7115,-1.7799,-1.6313,-1.5939,-1.4586,0.0,0.0,0.0,0.0,0.0,0.0,0.0,0.0,0.0,0.0,0.0,0.0,0.0,0.0,0.0,0.0,0.0,0.0,0.0,0.0,0.0,0.0,0.0,0.0,0.0,0.0,0.0,0.0,0.0,0.0,0.0,0.0,0.0,0.0,0.0,0.0,0.0,0.0,0.0,0.0,0.0,0.0,0.0,0.0,0.0,0.0,0.0,0.0,0.0,0.0,0.0,0.0,0.0,0.0,0.0,0.0,0.0,0.0,0.0,0.0,0.0,0.0,0.0,0.0,0.0,0.0,0.0,0.0,0.0,0.0,0.0,0.0,0.0,0.0,0.0,0.0,0.0,0.0,0.0,0.0,0.0,0.0,0.0,0.0,0.0,0.0,0.0,0.0,0.0,0.0,0.0,0.0,0.0,0.0,0.0,0.0,0.0,0.0,0.0,0.0,0.0,0.0,0.0,0.0,0.0,0.0,0.0,0.0,-1.4811,-1.5258,-1.7124,-1.7816,-1.7142,-1.5409,-1.3759,0.0,0.0,0.0,0.0,0.0,0.0,0.0,0.0,0.0,0.0,0.0,0.0,0.0,0.0,0.0,0.0,0.0,0.0,0.0,0.0,0.0,0.0,0.0,0.0,0.0,0.0,0.0,0.0,0.0,0.0,0.0,0.0,0.0,0.0,0.0,0.0,0.0,0.0,0.0,0.0,0.0,0.0,0.0,0.0,0.0,0.0,0.0,0.0,-1.1359,0.0,0.0,0.0,0.0,0.0,0.0,0.0,0.0,0.0,0.0,0.0,0.0,0.0,0.0,0.0,0.0,0.0,0.0,0.0,0.0,0.0,0.0,0.0,0.0,0.0,0.0,0.0,0.0,0.0,0.0,0.0,0.0,0.0,0.0,0.0,0.0,0.0,0.0,0.0,0.0,0.0,0.0,0.0,0.0,0.0,0.0,0.0,0.0,0.0,0.0,0.0,0.0,0.0,0.0,0.0,0.0,0.0,0.0,0.0,-1.5919,-1.6803,-1.8116,-1.8441,-1.765,-1.5593,-1.4005,0.0,0.0,0.0,0.0,0.0,0.0,0.0,0.0,0.0,0.0,0.0,0.0,0.0,0.0,0.0,0.0,0.0,0.0,0.0,0.0,0.0,0.0,0.0,0.0,0.0,0.0,0.0,0.0,0.0,0.0,0.0,0.0,0.0,0.0,0.0,0.0,0.0,0.0,0.0,0.0,0.0,0.0,0.0,0.0,0.0,0.0,0.0,0.0,0.0,0.0,0.0,0.0,0.0,0.0,0.0,0.0,0.0,0.0,0.0,0.0,0.0,0.0,0.0,0.0,0.0,0.0,0.0,0.0,0.0,0.0,0.0,0.0,0.0,0.0,0.0,0.0,0.0,0.0,0.0,0.0,0.0,0.0,0.0,0.0,0.0,0.0,0.0,0.0,0.0,0.0,0.0,0.0,0.0,0.0,0.0,0.0,0.0,0.0,0.0,0.0,0.0,0.0,0.0,0.0,0.0,0.0,0.0,-1.5756,-1.7085,-1.8266,-1.9015,-1.8882,-1.7801,-1.5767,-1.4495,-1.4124,0.0,0.0,0.0,0.0,0.0,0.0,0.0,0.0,0.0,0.0,0.0,0.0,0.0,0.0,0.0,0.0,0.0,0.0,0.0,0.0,0.0,0.0,0.0,0.0,0.0,0.0,0.0,0.0,0.0,0.0,0.0,0.0,0.0,0.0,0.0,0.0,0.0,0.0,-1.2993,-1.3192,0.0,0.0,0.0,0.0,0.0,0.0,0.0,0.0,-1.2961,0.0,0.0,0.0,0.0,0.0,0.0,0.0,0.0,0.0,0.0,0.0,0.0,0.0,0.0,0.0,0.0,0.0,0.0,0.0,0.0,0.0,0.0,0.0,0.0,0.0,0.0,0.0,0.0,0.0,0.0,0.0,0.0,0.0,0.0,0.0,0.0,0.0,0.0,0.0,0.0,0.0,0.0,0.0,0.0,0.0,0.0,0.0,0.0,0.0,0.0,0.0,0.0,0.0,0.0,0.0,0.0,-1.5868,-1.539,-1.6162,-1.8233,-1.8186,-1.773,-1.69,-1.5164,-1.4189,-1.4037,0.0,0.0,0.0,0.0,0.0,0.0,0.0,0.0,0.0,0.0,0.0,0.0,0.0,0.0,0.0,0.0,0.0,0.0,0.0,0.0,0.0,0.0,0.0,0.0,0.0,0.0,0.0,0.0,0.0,0.0,0.0,0.0,0.0,0.0,0.0,0.0,0.0,0.0,0.0,-1.2609,-1.2875,0.0,0.0,0.0,0.0,0.0,0.0,0.0,0.0,-1.4009,0.0,0.0,0.0,0.0,0.0,0.0,0.0,0.0,0.0,0.0,0.0,0.0,0.0,0.0,0.0,0.0,0.0,0.0,0.0,0.0,0.0,0.0,0.0,0.0,0.0,0.0,0.0,0.0,0.0,0.0,0.0,0.0,0.0,0.0,0.0,0.0,0.0,0.0,0.0,0.0,0.0,0.0,0.0,0.0,0.0,0.0,0.0,0.0,0.0,0.0,0.0,0.0,0.0,0.0,0.0,-1.6142,-1.6089,-1.7145,-1.94,-1.8579,-1.7916,-1.7596,-1.5212,-1.3875,0.0,0.0,0.0,0.0,0.0,0.0,0.0,0.0,0.0,0.0,0.0,0.0,0.0,0.0,0.0,0.0,0.0,0.0,0.0,0.0,0.0,0.0,0.0,0.0,0.0,0.0,0.0,0.0,0.0,0.0,0.0,0.0,0.0,0.0,0.0,0.0,0.0,0.0,0.0,0.0,-1.2441,-1.252,-1.152,0.0,0.0,0.0,0.0,0.0,0.0,-1.3448,-1.4423,0.0,0.0,0.0,0.0,0.0,0.0,0.0,0.0,0.0,0.0,0.0,0.0,0.0,0.0,0.0,0.0,0.0,0.0,0.0,0.0,0.0,0.0,0.0,0.0,0.0,0.0,0.0,0.0,0.0,0.0,0.0,0.0,0.0,0.0,0.0,0.0,0.0,0.0,0.0,0.0,0.0,0.0,0.0,0.0,0.0,0.0,0.0,0.0,0.0,0.0,0.0,0.0,0.0,0.0,0.0,-1.6129,-1.6668,-1.7966,-1.9963,-1.8783,-1.8036,-1.7946,-1.5143,-1.3547,0.0,0.0,0.0,0.0,0.0,0.0,0.0,0.0,0.0,0.0,0.0,0.0,0.0,0.0,0.0,0.0,0.0,0.0,0.0,0.0,0.0,0.0,0.0,0.0,0.0,0.0,0.0,0.0,0.0,0.0,0.0,0.0,0.0,0.0,0.0,0.0,0.0,0.0,0.0,0.0,0.0,-1.2445,-1.1371,-1.201,0.0,0.0,0.0,0.0,-1.3065,-1.4364,0.0,0.0,0.0,0.0,0.0,0.0,0.0,0.0,0.0,0.0,0.0,0.0,0.0,0.0,0.0,0.0,0.0,0.0,0.0,0.0,0.0,0.0,0.0,0.0,0.0,0.0,0.0,0.0,0.0,0.0,0.0,0.0,0.0,0.0,0.0,0.0,0.0,0.0,0.0,0.0,0.0,0.0,0.0,0.0,0.0,0.0,0.0,0.0,0.0,0.0,0.0,0.0,0.0,0.0,0.0,0.0,-1.5727,-1.6175,-1.6993,-1.8141,-1.7568,-1.6923,-1.6196,-1.4392,-1.3257,0.0,0.0,0.0,0.0,0.0,0.0,0.0,0.0,0.0,0.0,0.0,0.0,0.0,0.0,0.0,0.0,0.0,0.0,0.0,0.0,0.0,0.0,0.0,0.0,0.0,0.0,0.0,0.0,0.0,0.0,0.0,0.0,0.0,0.0,0.0,0.0,0.0,0.0,0.0,0.0,0.0,-1.2947,-1.2614,-1.2205,-1.1996,0.0,0.0,-1.417,-1.3675,-1.5855,0.0,0.0,0.0,0.0,0.0,0.0,0.0,0.0,0.0,0.0,0.0,0.0,0.0,0.0,0.0,0.0,0.0,0.0,0.0,0.0,0.0,0.0,0.0,0.0,0.0,0.0,0.0,0.0,0.0,0.0,0.0,0.0,0.0,0.0,0.0,0.0,0.0,0.0,0.0,0.0,0.0,0.0,0.0,0.0,0.0,0.0,0.0,0.0,0.0,0.0,0.0,0.0,0.0,0.0,0.0,-1.4856,-1.5693,-1.6507,-1.7283,-1.8032,-1.7435,-1.6769,-1.6055,-1.4197,-1.3193,0.0,0.0,0.0,0.0,0.0,0.0,0.0,0.0,0.0,0.0,0.0,0.0,0.0,0.0,0.0,0.0,0.0,0.0,0.0,0.0,0.0,0.0,0.0,0.0,0.0,0.0,0.0,0.0,0.0,0.0,0.0,0.0,0.0,0.0,0.0,0.0,0.0,0.0,0.0,0.0,0.0,0.0,-1.2929,-1.305,0.0,0.0,0.0,-1.5323,-1.5505,0.0,0.0,0.0,0.0,0.0,0.0,0.0,0.0,0.0,0.0,0.0,0.0,0.0,0.0,0.0,0.0,0.0,0.0,0.0,0.0,0.0,0.0,0.0,0.0,0.0,0.0,0.0,0.0,0.0,0.0,0.0,0.0,0.0,0.0,0.0,0.0,0.0,0.0,0.0,0.0,0.0,0.0,0.0,0.0,0.0,0.0,0.0,0.0,0.0,0.0,0.0,0.0,0.0,0.0,0.0,0.0,0.0,-1.5525,-1.6597,-1.7438,-1.7965,-1.7312,-1.6668,-1.6013,-1.4161,0.0,0.0,0.0,0.0,0.0,0.0,0.0,0.0,0.0,0.0,0.0,0.0,0.0,0.0,0.0,0.0,0.0,0.0,0.0,0.0,0.0,0.0,0.0,0.0,0.0,0.0,0.0,-1.5453,0.0,0.0,0.0,0.0,0.0,0.0,0.0,0.0,0.0,0.0,0.0,0.0,0.0,0.0,-1.5097,-1.374,-1.4268,-1.4834,0.0,0.0,-1.6685,-1.7044,-1.7608,-1.772,0.0,0.0,0.0,0.0,0.0,0.0,0.0,0.0,0.0,0.0,0.0,0.0,0.0,0.0,0.0,0.0,0.0,0.0,0.0,0.0,0.0,0.0,0.0,0.0,0.0,0.0,0.0,0.0,0.0,0.0,0.0,0.0,0.0,0.0,0.0,0.0,0.0,0.0,0.0,0.0,0.0,0.0,0.0,0.0,0.0,0.0,0.0,0.0,0.0,0.0,0.0,0.0,0.0,0.0,0.0,-1.5016,-1.6019,-1.6861,-1.74,-1.6867,-1.6215,-1.5569,-1.4308,-1.3425,0.0,0.0,0.0,0.0,0.0,0.0,0.0,0.0,0.0,0.0,0.0,0.0,0.0,0.0,0.0,0.0,0.0,0.0,0.0,0.0,0.0,0.0,0.0,0.0,0.0,0.0,0.0,0.0,0.0,0.0,0.0,0.0,0.0,0.0,0.0,0.0,0.0,0.0,0.0,0.0,0.0,-1.6634,-1.5737,-1.5927,-1.6267,0.0,0.0,-1.8194,-1.7822,-1.9521,-2.0071,-1.7662,0.0,0.0,0.0,0.0,0.0,0.0,0.0,0.0,0.0,0.0,0.0,0.0,0.0,0.0,0.0,0.0,0.0,0.0,0.0,0.0,0.0,0.0,0.0,0.0,0.0,0.0,0.0,0.0,0.0,0.0,0.0,0.0,0.0,0.0,0.0,0.0,0.0,0.0,0.0,0.0,0.0,0.0,0.0,0.0,0.0,0.0,0.0,0.0,0.0,0.0,0.0,0.0,0.0,-1.5802,-1.5412,-1.612,-1.66,-1.6823,-1.66,-1.6205,-1.5567,-1.4984,-1.4406,0.0,0.0,0.0,0.0,0.0,0.0,0.0,0.0,0.0,0.0,0.0,0.0,0.0,0.0,0.0,0.0,0.0,0.0,0.0,0.0,0.0,0.0,0.0,0.0,0.0,0.0,0.0,0.0,-1.5876,-1.5814,-1.6563,0.0,0.0,0.0,0.0,0.0,0.0,0.0,0.0,0.0,0.0,-1.7484,-1.7738,-1.7841,0.0,0.0,-1.9428,-1.9916,-1.921,-1.9828,-1.9735,-1.7797,-1.8021,0.0,0.0,0.0,0.0,0.0,0.0,0.0,0.0,0.0,0.0,0.0,0.0,0.0,0.0,0.0,0.0,0.0,0.0,0.0,0.0,0.0,0.0,0.0,0.0,0.0,0.0,0.0,0.0,0.0,0.0,0.0,0.0,0.0,0.0,0.0,0.0,0.0,0.0,0.0,0.0,0.0,0.0,0.0,0.0,0.0,0.0,0.0,0.0,0.0,0.0,0.0,0.0,-1.6184,-1.5795,-1.6254,-1.6513,-1.6513,-1.6513,-1.6216,-1.5608,-1.5335,-1.4914,0.0,0.0,0.0,0.0,0.0,0.0,0.0,0.0,0.0,0.0,0.0,0.0,0.0,0.0,0.0,0.0,0.0,0.0,0.0,0.0,0.0,0.0,0.0,0.0,0.0,0.0,0.0,0.0,-1.5755,-1.5527,-1.5967,0.0,0.0,0.0,0.0,0.0,0.0,0.0,0.0,0.0,0.0,-1.8491,-1.8919,-1.9084,-1.9315,-1.9659,-2.0199,-2.0425,-1.9909,-1.9671,-1.9177,-1.8145,0.0,0.0,0.0,0.0,0.0,0.0,0.0,0.0,0.0,0.0,0.0,0.0,0.0,0.0,0.0,0.0,0.0,0.0,0.0,0.0,0.0,0.0,0.0,0.0,0.0,0.0,0.0,0.0,0.0,0.0,-1.6311,0.0,0.0,0.0,0.0,0.0,0.0,0.0,0.0,0.0,0.0,0.0,0.0,0.0,0.0,0.0,0.0,0.0,0.0,0.0,0.0,0.0,0.0,-1.6775,-1.603,-1.633,-1.6513,-1.6513,-1.6513,-1.6216,-1.5642,-1.5229,-1.4796,-1.434,0.0,0.0,0.0,0.0,0.0,0.0,0.0,0.0,0.0,0.0,0.0,0.0,0.0,0.0,0.0,0.0,0.0,0.0,0.0,0.0,0.0,0.0,0.0,0.0,0.0,0.0,-1.7639,-1.704,-1.6458,0.0,0.0,0.0,0.0,0.0,0.0,0.0,0.0,0.0,0.0,-1.9097,-1.9692,-1.9034,-1.9457,-1.9918,-2.0162,-1.9666,-1.938,-1.9678,-1.9165,-1.8761,0.0,0.0,0.0,0.0,0.0,0.0,0.0,0.0,0.0,0.0,0.0,0.0,0.0,0.0,0.0,0.0,0.0,0.0,0.0,0.0,0.0,0.0,0.0,0.0,0.0,0.0,0.0,-1.8225,-1.7962,0.0,0.0,0.0,0.0,0.0,0.0,0.0,0.0,0.0,0.0,0.0,-1.5856,-1.6124,0.0,0.0,0.0,0.0,0.0,0.0,0.0,0.0,0.0,0.0,0.0,0.0,-1.7003,-1.6614,-1.654,-1.6513,-1.6513,-1.6513,-1.6402,-1.6182,-1.6065,-1.5657,-1.4914,0.0,0.0,0.0,0.0,0.0,0.0,0.0,0.0,0.0,0.0,0.0,0.0,0.0,0.0,0.0,0.0,0.0,0.0,0.0,0.0,0.0,0.0,0.0,0.0,0.0,-1.7302,0.0,0.0,0.0,0.0,0.0,0.0,0.0,0.0,0.0,0.0,0.0,-1.873,-1.9225,-1.9055,-1.9042,-1.9555,-1.9586,-1.9888,0.0,0.0,0.0,0.0,0.0,0.0,0.0,0.0,0.0,0.0,0.0,0.0,0.0,0.0,-2.0488,-2.0712,-2.0573,-2.0599,-2.1081,0.0,0.0,0.0,0.0,0.0,0.0,0.0,0.0,0.0,0.0,0.0,0.0,0.0,0.0,0.0,0.0,-1.8235,0.0,0.0,0.0,0.0,0.0,0.0,0.0,0.0,-1.6852,-1.708,-1.6758,-1.6826,-1.7149,0.0,-1.7629,-1.7242,0.0,0.0,0.0,0.0,0.0,0.0,0.0,0.0,-1.7045,-1.671,-1.6549,-1.6513,-1.6513,-1.6513,-1.6513,-1.6522,-1.6312,-1.5965,-1.5397,-1.4235,-1.3804,0.0,0.0,0.0,0.0,0.0,0.0,0.0,0.0,0.0,0.0,0.0,0.0,0.0,0.0,0.0,0.0,0.0,0.0,0.0,0.0,0.0,0.0,0.0,-1.6924,0.0,0.0,0.0,0.0,0.0,0.0,0.0,0.0,0.0,-1.851,-1.8814,-1.9211,-1.9909,-1.9608,-1.9397,-1.9588,0.0,0.0,0.0,0.0,0.0,0.0,0.0,-1.8658,-1.8447,-1.8879,-1.9504,-2.0318,-2.064,-2.0978,-2.1512,0.0,0.0,-2.1185,-2.0941,-2.0917,-2.1266,-2.1251,-2.1303,-2.1728,-2.1697,-2.1616,0.0,0.0,0.0,0.0,0.0,0.0,0.0,0.0,-1.7462,-1.8464,0.0,-1.8652,0.0,0.0,0.0,0.0,0.0,-1.8525,0.0,0.0,-1.7875,-1.8474,-1.769,-1.7543,-1.7682,-1.8059,-1.7962,-1.7417,-1.653,-1.7,0.0,0.0,0.0,0.0,0.0,0.0,-1.6891,-1.6361,-1.6447,-1.6513,-1.6513,-1.6513,-1.6513,-1.6488,-1.5974,-1.5685,-1.5693,-1.559,-1.5384,-1.4947,-1.5781,0.0,0.0,0.0,0.0,0.0,0.0,0.0,0.0,0.0,0.0,0.0,0.0,0.0,0.0,0.0,0.0,0.0,0.0,0.0,0.0,-1.7332,0.0,0.0,0.0,0.0,0.0,0.0,0.0,0.0,0.0,0.0,-1.8593,-1.887,-1.9315,-1.9929,0.0,0.0,0.0,0.0,-1.9799,-1.8825,-1.8228,-1.8095,-1.8647,-1.8747,-1.903,-1.9837,0.0,0.0,-2.3156,-2.2733,-2.2262,-2.2279,-2.2262,-2.2313,-2.2276,-2.1822,-2.1594,-2.1948,-2.1619,-2.1646,-2.2638,-2.2438,-2.1961,-1.6598,0.0,0.0,0.0,0.0,-1.9652,-2.003,-2.0175,-1.9918,-1.9952,-2.0044,-1.9102,0.0,0.0,0.0,0.0,0.0,0.0,-1.8671,-1.7989,-1.8907,-1.9337,-1.9371,-1.8871,-1.9033,-1.9795,-1.8632,-1.7907,-1.7623,-1.7572,-1.771,-1.7978,0.0,0.0,0.0,0.0,-1.6614,-1.6715,-1.6574,-1.6513,-1.6513,-1.6513,-1.6513,-1.65,-1.5656,-1.534,-1.5693,-1.4959,-1.484,-1.5454,-1.5867,0.0,0.0,0.0,0.0,0.0,0.0,0.0,0.0,0.0,0.0,0.0,0.0,0.0,0.0,0.0,0.0,0.0,0.0,0.0,-1.799,-1.8277,-1.8219,0.0,0.0,0.0,0.0,0.0,0.0,0.0,0.0,0.0,-1.869,-1.8608,-1.8965,0.0,0.0,-1.8759,-1.9318,-1.9327,-1.934,-1.958,0.0,0.0,0.0,-1.9984,-1.9723,-1.9968,-2.0856,-2.158,-2.1786,-2.209,-2.2313,-2.2313,-2.2313,-2.2313,-2.231,-2.2333,-2.2434,-2.2741,-2.271,-2.2785,-2.3337,-2.3301,-2.3208,-1.7201,-1.8324,-1.8248,-1.8518,-1.9045,-2.0102,-2.0648,-2.0845,-2.0574,-2.069,-2.1001,-1.9995,-1.9561,-1.9498,-1.8609,0.0,0.0,0.0,-1.8955,-1.8811,-1.9209,-1.9716,-2.0243,-1.9708,-1.9747,-2.0249,-1.8956,-1.8123,-1.7817,-1.7673,-1.7894,-1.8358,0.0,0.0,-1.8204,-1.7527,-1.7063,-1.688,-1.6856,-1.6738,-1.6513,-1.6513,-1.6513,-1.6488,-1.5908,-1.5735,-1.5999,-1.5414,-1.5336,-1.5986,-1.6247,-1.6237,0.0,0.0,0.0,0.0,0.0,0.0,0.0,0.0,0.0,0.0,0.0,-1.6951,0.0,0.0,0.0,0.0,-1.71,-1.7465,-1.8403,-1.8372,0.0,0.0,0.0,0.0,0.0,0.0,0.0,-1.7253,-1.7805,-1.83,-1.8543,-1.84,-1.8744,-2.0031,-1.9188,-1.8653,-1.9214,0.0,-1.9504,-1.9733,-1.9861,-2.0106,-2.0623,-2.0572,-2.0657,-2.1265,-2.1481,-2.1766,-2.204,-2.2243,-2.2296,-2.2313,-2.2313,-2.2313,-2.2313,-2.244,-2.2625,-2.2935,-2.3123,-2.3294,-2.3621,-2.3806,-2.3947,-1.7982,-1.9931,-1.963,-1.8993,-1.8338,-2.0157,-2.0657,-2.0166,-2.0146,-2.0962,-2.2244,-2.1114,-2.1045,-2.17,-2.0398,0.0,-1.9046,-1.9036,-1.8957,-1.8812,-1.9228,-1.9875,-2.0657,-2.0135,-1.9959,-2.0017,-1.9074,-1.8198,-1.754,-1.7554,-1.7952,-1.868,-1.8645,-1.8426,-1.8091,-1.8264,-1.7894,-1.6893,-1.7235,-1.7134,-1.6575,-1.6525,-1.6513,-1.6513,-1.6513,-1.65,-1.65,-1.65,-1.6513,-1.65,-1.6735,-1.6863,-1.682,0.0,0.0,0.0,0.0,0.0,0.0,0.0,0.0,0.0,0.0,0.0,0.0,0.0,0.0,0.0,-1.7743,0.0,-1.8923,-1.8036,0.0,0.0,0.0,-1.7726,-1.8146,-1.8222,-1.8237,-1.8207,0.0,0.0,-1.8252,0.0,-1.8671,-1.9735,-1.9829,-1.9589,-1.9048,-1.9715,-2.0051,-1.9698,-1.9844,-2.0066,-2.0411,-2.0889,-2.1664,-2.2784,-2.2733,-2.2499,-2.3004,-2.2716,-2.2347,-2.2313,-2.2313,-2.2313,-2.2313,-2.231,-2.2374,-2.2608,-2.2898,-2.3206,-2.3511,-2.3816,-2.4054,-2.0249,-2.0609,-2.114,-2.1537,-2.1809,-2.2004,-2.2195,-2.2292,-2.2041,-2.196,-2.1956,-2.1017,-2.0365,-1.9925,-1.9919,-1.9999,-2.0177,-2.0214,-2.0348,-2.0557,-2.0371,-2.0767,-2.159,-2.0452,-2.0316,-2.0891,-1.9363,-1.849,-1.8335,-1.8275,-1.8405,-1.8692,-1.9211,-1.9233,-1.8682,-1.7852,-1.7449,-1.7507,-1.7591,-1.7492,-1.7184,-1.6726,-1.6513,-1.6513,-1.6513,-1.6513,-1.6513,-1.6513,-1.6513,-1.65,-1.6565,-1.6494,-1.6232,-1.7188,0.0,0.0,0.0,0.0,0.0,0.0,0.0,0.0,0.0,-1.832,-1.7954,0.0,-1.8318,0.0,-1.8162,-1.8816,-1.9652,-1.9491,0.0,0.0,-1.8838,-1.8607,-1.8237,-1.8524,-1.8583,-1.8237,-1.8509,-1.8715,-1.8747,-1.8732,-1.8975,-1.963,-1.9213,-1.9246,-2.0397,-2.0461,-2.0518,-2.0759,-2.1255,-2.1714,-2.1708,-2.189,-2.2141,-2.2482,-2.2415,-2.2364,-2.2533,-2.2446,-2.2313,-2.2313,-2.2313,-2.2313,-2.2313,-2.2313,-2.2324,-2.2388,-2.2467,-2.2594,-2.289,-2.3218,-2.3522,-1.9837,-2.0283,-2.0532,-2.126,-2.2189,-2.2589,-2.2573,-2.2296,-2.207,-2.2122,-2.2393,-2.1738,-2.1172,-2.0742,-2.0771,-2.0928,-2.1152,-2.1192,-2.1289,-2.1494,-2.1064,-2.1125,-2.1582,-2.067,-2.0391,-2.0693,-1.967,-1.9065,-1.8932,-1.9019,-1.8994,-1.8901,-1.9835,-1.9937,-1.9271,-1.8855,-1.8724,-1.8847,-1.8234,-1.7741,-1.741,-1.7096,-1.6964,-1.7082,-1.6557,-1.646,-1.6774,-1.6286,-1.6268,-1.6782,-1.6557,-1.6445,-1.6525,-1.6846,-1.6957,0.0,0.0,0.0,0.0,0.0,0.0,0.0,0.0,0.0,0.0,0.0,-1.9138,0.0,-1.8706,-1.8921,-1.9438,-1.9292,-1.9096,-1.9073,-1.9058,-1.9026,-1.8884,-1.9101,-1.9159,-1.8896,-1.9101,-1.9275,-1.926,-1.9243,-1.9361,-1.9648,-1.932,-1.9459,-2.0509,-2.0733,-2.0886,-2.133,-2.1894,-2.2313,-2.2313,-2.2313,-2.2313,-2.2313,-2.2313,-2.2313,-2.2313,-2.2313,-2.2313,-2.2313,-2.2313,-2.2313,-2.2313,-2.2313,-2.2313,-2.2313,-2.2313,-2.2402,-2.2647,-2.296,-2.3259,-1.8961,-1.9796,-1.9391,-1.9768,-2.081,-2.2117,-2.2122,-2.1356,-2.1141,-2.1756,-2.2843,-2.2658,-2.2545,-2.2568,-2.2217,-2.2051,-2.2041,-2.2034,-2.1973,-2.1943,-2.1523,-2.1278,-2.1268,-2.0918,-2.0576,-2.0176,-2.0059,-1.9814,-1.948,-1.9646,-1.9538,-1.9216,-2.0207,-2.0464,-2.0021,-2.042,-2.0513,-2.0205,-1.9028,-1.8179,-1.7725,-1.7551,-1.7612,-1.783,-1.6747,-1.6432,-1.7021,-1.6081,-1.5945,-1.6878,-1.6466,-1.6453,-1.6988,-1.6238,-1.6428,0.0,-1.7683,0.0,0.0,0.0,0.0,0.0,0.0,0.0,0.0,-1.9912,-1.9879,-1.9937,-1.9196,-1.8783,-1.898,-1.8529,-1.8423,-1.8936,-1.8995,-1.9202,-1.9651,-1.9723,-1.9723,-1.9723,-1.9723,-1.9723,-1.9678,-1.9723,-1.9708,-1.9708,-1.9681,-1.9854,-2.0364,-2.0749,-2.1133,-2.1613,-2.2032,-2.2313,-2.2313,-2.2313,-2.2313,-2.2313,-2.2313,-2.2313,-2.2313,-2.2313,-2.2313,-2.2313,-2.2313,-2.2313,-2.2313,-2.2313,-2.2313,-2.2313,-2.2313,-2.2374,-2.2586,-2.2873,-2.3129,-2.2055,-2.1239,-2.0556,-1.9851,-1.921,-1.9881,-2.0776,-2.1606,-2.0406,-2.0531,-2.1702,-2.26,-2.2974,-2.2974,-2.2886,-2.2867,-2.2838,-2.2549,-2.2393,-2.2383,-2.1953,-2.1758,-2.1748,-2.168,-2.1592,-2.1465,-2.0791,-2.0439,-2.0351,-1.9715,-1.9389,-1.9445,-1.9637,-2.0353,-2.1415,0.0,0.0,0.0,-1.961,-1.9447,-1.9321,-1.8493,-1.8134,-1.8329,-1.7289,0.0,-1.6459,-1.6257,-1.6016,-1.575,-1.5626,0.0,0.0,0.0,0.0,0.0,0.0,0.0,0.0,0.0,0.0,0.0,-1.9132,-1.9332,-1.9904,-1.9351,-1.9159,-1.9687,-1.9109,-1.8927,-1.9489,-1.9444,-1.9414,-1.9534,-1.9549,-1.9594,-1.9693,-1.9723,-1.9723,-1.9723,-1.9723,-1.9723,-1.9723,-1.9723,-1.9723,-1.9723,-1.9723,-2.0032,-2.0764,-2.0942,-2.1291,-2.1988,-2.2254,-2.2313,-2.2313,-2.2313,-2.2313,-2.2313,-2.2313,-2.2313,-2.2313,-2.2313,-2.2313,-2.2313,-2.2313,-2.2313,-2.2313,-2.2313,-2.2313,-2.2313,-2.2313,-2.2307,-2.2374,-2.2586,-2.2873,-2.0793,0.0,-1.9072,-1.8451,0.0,-1.7838,-1.9028,-2.0818,-1.9883,-2.0169,-2.1391,-2.258,-2.3101,-2.3101,-2.3101,-2.3101,-2.3081,-2.2877,-2.2779,-2.275,-2.2393,-2.2197,-2.2197,-2.1982,-2.1936,-2.1906,-2.1221,-2.1006,-2.1202,-2.0342,-1.9982,-2.0049,-2.0255,-2.0651,-2.1229,-2.0896,-2.0737,-2.0785,-2.0016,-1.968,-1.9735,-1.8744,-1.8309,-1.8492,0.0,0.0,0.0,0.0,0.0,0.0,0.0,0.0,0.0,0.0,0.0,-1.6985,-1.7261,-1.7595,-1.8041,-1.8207,-1.8383,-1.864,-1.9118,-1.9534,-1.9843,-1.9744,-1.969,-1.969,-1.9959,-2.0067,-1.9738,-1.9989,-2.0064,-1.9753,-1.9723,-1.9723,-1.9723,-1.9723,-1.9723,-1.9723,-1.9723,-1.9723,-1.9723,-1.9723,-1.9723,-1.9723,-1.9723,-2.0015,-2.0797,-2.1007,-2.1307,-2.2152,-2.2313,-2.2313,-2.2313,-2.2313,-2.2313,-2.2313,-2.2313,-2.2313,-2.2313,-2.2313,-2.2313,-2.2313,-2.2313,-2.2313,-2.2313,-2.2313,-2.2313,-2.2313,-2.2313,-2.2363,-2.245,-2.25,-2.259,-1.897,-1.7273,-1.7219,-1.7025,-1.6687,-1.64,-1.7647,-1.9863,0.0,0.0,0.0,-2.2589,-2.3101,-2.3101,-2.3101,-2.3101,-2.3101,-2.3101,-2.3101,-2.3081,-2.274,-2.2627,-2.2607,-2.2275,-2.21,-2.209,-2.1629,-2.1641,-2.1953,-2.1153,-2.0684,-2.0713,-2.0893,-2.0834,-2.0607,-2.0397,-2.0802,-2.1662,-2.039,-1.9812,-2.0061,-1.9145,-1.8725,-1.8872,-1.7302,-1.672,-1.7282,-1.6394,-1.6277,-1.7113,-1.6701,-1.6693,-1.7227,-1.6796,-1.6767,-1.7248,-1.7299,-1.7622,-1.8393,-1.8455,-1.838,-1.8262,-1.9268,-1.983,-1.9734,-2.0426,-2.0662,-2.0094,-2.1051,-2.1231,-2.0172,-2.0543,-2.0598,-1.9962,-1.9872,-1.9857,-1.9738,-1.9723,-1.9723,-1.9723,-1.9723,-1.9723,-1.9723,-1.9723,-1.9723,-1.9723,-1.9723,-2.003,-2.0812,-2.1182,-2.1539,-2.2152,-2.2313,-2.2313,-2.2313,-2.2313,-2.2313,-2.2313,-2.2313,-2.2313,-2.2313,-2.2313,-2.2313,-2.2313,-2.2313,-2.2313,-2.2313,-2.2313,-2.2313,-2.2313,-2.2335,-2.244,-2.2608,-2.2594,-2.2611,-2.0225,-1.7502,-1.7306,-1.7025,-1.668,-1.64,-1.753,-1.97,-2.1704,-2.212,-2.1391,-2.2589,-2.3101,-2.3101,-2.3101,-2.3101,-2.3101,-2.3101,-2.3101,0.0,-2.3042,-2.3003,-2.3003,-2.2945,-2.2916,-2.2886,-2.2529,-2.2363,-2.2324,-2.1512,-2.1143,-2.1045,-2.0437,-2.027,-2.0521,-2.0183,-2.0409,-2.1264,-2.0934,-2.0938,-2.1255,-2.0666,-2.0231,-1.9951,-1.8763,-1.8071,-1.7878,-1.7709,-1.7475,-1.7141,-1.7016,-1.714,-1.7516,-1.7469,-1.7597,-1.8008,-1.8059,-1.8096,-1.823,-1.8242,-1.8423,-1.8865,-1.9464,-1.9824,-1.9902,-2.0902,-2.1515,-2.1425,-2.1605,-2.1635,-2.1425,-2.1485,-2.1291,-2.0658,-2.0539,-2.0348,-1.9813,-1.9723,-1.9723,-1.9723,-1.9723,-1.9723,-1.9723,-1.9723,-1.9723,-1.9723,-1.9815,-2.005,-2.0894,-2.1645,-2.2123,-2.2268,-2.2313,-2.2313,-2.2313,-2.2313,-2.2313,-2.2313,-2.2313,-2.2313,-2.2313,-2.2313,-2.2313,-2.2313,-2.2313,-2.2313,-2.2313,-2.2313,-2.2338,-2.2349,-2.2473,-2.2673,-2.2772,-2.2928,-2.3189,-2.0809,-1.8466,-1.7555,-1.6938,-1.6545,-1.7559,-1.8953,-2.0576,-2.2315,-2.2818,-2.235,-2.2862,-2.3101,-2.3101,-2.3101,-2.3101,-2.3101,-2.3101,-2.3101,-2.3101,-2.3101,-2.3101,-2.3101,-2.3101,-2.3101,-2.3071,-2.2715,-2.2584,-2.2711,-2.196,-2.1582,-2.1523,-2.0703,-2.0276,-2.0209,-2.0024,-2.0459,-2.1587,-2.0319,-1.9942,-2.0523,-1.9514,-1.9084,-1.9307,-1.8302,-1.7876,-1.8091,-1.8101,-1.7999,-1.7709,-1.7696,-1.7778,-1.7915,-1.7918,-1.8147,-1.8606,-1.8619,-1.8619,-1.8619,-1.838,-1.8322,-1.8567,-1.9393,-1.9926,-1.9943,-2.1026,-2.1707,-2.1729,-2.2293,-2.2428,-2.1814,-2.2024,-2.1979,-2.1321,-2.0932,-2.0569,-2.0273,-1.9884,-1.9723,-1.9723,-1.9723,-1.9723,-1.9723,-1.9723,-1.9723,-1.9729,-2.005,-2.0632,-2.1228,-2.1855,-2.2313,-2.2313,-2.2313,-2.2313,-2.2313,-2.2313,-2.2313,-2.2313,-2.2313,-2.2313,-2.2313,-2.2313,-2.2313,-2.2313,-2.2313,-2.2313,-2.2327,-2.2426,-2.2487,-2.2554,-2.2781,-2.2984,-2.32,-2.3511,-2.3714,-2.1496,-1.921,-1.8205,-1.7447,-1.7114,-1.8824,-2.0298,-2.1518,-2.2637,-2.3101,-2.3101,-2.3101,-2.3101,-2.3101,-2.3101,-2.3101,-2.3101,-2.3101,-2.3101,-2.3101,-2.3101,-2.3101,-2.3101,-2.3101,-2.3101,-2.3062,-2.276,-2.2779,-2.2974,-2.2383,-2.1973,-2.1826,-2.1241,-2.0683,-2.0215,-2.0107,-2.0569,-2.1369,-1.9666,-1.92,-2.0183,-1.8962,-1.8455,-1.8696,-1.8261,-1.8117,-1.852,-1.8568,-1.8568,-1.8568,-1.8568,-1.8568,-1.8568,-1.8555,-1.8756,-1.9121,-1.9183,-1.9183,-1.9158,-1.8807,-1.8555,-1.8568,-1.942,-2.0088,-2.0432,-2.1171,-2.1773,-2.1999,-2.2784,-2.299,-2.2407,-2.2598,-2.2643,-2.1999,-2.1485,-2.1141,-2.0917,-2.0333,-1.9914,-1.9929,-1.9929,-1.9884,-1.9768,-1.9842,-1.9942,-1.999,-2.0515,-2.1118,-2.1553,-2.2003,-2.2282,-2.2313,-2.2313,-2.2313,-2.2313,-2.2313,-2.2313,-2.2313,-2.2313,-2.2313,-2.2313,-2.2313,-2.2313,-2.2313,-2.2313,-2.2335,-2.2402,-2.2537,-2.2695,-2.2797,-2.3081,-2.3414,-2.3732,-2.3966,-2.4085,-2.2729,-1.9775,-1.9479,-1.9235,-1.902,-1.9646,-2.0728,-2.1998,-2.277,-2.3101,-2.3101,-2.3101,-2.3101,-2.3101,-2.3101,-2.3101,-2.3101,-2.3101,-2.3101,-2.3101,-2.3101,-2.3101,-2.3101,-2.3101,-2.3101,-2.3091,-2.3033,-2.3023,-2.3062,-2.2633,-2.2256,-2.1924,-2.1797,-2.1523,-2.1073,-2.0713,-2.0408,-2.0115,-1.9502,-2.0051,-2.1549,-2.1025,-2.0258,-1.9353,-1.9969,-2.0135,-1.9571,-1.966,-1.9648,-1.9648,-1.9623,-1.9635,-1.9635,-1.9635,-1.9673,-1.971,-1.9723,-1.9723,-1.9723,-1.9685,-1.961,-1.9648,-1.9724,-2.0292,-2.1339,-2.16,-2.1978,-2.247,-2.2721,-2.301,-2.3366,-2.3445,-2.3206,-2.2688,-2.2478,-2.2283,-2.165,-2.1021,-2.0598,-2.0598,-2.0598,-2.0389,-2.0019,-2.0243,-2.0439,-2.0202,-2.0632,-2.1166,-2.1553,-2.2003,-2.2313,-2.2313,-2.2313,-2.2313,-2.2313,-2.2313,-2.2313,-2.2313,-2.2313,-2.2313,-2.2313,-2.2313,-2.2313,-2.2313,-2.2313,-2.2377,-2.2541,-2.2708,-2.2822,-2.3069,-2.338,-2.3735,-2.4036,-2.417,-2.4142,-2.3963,-2.2315,-2.1283,-2.1093,-2.1409,-2.1488,-2.2076,-2.3074,-2.337,-2.3335,-2.311,-2.3101,-2.3101,-2.3101,-2.3101,-2.3101,-2.3101,-2.3101,-2.3101,-2.3101,-2.3101,-2.3101,-2.3101,-2.3101,-2.3101,-2.3101,-2.3101,-2.3101,-2.3023,-2.2672,-2.2422,-2.2236,-2.2012,-2.1787,-2.1592,-2.1182,-2.1125,-2.1525,-2.0292,-2.0571,-2.1992,-2.0347,-1.8996,-1.8563,-1.8988,-1.925,-1.921,-1.9553,-1.9798,-1.9798,-1.9798,-1.9798,-1.9798,-1.9798,-1.9798,-1.9798,-1.9798,-1.9949,-2.0288,-1.9999,-1.9798,-1.9798,-1.9798,-2.0194,-2.1064,-2.1161,-2.1571,-2.2535,-2.3009,-2.3355,-2.3551,-2.3595,-2.349,-2.3227,-2.2927,-2.2583,-2.2343,-2.1714,-2.1291,-2.1291,-2.1291,-2.1201,-2.0917,-2.0767,-2.0612,-2.0431,-2.0715,-2.115,-2.1536,-2.2003,-2.2268,-2.2313,-2.2313,-2.2313,-2.2313,-2.2313,-2.2313,-2.2313,-2.2313,-2.2313,-2.2313,-2.2313,-2.2313,-2.2313,-2.2313,-2.2338,-2.2412,-2.2819,-2.3069,-2.3311,-2.3671,-2.4036,-2.418,-2.4199,-2.4199,-2.506,-2.408,-2.241,-2.2254,-2.3125,-2.2835,-2.3271,-2.4066,-2.3906,-2.3603,-2.332,-2.3149,-2.3101,-2.3101,-2.3101,-2.3101,-2.3101,-2.3101,-2.3101,-2.3101,-2.3101,-2.3101,-2.3101,-2.3101,-2.3101,-2.3101,-2.3101,-2.3101,-2.3062,-2.2852,-2.2643,-2.2627,-2.2383,-2.2168,-2.2031,-2.1728,-2.1809,-2.2084,-2.0915,-2.0855,-2.1602,-1.9891,-1.8783,-1.8905,-1.9004,-1.9182,-1.9462,-1.9986,-2.0263,-2.0263,-2.0125,-2.0063,-2.0024,-1.9886,-1.9798,-1.9836,-2.01,-2.039,-2.0679,-2.0302,-2.0037,-2.0024,-1.9911,-2.008,-2.0646,-2.0809,-2.1296,-2.2253,-2.2972,-2.3341,-2.3573,-2.3595,-2.3595,-2.3565,-2.3182,-2.2957,-2.2912,-2.2388,-2.1964,-2.1964,-2.1964,-2.1964,-2.1844,-2.128,-2.0632,-2.0678,-2.0857,-2.115,-2.1553,-2.1988,-2.2313,-2.2313,-2.2313,-2.2313,-2.2313,-2.2313,-2.2313,-2.2313,-2.2313,-2.2313,-2.2313,-2.2313,-2.2313,-2.2313,-2.2313,-2.2391,-2.2527,-2.289,-2.3323,-2.3522,-2.3855,-2.418,-2.419,-2.4199,-2.4199,-2.5907,-2.4173,-2.246,-2.2591,-2.3678,-2.3241,-2.3782,-2.492,-2.416,-2.3799,-2.3682,-2.333,-2.3101,-2.3101,-2.3101,-2.3101,-2.3101,-2.3101,-2.3101,-2.3101,-2.312,-2.3101,-2.3101,-2.3101,-2.3101,-2.3101,-2.3101,-2.3101,-2.3101,-2.3062,-2.3071,-2.3042,-2.2984,-2.2818,-2.2519,-2.2383,-2.2031,-2.1449,-2.1153,-2.082,-2.0319,-2.038,-2.0778,-2.1428,-2.1126,-2.0882,-2.1222,-2.1365,-2.1368,-2.1393,-2.0918,-2.0654,-2.0603,-2.0125,-1.9874,-1.9974,-2.0815,-2.1194,-2.0817,-2.0691,-2.0654,-2.0591,-2.02,-2.0118,-2.0788,-2.0888,-2.118,-2.1697,-2.2392,-2.2942,-2.3443,-2.3551,-2.3595,-2.3595,-2.3565,-2.3526,-2.352,-2.2987,-2.2703,-2.2658,-2.2643,-2.2598,-2.2583,-2.15,-2.1016,-2.1026,-2.1076,-2.1102,-2.1492,-2.1957,-2.2209,-2.2313,-2.2313,-2.2313,-2.2313,-2.2313,-2.2313,-2.2313,-2.2313,-2.2313,-2.2313,-2.2313,-2.2313,-2.2313,-2.2313,-2.2415,-2.2652,-2.3009,-2.3448,-2.3735,-2.3986,-2.4199,-2.4199,-2.4199,-2.4199,-2.628,-2.5189,-2.4526,-2.455,-2.4952,-2.48,-2.4881,-2.5039,-2.4746,-2.4333,-2.3828,-2.3623,-2.3408,-2.3101,-2.3101,-2.3101,-2.3101,-2.3101,-2.3101,-2.313,-2.3418,-2.3408,-2.314,-2.3408,-2.3344,-2.312,-2.3101,-2.3101,-2.3101,-2.3101,-2.3101,-2.3101,-2.3101,-2.3003,-2.2799,-2.2383,-2.1934,-2.1631,-2.1123,-2.0936,-2.1196,-2.1162,-2.1636,-2.2657,-2.1625,-2.092,-2.0803,-2.1256,-2.1481,-2.1481,-2.1305,-2.1219,-2.1207,-2.1018,-2.1054,-2.1368,-2.1468,-2.1556,-2.1656,-2.138,-2.1219,-2.1207,-2.1016,-2.0945,-2.1237,-2.1311,-2.1417,-2.1691,-2.1889,-2.2331,-2.2942,-2.3355,-2.3595,-2.3595,-2.3595,-2.3595,-2.3565,-2.3385,-2.3287,-2.3266,-2.3266,-2.3152,-2.2658,-2.1889,-2.1244,-2.0955,-2.0727,-2.081,-2.115,-2.1568,-2.1974,-2.2223,-2.2313,-2.2313,-2.2313,-2.2313,-2.2313,-2.2313,-2.2313,-2.2313,-2.2313,-2.2313,-2.2313,-2.2313,-2.2313,-2.2349,-2.2581,-2.2873,-2.3369,-2.3876,-2.4103,-2.4046,-2.4199,-2.4056,-2.4094,-2.6807,-2.6152,-2.6103,-2.6025,-2.5957,-2.5947,-2.5693,-2.5293,-2.5127,-2.4783,-2.4248,-2.4062,-2.3828,-2.3539,-2.351,-2.35,-2.3491,-2.3383,-2.3374,-2.353,-2.3857,-2.3838,-2.3643,-2.3848,-2.376,-2.3379,-2.3149,-2.3101,-2.3101,-2.3101,-2.3101,-2.3101,-2.3101,-2.3101,-2.2994,-2.2559,-2.2197,-2.1877,-2.158,-2.17,-2.201,-2.22,-2.2676,-2.3295,-2.2507,-2.1747,-2.1326,-2.1749,-2.202,-2.1995,-2.1845,-2.1669,-2.1559,-2.1656,-2.1832,-2.2008,-2.2046,-2.2083,-2.2234,-2.197,-2.1744,-2.1732,-2.1568,-2.154,-2.1574,-2.1562,-2.1603,-2.1644,-2.1862,-2.222,-2.2909,-2.356,-2.3815,-2.3664,-2.3595,-2.3595,-2.3595,-2.3595,-2.358,-2.3565,-2.355,-2.337,-2.3011,-2.2433,-2.1789,-2.1126,-2.0782,-2.0744,-2.0795,-2.1243,-2.1673,-2.2017,-2.2209,-2.2282,-2.2313,-2.2313,-2.2313,-2.2313,-2.2313,-2.2313,-2.2313,-2.2313,-2.2313,-2.2313,-2.2324,-2.2349,-2.2517,-2.2789,-2.3242,-2.3785,-2.3795,-2.3682,-2.3756,-2.3808,-2.3852,-2.7393,-2.6973,-2.7002,-2.6719,-2.6406,-2.6348,-2.6123,-2.5703,-2.5293,-2.5106,-2.4863,-2.459,-2.4375,-2.4346,-2.4268,-2.4365,-2.4297,-2.3965,-2.3975,-2.4277,-2.4385,-2.4365,-2.4258,-2.4307,-2.4092,-2.3662,-2.332,-2.3101,-2.3101,-2.3101,-2.3101,-2.3101,-2.3101,-2.3101,-2.3101,-2.2945,-2.2627,-2.2219,-2.2574,-2.2739,-2.2289,-2.3304,-2.4048,-2.4123,-2.396,-2.361,-2.3035,-2.3002,-2.2957,-2.2932,-2.2543,-2.2071,-2.1769,-2.2046,-2.2108,-2.192,-2.2493,-2.2757,-2.2435,-2.2305,-2.2322,-2.2243,-2.1857,-2.1659,-2.163,-2.1592,-2.1569,-2.1595,-2.2031,-2.2671,-2.3437,-2.4074,-2.4247,-2.3747,-2.3714,-2.3714,-2.361,-2.3595,-2.3595,-2.3595,-2.3595,-2.3595,-2.346,-2.2972,-2.2343,-2.1819,-2.1333,-2.0956,-2.0682,-2.1055,-2.146,-2.1703,-2.1928,-2.2137,-2.224,-2.2313,-2.2313,-2.2313,-2.2313,-2.2313,-2.2313,-2.2313,-2.2313,-2.2313,-2.2313,-2.2335,-2.2554,-2.281,-2.2947,-2.3323,-2.3277,-2.3357,-2.3426,-2.35,-2.3517,-2.7412,-2.7031,-2.7012,-2.6943,-2.6777,-2.6514,-2.6299,-2.6133,-2.5723,-2.5361,-2.5088,-2.4922,-2.4697,-2.4473,-2.4424,-2.459,-2.4805,-2.4434,-2.4297,-2.4463,-2.4727,-2.4551,-2.415,-2.4287,-2.4033,-2.3383,-2.3169,-2.3101,-2.3101,-2.3101,-2.3101,-2.3101,-2.3101,-2.3101,-2.3081,-2.2808,-2.2412,-2.2038,-2.2532,-2.2597,-2.2231,-2.3815,-2.4565,-2.4312,-2.4785,-2.4695,-2.3791,-2.3321,-2.3108,-2.3108,-2.2945,-2.2769,-2.2656,-2.2744,-2.2769,-2.2656,-2.2882,-2.3058,-2.2895,-2.2832,-2.2832,-2.2819,-2.2656,-2.2406,-2.2121,-2.2046,-2.1895,-2.1665,-2.2145,-2.2857,-2.3537,-2.4248,-2.4529,-2.4298,-2.4276,-2.4051,-2.3684,-2.3595,-2.3595,-2.3595,-2.3595,-2.3595,-2.3505,-2.3092,-2.2673,-2.2328,-2.1601,-2.0919,-2.0974,-2.0832,-2.1007,-2.146,-2.1735,-2.202,-2.2211,-2.2313,-2.2313,-2.2313,-2.2313,-2.2313,-2.2313,-2.2313,-2.2313,-2.2313,-2.2313,-2.2391,-2.2603,-2.2725,-2.284,-2.2984,-2.3117,-2.3177,-2.3189,-2.3253,-2.3349,-2.7744,-2.75,-2.749,-2.7393,-2.7236,-2.6963,-2.667,-2.6387,-2.6103,-2.5723,-2.5381,-2.5322,-2.5166,-2.4941,-2.4855,-2.5059,-2.5254,-2.4863,-2.4746,-2.4826,-2.4961,-2.4793,-2.4248,-2.416,-2.3945,-2.3447,-2.3179,-2.3101,-2.3101,-2.3101,-2.3101,-2.3101,-2.3101,-2.3101,-2.3081,-2.2881,-2.2598,-2.2512,-2.311,-2.3361,-2.3512,-2.4707,-2.5388,-2.5176,-2.5431,-2.5126,-2.4343,-2.3722,-2.3333,-2.3158,-2.3095,-2.3095,-2.3095,-2.3083,-2.3095,-2.3095,-2.3095,-2.3095,-2.3095,-2.307,-2.3095,-2.3095,-2.3095,-2.297,-2.2656,-2.2594,-2.2393,-2.2257,-2.2793,-2.3486,-2.4226,-2.4958,-2.5325,-2.5365,-2.4859,-2.435,-2.3759,-2.3595,-2.3595,-2.3595,-2.3595,-2.3595,-2.349,-2.3362,-2.2927,-2.2628,-2.1999,-2.1154,-2.1194,-2.0857,-2.1094,-2.1326,-2.1538,-2.1855,-2.2225,-2.2313,-2.2313,-2.2313,-2.2313,-2.2313,-2.2313,-2.2313,-2.2313,-2.2313,-2.2313,-2.231,-2.249,-2.25,-2.2581,-2.2768,-2.2903,-2.2811,-2.2803,-2.3176,-2.33,-2.8281,-2.8301,-2.8281,-2.8027,-2.7757,-2.7669,-2.7187,-2.6562,-2.6377,-2.6133,-2.583,-2.5645,-2.5684,-2.5645,-2.5538,-2.5567,-2.5586,-2.5225,-2.5225,-2.541,-2.5293,-2.4961,-2.4812,-2.4092,-2.3701,-2.3594,-2.3247,-2.311,-2.3101,-2.3101,-2.3101,-2.3101,-2.3101,-2.3101,-2.3081,-2.3081,-2.307,-2.3145,-2.4129,-2.4668,-2.4788,-2.5886,-2.6405,-2.6343,-2.5916,-2.5435,-2.4883,-2.433,-2.3753,-2.3208,-2.3095,-2.3095,-2.3095,-2.3095,-2.3095,-2.3095,-2.3095,-2.3095,-2.3095,-2.3095,-2.3095,-2.3095,-2.3095,-2.3095,-2.3032,-2.2982,-2.297,-2.2967,-2.3774,-2.4588,-2.526,-2.6046,-2.6426,-2.6391,-2.5345,-2.4365,-2.3729,-2.3595,-2.3595,-2.3595,-2.3595,-2.3595,-2.3595,-2.355,-2.3302,-2.2942,-2.2643,-2.2024,-2.1422,-2.1194,-2.1148,-2.1258,-2.1407,-2.1613,-2.1959,-2.2282,-2.2296,-2.2313,-2.2313,-2.233,-2.2313,-2.2313,-2.2313,-2.2313,-2.2313,-2.231,-2.2321,-2.2374,-2.2374,-2.248,-2.247,-2.2338,-2.2621,-2.3136,-2.3639,-2.8301,-2.8301,-2.8301,-2.8232,-2.8086,-2.7865,-2.7601,-2.7246,-2.665,-2.6367,-2.6162,-2.582,-2.5703,-2.5684,-2.5684,-2.5684,-2.5625,-2.5273,-2.5303,-2.5557,-2.5273,-2.4883,-2.4473,-2.3695,-2.333,-2.3266,-2.3169,-2.3101,-2.3101,-2.3101,-2.3101,-2.3101,-2.3101,-2.3101,-2.3101,-2.3101,-2.2948,-2.2964,-2.4121,-2.4675,-2.4765,-2.5799,-2.6452,-2.6474,-2.6336,-2.5925,-2.541,-2.4883,-2.4086,-2.3195,-2.3095,-2.3095,-2.3108,-2.3095,-2.3095,-2.3095,-2.3095,-2.3095,-2.3095,-2.3095,-2.3095,-2.3095,-2.3095,-2.3095,-2.3095,-2.3095,-2.3095,-2.3322,-2.4266,-2.5147,-2.5563,-2.6549,-2.6994,-2.6523,-2.5495,-2.4425,-2.3834,-2.3595,-2.3595,-2.3595,-2.3595,-2.3595,-2.3595,-2.358,-2.352,-2.3281,-2.2987,-2.2598,-2.1994,-2.1392,-2.1268,-2.1212,-2.1322,-2.1437,-2.1673,-2.2077,-2.2282,-2.2313,-2.233,-2.2347,-2.233,-2.2313,-2.2313,-2.2313,-2.2313,-2.231,-2.231,-2.2338,-2.2313,-2.2465,-2.2533,-2.2668,-2.3004,-2.3464,-2.4143,-2.8301,-2.8301,-2.8301,-2.8301,-2.8271,-2.808,-2.7885,-2.765,-2.7219,-2.6699,-2.6406,-2.6143,-2.5898,-2.5703,-2.5684,-2.5684,-2.5635,-2.5273,-2.5332,-2.5547,-2.5273,-2.4844,-2.4346,-2.3701,-2.3276,-2.3101,-2.3101,-2.3101,-2.3101,-2.3101,-2.3101,-2.3101,-2.3101,-2.3101,-2.3101,-2.3125,-2.3375,-2.3794,-2.4379,-2.4681,-2.5543,-2.5853,-2.6188,-2.6411,-2.6474,-2.6223,-2.5624,-2.5084,-2.4362,-2.3659,-2.3459,-2.3389,-2.312,-2.3095,-2.3095,-2.3095,-2.3095,-2.3095,-2.3095,-2.3095,-2.3095,-2.3095,-2.3095,-2.3095,-2.3095,-2.3095,-2.3095,-2.3245,-2.4525,-2.5231,-2.5646,-2.6733,-2.7145,-2.6647,-2.5899,-2.5061,-2.4148,-2.3774,-2.3625,-2.3595,-2.3595,-2.3595,-2.3595,-2.3595,-2.3595,-2.3535,-2.331,-2.3002,-2.2604,-2.1929,-2.1576,-2.1799,-2.2004,-2.2297,-2.2527,-2.2889,-2.2888,-2.282,-2.2801,-2.275,-2.2584,-2.2516,-2.2448,-2.2448,-2.2364,-2.2364,-2.2482,-2.2617,-2.2835,-2.2953,-2.2987,-2.3241,-2.3644,-2.4017,-2.4661,-2.8359,-2.835,-2.831,-2.8301,-2.8301,-2.8281,-2.8027,-2.7757,-2.7571,-2.707,-2.6494,-2.6328,-2.6025,-2.5684,-2.5684,-2.5684,-2.5713,-2.5371,-2.5439,-2.5547,-2.5352,-2.4971,-2.4531,-2.3975,-2.3574,-2.3247,-2.314,-2.3101,-2.3101,-2.3101,-2.3101,-2.3101,-2.3101,-2.3101,-2.3101,-2.3091,-2.391,-2.4574,-2.4568,-2.516,-2.6266,-2.6347,-2.6453,-2.6621,-2.6524,-2.6298,-2.5787,-2.531,-2.4782,-2.4205,-2.4067,-2.3728,-2.3258,-2.3195,-2.3095,-2.3095,-2.3095,-2.3095,-2.3095,-2.3095,-2.3095,-2.3095,-2.3095,-2.3095,-2.3095,-2.3095,-2.3155,-2.3365,-2.4582,-2.5398,-2.5972,-2.6898,-2.7041,-2.6641,-2.6447,-2.5734,-2.4844,-2.4051,-2.367,-2.3595,-2.3595,-2.3595,-2.3595,-2.3595,-2.3595,-2.3595,-2.3467,-2.3408,-2.3175,-2.2783,-2.2717,-2.2982,-2.3193,-2.3404,-2.3618,-2.3821,-2.3648,-2.3511,-2.3511,-2.3427,-2.3139,-2.3004,-2.2784,-2.275,-2.3105,-2.3122,-2.2987,-2.3156,-2.341,-2.3444,-2.3494,-2.3966,-2.4474,-2.4797,-2.5338,-2.8789,-2.876,-2.8437,-2.8301,-2.8301,-2.8291,-2.8047,-2.7699,-2.7305,-2.6885,-2.6406,-2.5996,-2.581,-2.5684,-2.5684,-2.5684,-2.5684,-2.5557,-2.5625,-2.5635,-2.5625,-2.5342,-2.4844,-2.4199,-2.3769,-2.3555,-2.3281,-2.311,-2.3101,-2.3101,-2.3101,-2.3101,-2.3101,-2.3101,-2.3101,-2.3135,-2.3202,-2.377,-2.4647,-2.5454,-2.6263,-2.7063,-2.7259,-2.7092,-2.6738,-2.6474,-2.6348,-2.621,-2.5871,-2.5222,-2.4481,-2.3966,-2.374,-2.3321,-2.312,-2.3095,-2.3095,-2.3095,-2.3095,-2.3095,-2.3095,-2.3095,-2.3095,-2.3095,-2.3095,-2.3095,-2.3412,-2.3959,-2.4866,-2.581,-2.6808,-2.6856,-2.6811,-2.6497,-2.5794,-2.5068,-2.4664,-2.444,-2.4066,-2.3744,-2.3595,-2.3595,-2.3595,-2.3595,-2.3595,-2.3595,-2.3672,-2.374,-2.365,-2.3518,-2.3786,-2.4028,-2.4116,-2.4278,-2.4447,-2.455,-2.4375,-2.4255,-2.4255,-2.444,-2.412,-2.3934,-2.3915,-2.3966,-2.4085,-2.3949,-2.3594,-2.39,-2.4222,-2.4103,-2.4101,-2.4592,-2.5066,-2.549,-2.5795,-2.8926,-2.8877,-2.8467,-2.8301,-2.8262,-2.8076,-2.7871,-2.766,-2.7197,-2.6777,-2.6416,-2.6133,-2.5937,-2.5693,-2.5684,-2.5684,-2.5684,-2.5684,-2.5684,-2.5684,-2.5674,-2.5605,-2.5264,-2.4531,-2.4004,-2.3799,-2.3574,-2.3359,-2.3149,-2.3101,-2.3101,-2.3101,-2.3101,-2.3101,-2.3101,-2.3135,-2.3757,-2.4596,-2.4975,-2.5754,-2.7093,-2.7418,-2.7643,-2.7347,-2.7014,-2.6788,-2.6512,-2.6474,-2.616,-2.5548,-2.4833,-2.4255,-2.3941,-2.3421,-2.3133,-2.3095,-2.3095,-2.3095,-2.3095,-2.3095,-2.3095,-2.3095,-2.3095,-2.3095,-2.3095,-2.3095,-2.3484,-2.4221,-2.5007,-2.5959,-2.7338,-2.7016,-2.6686,-2.6437,-2.5704,-2.4978,-2.4634,-2.4335,-2.4022,-2.367,-2.3595,-2.3595,-2.3595,-2.3616,-2.3638,-2.3659,-2.4053,-2.4132,-2.4277,-2.424,-2.4684,-2.4924,-2.498,-2.5076,-2.5247,-2.5276,-2.5085,-2.5017,-2.5017,-2.5338,-2.549,-2.5371,-2.5269,-2.5049,-2.4711,-2.4457,-2.4237,-2.4626,-2.4966,-2.4983,-2.5084,-2.5338,-2.5642,-2.6031,-2.6268,-2.8975,-2.8887,-2.8467,-2.8301,-2.8232,-2.7861,-2.7637,-2.749,-2.7109,-2.6631,-2.6338,-2.6289,-2.5996,-2.5752,-2.5684,-2.5684,-2.5684,-2.5684,-2.5684,-2.5684,-2.5684,-2.5654,-2.5421,-2.4902,-2.4316,-2.3916,-2.3652,-2.3418,-2.3169,-2.3101,-2.3101,-2.3101,-2.3101,-2.3101,-2.3101,-2.3178,-2.393,-2.5368,-2.545,-2.6237,-2.8104,-2.8035,-2.7889,-2.7501,-2.7304,-2.6977,-2.6612,-2.6461,-2.6285,-2.5749,-2.5222,-2.4695,-2.4098,-2.3459,-2.3095,-2.3095,-2.3095,-2.3095,-2.3095,-2.3095,-2.3095,-2.3095,-2.3095,-2.3215,-2.3275,-2.3471,-2.393,-2.4667,-2.5563,-2.6375,-2.7388,-2.7195,-2.6746,-2.6363,-2.5884,-2.53,-2.4545,-2.3917,-2.3684,-2.3625,-2.3595,-2.3595,-2.3659,-2.3709,-2.3724,-2.3815,-2.4241,-2.4592,-2.4732,-2.4937,-2.5357,-2.5709,-2.576,-2.5763,-2.5933,-2.5916,-2.5778,-2.5693,-2.5727,-2.6015,-2.6404,-2.6234,-2.5895,-2.5439,-2.51,-2.4998,-2.51,-2.5456,-2.5727,-2.5845,-2.5896,-2.5981,-2.6251,-2.659,-2.6674,-2.9248,-2.8887,-2.8467,-2.8301,-2.8232,-2.7842,-2.7451,-2.708,-2.6689,-2.625,-2.5849,-2.5801,-2.5791,-2.5693,-2.5684,-2.5684,-2.5684,-2.5635,-2.5625,-2.5625,-2.5596,-2.5567,-2.5411,-2.5,-2.46,-2.4199,-2.3682,-2.3198,-2.313,-2.3101,-2.3178,-2.3135,-2.3222,-2.3222,-2.3222,-2.3178,-2.393,-2.5431,-2.5839,-2.6902,-2.8179,-2.8874,-2.866,-2.7996,-2.757,-2.709,-2.6625,-2.6487,-2.6449,-2.6311,-2.5774,-2.5222,-2.4544,-2.3634,-2.3208,-2.3095,-2.3095,-2.3095,-2.3095,-2.3095,-2.3095,-2.3095,-2.3095,-2.3484,-2.3855,-2.4118,-2.4582,-2.5741,-2.6602,-2.7291,-2.7534,-2.727,-2.6791,-2.6153,-2.5525,-2.5046,-2.4118,-2.3699,-2.3595,-2.3595,-2.3595,-2.3595,-2.3681,-2.3858,-2.4032,-2.4282,-2.4712,-2.5144,-2.5427,-2.5635,-2.5947,-2.6265,-2.6505,-2.6522,-2.6573,-2.6505,-2.642,-2.6336,-2.6353,-2.642,-2.6674,-2.6657,-2.6387,-2.6133,-2.6031,-2.6065,-2.6218,-2.6319,-2.6167,-2.6031,-2.6251,-2.6556,-2.6556,-2.6623,-2.6742,-2.9121,-2.8877,-2.8467,-2.8301,-2.8184,-2.7598,-2.7217,-2.6934,-2.6338,-2.5888,-2.5732,-2.5684,-2.5684,-2.5684,-2.5684,-2.5684,-2.5625,-2.5459,-2.54,-2.5371,-2.5176,-2.5001,-2.4992,-2.4629,-2.4346,-2.3955,-2.3447,-2.3101,-2.3101,-2.3101,-2.3377,-2.392,-2.3973,-2.3973,-2.3973,-2.4049,-2.4638,-2.5588,-2.6307,-2.7331,-2.8767,-2.9573,-2.9151,-2.8348,-2.7821,-2.7329,-2.6637,-2.6487,-2.6323,-2.6047,-2.5749,-2.5172,-2.4519,-2.3935,-2.3439,-2.3195,-2.3108,-2.3095,-2.3095,-2.3095,-2.3095,-2.3095,-2.3095,-2.3514,-2.406,-2.4394,-2.5077,-2.6229,-2.7152,-2.7585,-2.7585,-2.7076,-2.6288,-2.5689,-2.5068,-2.4403,-2.3834,-2.364,-2.3595,-2.3595,-2.3595,-2.3616,-2.3681,-2.3921,-2.4282,-2.4712,-2.5182,-2.5596,-2.6013,-2.6209,-2.6384,-2.6487,-2.6691,-2.6691,-2.6708,-2.6708,-2.6708,-2.6708,-2.6725,-2.681,-2.6877,-2.6843,-2.708,-2.7131,-2.7114,-2.6742,-2.6657,-2.6505,-2.637,-2.6319,-2.6725,-2.6962,-2.6691,-2.6607,-2.6776,-2.8867,-2.876,-2.8437,-2.8242,-2.8047,-2.7344,-2.6963,-2.6748,-2.6025,-2.5703,-2.5674,-2.5577,-2.5576,-2.5557,-2.544,-2.5391,-2.5439,-2.5059,-2.4961,-2.4883,-2.4658,-2.4453,-2.4316,-2.4043,-2.3838,-2.3818,-2.3335,-2.3101,-2.3101,-2.3101,-2.3627,-2.4049,-2.451,-2.4798,-2.4713,-2.4967,-2.5755,-2.6461,-2.6842,-2.7907,-2.9287,-2.9741,-2.934,-2.836,-2.8172,-2.762,-2.6839,-2.6549,-2.6311,-2.6034,-2.5783,-2.5385,-2.4531,-2.423,-2.3891,-2.3384,-2.3183,-2.3108,-2.3095,-2.3095,-2.3095,-2.3095,-2.3095,-2.3619,-2.4467,-2.5091,-2.5618,-2.6575,-2.7188,-2.7585,-2.748,-2.6707,-2.6048,-2.548,-2.4747,-2.3939,-2.3729,-2.3595,-2.3595,-2.3595,-2.3595,-2.3616,-2.3659,-2.4053,-2.441,-2.493,-2.5373,-2.5872,-2.6244,-2.647,-2.6607,-2.6624,-2.6691,-2.6691,-2.6708,-2.6708,-2.6708,-2.6708,-2.6725,-2.6776,-2.6894,-2.6979,-2.7232,-2.735,-2.7063,-2.6708,-2.6708,-2.6708,-2.6573,-2.6691,-2.7232,-2.7266,-2.681,-2.6776,-2.6996,-2.8701,-2.8359,-2.831,-2.8076,-2.7705,-2.7217,-2.6787,-2.6426,-2.5957,-2.5684,-2.5664,-2.5342,-2.5176,-2.5078,-2.4775,-2.4582,-2.4543,-2.456,-2.4502,-2.4463,-2.4346,-2.4277,-2.4307,-2.3984,-2.374,-2.3652,-2.3276,-2.312,-2.3178,-2.3178,-2.3309,-2.381,-2.4755,-2.4925,-2.5378,-2.5953,-2.683,-2.7683,-2.7896,-2.8518,-2.9534,-2.9779,-2.9415,-2.8863,-2.8298,-2.7795,-2.7105,-2.6751,-2.6399,-2.6373,-2.6348,-2.6059,-2.5473,-2.4958,-2.4481,-2.3929,-2.3477,-2.3095,-2.3095,-2.3095,-2.3215,-2.3215,-2.3228,-2.3888,-2.5021,-2.6254,-2.6967,-2.7342,-2.7585,-2.7585,-2.7585,-2.739,-2.6731,-2.5974,-2.5211,-2.4418,-2.3939,-2.3595,-2.3595,-2.3595,-2.3595,-2.3595,-2.3616,-2.408,-2.4556,-2.5089,-2.5615,-2.6103,-2.652,-2.6742,-2.6928,-2.6996,-2.7283,-2.7334,-2.7368,-2.7266,-2.7182,-2.7046,-2.6928,-2.6962,-2.7199,-2.7334,-2.6996,-2.7029,-2.6826,-2.6843,-2.6928,-2.6911,-2.6776,-2.6877,-2.7199,-2.7063,-2.6759,-2.6928,-2.7266,-2.8242,-2.8271,-2.8037,-2.7894,-2.764,-2.6943,-2.6562,-2.6328,-2.5928,-2.5684,-2.5606,-2.5264,-2.4941,-2.4697,-2.4473,-2.4434,-2.4375,-2.417,-2.4072,-2.3984,-2.3812,-2.3721,-2.3588,-2.3516,-2.3428,-2.3408,-2.3218,-2.311,-2.3266,-2.38,-2.4307,-2.502,-2.5994,-2.6778,-2.6491,-2.7105,-2.7602,-2.8148,-2.8688,-2.9275,-2.965,-2.9754,-2.9528,-2.89,-2.8361,-2.7846,-2.7318,-2.6788,-2.6512,-2.6487,-2.6487,-2.6223,-2.5636,-2.5064,-2.4537,-2.4017,-2.3452,-2.3133,-2.3095,-2.3095,-2.3335,-2.3679,-2.3884,-2.4467,-2.5837,-2.689,-2.7585,-2.7585,-2.7585,-2.7585,-2.7495,-2.724,-2.6566,-2.5899,-2.545,-2.4747,-2.4073,-2.3774,-2.3595,-2.3595,-2.3625,-2.3699,-2.3859,-2.4405,-2.4833,-2.5171,-2.5831,-2.6496,-2.6874,-2.7164,-2.7317,-2.7435,-2.7824,-2.8197,-2.8265,-2.8265,-2.8231,-2.8045,-2.7554,-2.7621,-2.7808,-2.7774,-2.7435,-2.7215,-2.7199,-2.7199,-2.7199,-2.7046,-2.686,-2.6928,-2.7046,-2.7097,-2.7182,-2.7402,-2.7672,-2.7685,-2.7939,-2.7637,-2.7451,-2.7295,-2.6641,-2.6318,-2.6182,-2.583,-2.5684,-2.5528,-2.5146,-2.4648,-2.4287,-2.4121,-2.3994,-2.4033,-2.376,-2.3662,-2.3506,-2.3296,-2.3169,-2.3188,-2.313,-2.312,-2.3101,-2.313,-2.3101,-2.342,-2.4125,-2.5094,-2.6141,-2.7105,-2.7804,-2.8096,-2.8347,-2.8597,-2.8688,-2.9326,-2.9702,-2.9779,-2.9779,-2.9553,-2.9089,-2.8499,-2.7896,-2.7482,-2.6813,-2.6499,-2.6487,-2.6487,-2.6285,-2.5862,-2.5222,-2.4687,-2.418,-2.3584,-2.312,-2.3095,-2.3155,-2.3573,-2.4118,-2.4823,-2.537,-2.6229,-2.7137,-2.7585,-2.7585,-2.7585,-2.7585,-2.7495,-2.7165,-2.6716,-2.6063,-2.5367,-2.4732,-2.4223,-2.4103,-2.4029,-2.4022,-2.4036,-2.3977,-2.4267,-2.4792,-2.5167,-2.5365,-2.5994,-2.6799,-2.7279,-2.7651,-2.7855,-2.8023,-2.8332,-2.8722,-2.8773,-2.8891,-2.8993,-2.8976,-2.8467,-2.8247,-2.8417,-2.8265,-2.7926,-2.7757,-2.7604,-2.7283,-2.7097,-2.7012,-2.6996,-2.7283,-2.7536,-2.7689,-2.7807,-2.8027,-2.8162,-2.707,-2.71,-2.707,-2.6846,-2.6514,-2.6416,-2.6143,-2.5801,-2.5723,-2.5645,-2.544,-2.4883,-2.4277,-2.3848,-2.3481,-2.3315,-2.3227,-2.3159,-2.3208,-2.3188,-2.311,-2.3101,-2.3101,-2.3101,-2.3101,-2.3101,-2.3101,-2.3101,-2.3387,-2.4253,-2.4755,-2.5168,-2.7227,-2.7884,-2.8466,-2.9028,-2.9365,-2.9443,-2.974,-2.9779,-2.9779,-2.9779,-2.9729,-2.949,-2.8737,-2.8072,-2.7996,-2.7052,-2.6487,-2.6487,-2.6487,-2.6487,-2.616,-2.5322,-2.475,-2.4449,-2.3634,-2.3183,-2.3095,-2.3155,-2.356,-2.4423,-2.5425,-2.6283,-2.6695,-2.7214,-2.7534,-2.7585,-2.7585,-2.7585,-2.7585,-2.7465,-2.7046,-2.6437,-2.5824,-2.545,-2.5001,-2.4717,-2.4605,-2.456,-2.453,-2.453,-2.4732,-2.5293,-2.5518,-2.5728,-2.6378,-2.718,-2.7861,-2.8256,-2.85,-2.8725,-2.8938,-2.9128,-2.9094,-2.9264,-2.9602,-2.9568,-2.9194,-2.9008,-2.8993,-2.8722,-2.8349,-2.818,-2.7977,-2.7486,-2.7249,-2.7706,-2.801,-2.7976,-2.8027,-2.8044,-2.8484,-2.8907,-2.8975,-2.6631,-2.6611,-2.6298,-2.6299,-2.6367,-2.6103,-2.584,-2.5703,-2.5684,-2.5343,-2.4941,-2.4541,-2.3988,-2.3461,-2.3227,-2.3101,-2.3101,-2.3101,-2.3101,-2.3101,-2.3101,-2.3101,-2.3101,-2.3101,-2.3101,-2.3101,-2.3101,-2.3101,-2.3222,-2.4168,-2.5221,-2.613,-2.7319,-2.8398,-2.9106,-2.9482,-2.9702,-2.9779,-2.9779,-2.9779,-2.9779,-2.9779,-2.9779,-2.9691,-2.8687,-2.8172,-2.7946,-2.704,-2.665,-2.6487,-2.6487,-2.6487,-2.6348,-2.5398,-2.4901,-2.4687,-2.3747,-2.3233,-2.3125,-2.3215,-2.3649,-2.5021,-2.6269,-2.7152,-2.71,-2.7458,-2.756,-2.7585,-2.7585,-2.7585,-2.7585,-2.7555,-2.73,-2.6737,-2.6333,-2.6019,-2.5779,-2.5465,-2.527,-2.5217,-2.5202,-2.5202,-2.5452,-2.5786,-2.5947,-2.6143,-2.6841,-2.7541,-2.8296,-2.8846,-2.9076,-2.9511,-2.9783,-3.0006,-3.0023,-3.0161,-3.0296,-3.011,-2.9905,-2.9786,-2.9636,-2.9077,-2.8756,-2.8569,-2.8518,-2.8298,-2.8383,-2.8839,-2.8855,-2.85,-2.8314,-2.8264,-2.8873,-2.9738,-2.977,-2.6201,-2.6152,-2.582,-2.5908,-2.6133,-2.582,-2.5684,-2.5684,-2.5684,-2.5284,-2.4609,-2.4463,-2.4033,-2.3467,-2.314,-2.3101,-2.3101,-2.3101,-2.3101,-2.3101,-2.3101,-2.3101,-2.3101,-2.3101,-2.3101,-2.3101,-2.3101,-2.3101,-2.3135,-2.392,-2.501,-2.6224,-2.729,-2.8239,-2.9495,-2.9779,-2.9779,-2.9779,-2.9779,-2.9779,-2.9779,-2.9779,-2.9779,-2.9679,-2.8863,-2.831,-2.7971,-2.7291,-2.6738,-2.6562,-2.6487,-2.6487,-2.6172,-2.5674,-2.5084,-2.4537,-2.3985,-2.3364,-2.3206,-2.3725,-2.4366,-2.5673,-2.6785,-2.7408,-2.7585,-2.7585,-2.7585,-2.7585,-2.7585,-2.7585,-2.7585,-2.757,-2.751,-2.7036,-2.6632,-2.6333,-2.6378,-2.6183,-2.6019,-2.5899,-2.5899,-2.5914,-2.6132,-2.6438,-2.6814,-2.6895,-2.7149,-2.8006,-2.9001,-2.9448,-2.9588,-3.0109,-3.0683,-3.0903,-3.1123,-3.0886,-3.0683,-3.0736,-3.0548,-3.0497,-3.0243,-2.9738,-2.9399,-2.9313,-2.9279,-2.9211,-2.9145,-2.9093,-2.8975,-2.877,-2.8922,-2.9296,-2.9685,-3.0465,-3.0463,-2.5713,-2.5703,-2.5693,-2.5703,-2.5713,-2.5693,-2.5684,-2.5684,-2.5674,-2.543,-2.4912,-2.457,-2.4141,-2.3672,-2.3218,-2.311,-2.3101,-2.3101,-2.3101,-2.3101,-2.3101,-2.3101,-2.3101,-2.3101,-2.3101,-2.3101,-2.3101,-2.3101,-2.3091,-2.3594,-2.4766,-2.6141,-2.718,-2.8079,-2.9663,-2.9779,-2.9779,-2.9779,-2.9779,-2.9779,-2.9779,-2.9779,-2.9779,-2.9628,-2.9026,-2.8423,-2.8021,-2.7379,-2.6826,-2.6549,-2.6499,-2.6487,-2.6386,-2.5871,-2.5322,-2.485,-2.428,-2.369,-2.3304,-2.4551,-2.5425,-2.6122,-2.6941,-2.7534,-2.7585,-2.7585,-2.7585,-2.7585,-2.7585,-2.7585,-2.7585,-2.7585,-2.7525,-2.7375,-2.6971,-2.6821,-2.6866,-2.6881,-2.6662,-2.6572,-2.6572,-2.6617,-2.6836,-2.7105,-2.7631,-2.7811,-2.7735,-2.8372,-2.9394,-2.9763,-2.9817,-3.0473,-3.1055,-3.1106,-3.119,-3.119,-3.1123,-3.1193,-3.1123,-3.0937,-3.092,-3.0666,-3.0378,-3.0125,-3.0006,-2.9922,-2.9501,-2.9094,-2.933,-2.9753,-3.0362,-3.0751,-3.1024,-3.1041,-3.092,-2.5566,-2.5322,-2.5615,-2.5566,-2.5361,-2.5567,-2.5684,-2.5684,-2.5635,-2.5332,-2.4727,-2.4453,-2.3994,-2.3486,-2.3208,-2.3101,-2.3101,-2.3101,-2.3101,-2.3101,-2.3101,-2.3101,-2.3101,-2.3101,-2.3101,-2.3101,-2.3101,-2.3101,-2.3101,-2.3681,-2.4925,-2.6337,-2.7839,-2.904,-2.9624,-2.9779,-2.9779,-2.9779,-2.9779,-2.9779,-2.9779,-2.9779,-2.9779,-2.9741,-2.8938,-2.8373,-2.8072,-2.7379,-2.6801,-2.6537,-2.6487,-2.6487,-2.6411,-2.5971,-2.5548,-2.5134,-2.4613,-2.4017,-2.4096,-2.4851,-2.5425,-2.6122,-2.689,-2.7549,-2.7585,-2.7585,-2.7585,-2.76,-2.7615,-2.7615,-2.7585,-2.7585,-2.7555,-2.7555,-2.7345,-2.736,-2.7375,-2.7345,-2.727,-2.727,-2.727,-2.721,-2.73,-2.7285,-2.7705,-2.7919,-2.781,-2.8352,-2.9291,-2.9594,-2.9756,-3.0579,-3.1157,-3.1173,-3.119,-3.119,-3.119,-3.119,-3.119,-3.1123,-3.1157,-3.119,-3.0852,-3.0328,-3.048,-3.0598,-3.0159,-2.9924,-3.0415,-3.0903,-3.1106,-3.119,-3.114,-3.1123,-3.1106,-2.5117,-2.4902,-2.5322,-2.5254,-2.4951,-2.5322,-2.5508,-2.5537,-2.5635,-2.5244,-2.456,-2.4404,-2.3945,-2.3305,-2.3101,-2.3101,-2.3101,-2.3101,-2.3101,-2.3101,-2.3101,-2.3101,-2.3101,-2.3101,-2.3101,-2.3101,-2.3101,-2.3101,-2.3135,-2.4253,-2.5619,-2.7197,-2.8831,-2.9456,-2.9779,-2.9779,-2.9779,-2.9779,-2.9779,-2.9779,-2.9779,-2.9779,-2.9779,-2.9553,-2.9001,-2.8323,-2.7934,-2.7366,-2.6675,-2.6562,-2.6487,-2.6487,-2.6348,-2.6185,-2.582,-2.5398,-2.4683,-2.4298,-2.4656,-2.5005,-2.5647,-2.634,-2.7129,-2.7524,-2.7585,-2.7585,-2.7809,-2.7839,-2.7735,-2.7824,-2.7914,-2.7869,-2.7615,-2.7615,-2.76,-2.76,-2.757,-2.754,-2.7525,-2.757,-2.7585,-2.7585,-2.7585,-2.757,-2.7645,-2.7735,-2.781,-2.8567,-2.9271,-2.9585,-2.9913,-3.0679,-3.119,-3.119,-3.119,-3.119,-3.119,-3.119,-3.119,-3.119,-3.119,-3.1173,-3.0852,-3.0632,-3.0801,-3.0886,-3.0784,-3.0801,-3.0954,-3.1055,-3.114,-3.119,-3.119,-3.119,-3.119,-2.4424,-2.4482,-2.492,-2.4834,-2.457,-2.4922,-2.5096,-2.5135,-2.5508,-2.5157,-2.4434,-2.4424,-2.3984,-2.3276,-2.312,-2.3101,-2.3101,-2.3101,-2.3101,-2.3101,-2.3101,-2.3101,-2.3101,-2.3101,-2.3101,-2.3101,-2.3101,-2.3135,-2.3222,-2.4595,-2.616,-2.7907,-2.9248,-2.9702,-2.9779,-2.9779,-2.9779,-2.9779,-2.9779,-2.9779,-2.9779,-2.9779,-2.9704,-2.9453,-2.8963,-2.8386,-2.7921,-2.7344,-2.6914,-2.6663,-2.6487,-2.6487,-2.6474,-2.6487,-2.6122,-2.5498,-2.4594,-2.4756,-2.493,-2.5253,-2.5953,-2.6677,-2.7339,-2.7563,-2.769,-2.7824,-2.8199,-2.8214,-2.8124,-2.8308,-2.8457,-2.8064,-2.7645,-2.7645,-2.763,-2.7615,-2.76,-2.7585,-2.7585,-2.7585,-2.7585,-2.7585,-2.7585,-2.7585,-2.766,-2.8018,-2.8271,-2.888,-2.9518,-2.9892,-3.0293,-3.0821,-3.119,-3.119,-3.119,-3.1207,-3.119,-3.119,-3.119,-3.119,-3.119,-3.119,-3.1021,-3.0954,-3.1089,-3.1106,-3.0987,-3.1004,-3.1123,-3.119,-3.119,-3.119,-3.119,-3.119,-3.119,-2.4424,-2.4434,-2.456,-2.4707,-2.4891,-2.4678,-2.46,-2.4658,-2.5059,-2.4912,-2.4424,-2.4414,-2.4053,-2.3603,-2.3247,-2.313,-2.3101,-2.3101,-2.3101,-2.3101,-2.3101,-2.3101,-2.3101,-2.3101,-2.3101,-2.3101,-2.3101,-2.3178,-2.3637,-2.4882,-2.7116,-2.9118,-2.9573,-2.974,-2.9779,-2.9779,-2.9779,-2.9779,-2.9779,-2.9779,-2.9779,-2.9779,-2.9603,-2.9214,-2.8712,-2.816,-2.762,-2.709,-2.6675,-2.6549,-2.6487,-2.6487,-2.6487,-2.6474,-2.6235,-2.5674,-2.5234,-2.5158,-2.5069,-2.559,-2.6271,-2.689,-2.7357,-2.7548,-2.7824,-2.8274,-2.8723,-2.8633,-2.8547,-2.8727,-2.8712,-2.8378,-2.8094,-2.8034,-2.7899,-2.7615,-2.7585,-2.7585,-2.7585,-2.7585,-2.7585,-2.7685,-2.766,-2.7585,-2.771,-2.8198,-2.8732,-2.9293,-2.9805,-3.0187,-3.0539,-3.1055,-3.1343,-3.1393,-3.1258,-3.1224,-3.1207,-3.119,-3.119,-3.119,-3.119,-3.119,-3.119,-3.119,-3.119,-3.119,-3.1157,-3.119,-3.119,-3.119,-3.119,-3.119,-3.119,-3.119,-3.119,-2.3871,-2.3935,-2.4102,-2.4326,-2.4453,-2.4092,-2.3871,-2.4014,-2.4551,-2.4639,-2.4414,-2.4228,-2.4023,-2.374,-2.3305,-2.3101,-2.3101,-2.3101,-2.3101,-2.3101,-2.3101,-2.3101,-2.3101,-2.3101,-2.3101,-2.3101,-2.3178,-2.3387,-2.4178,-2.5953,-2.8148,-2.9534,-2.9779,-2.9779,-2.9779,-2.9779,-2.9779,-2.9779,-2.9779,-2.9779,-2.9779,-2.9767,-2.9428,-2.8913,-2.8361,-2.7846,-2.7306,-2.6788,-2.6537,-2.6487,-2.6487,-2.6487,-2.6487,-2.6474,-2.6223,-2.5724,-2.5536,-2.5655,-2.578,-2.5942,-2.6581,-2.73,-2.7917,-2.8125,-2.8274,-2.8573,-2.8876,-2.9011,-2.9041,-2.9056,-2.8906,-2.8783,-2.8637,-2.8532,-2.8094,-2.763,-2.7585,-2.7585,-2.7585,-2.7585,-2.766,-2.777,-2.7745,-2.766,-2.7919,-2.8614,-2.9111,-2.9496,-3.0043,-3.0539,-3.0781,-3.1131,-3.1444,-3.1667,-3.1515,-3.1393,-3.1427,-3.136,-3.119,-3.119,-3.119,-3.119,-3.119,-3.119,-3.119,-3.119,-3.119,-3.119,-3.119,-3.119,-3.119,-3.119,-3.119,-3.119,-3.119,-2.313,-2.3227,-2.3662,-2.3848,-2.3691,-2.3354,-2.3208,-2.3179,-2.3919,-2.4326,-2.4248,-2.3965,-2.3828,-2.3711,-2.334,-2.311,-2.3101,-2.3101,-2.3101,-2.3101,-2.3101,-2.3101,-2.3101,-2.3101,-2.3101,-2.3101,-2.3309,-2.3714,-2.5241,-2.6849,-2.8398,-2.9702,-2.9779,-2.9779,-2.9779,-2.9779,-2.9779,-2.9779,-2.9779,-2.9779,-2.9779,-2.9716,-2.9515,-2.8913,-2.8398,-2.7846,-2.7293,-2.6876,-2.6487,-2.6487,-2.6487,-2.6487,-2.6487,-2.6474,-2.6147,-2.5984,-2.5845,-2.6049,-2.6343,-2.658,-2.7393,-2.8339,-2.9395,-2.919,-2.9101,-2.9131,-2.943,-2.937,-2.934,-2.9535,-2.949,-2.916,-2.8966,-2.8876,-2.8603,-2.8184,-2.7974,-2.7839,-2.7585,-2.766,-2.7895,-2.7991,-2.8031,-2.8001,-2.8879,-2.9374,-2.9994,-3.0309,-3.0688,-3.124,-3.1335,-3.1512,-3.1701,-3.1955,-3.1887,-3.1782,-3.1749,-3.163,-3.1478,-3.1224,-3.1258,-3.1224,-3.119,-3.119,-3.119,-3.119,-3.119,-3.119,-3.119,-3.119,-3.119,-3.119,-3.119,-3.119,-3.119,-2.3296,-2.3672,-2.4092,-2.3871,-2.3369,-2.3545,-2.3383,-2.311,-2.3286,-2.3652,-2.3877,-2.3838,-2.3789,-2.3721,-2.333,-2.3101,-2.3101,-2.3101,-2.3101,-2.3101,-2.3101,-2.3101,-2.3101,-2.3101,-2.3101,-2.3101,-2.3387,-2.4178,-2.588,-2.74,-2.8636,-2.9663,-2.9779,-2.9779,-2.9779,-2.9779,-2.9779,-2.9779,-2.9779,-2.9779,-2.9779,-2.9716,-2.9515,-2.8963,-2.8411,-2.7883,-2.7331,-2.6839,-2.6587,-2.6487,-2.6487,-2.6487,-2.6487,-2.6487,-2.6424,-2.6298,-2.621,-2.6422,-2.6738,-2.7158,-2.7886,-2.8389,-2.9116,-2.9665,-2.9909,-2.9983,-2.9924,-2.9729,-2.9744,-2.9983,-2.9983,-2.9609,-2.9325,-2.9277,-2.9142,-2.8768,-2.8382,-2.8049,-2.7705,-2.7899,-2.8128,-2.8277,-2.8344,-2.8855,-2.9717,-3.0584,-3.1453,-3.1979,-3.2245,-3.2592,-3.2323,-3.2378,-3.2175,-3.2276,-3.2259,-3.2391,-3.2476,-3.2341,-3.2222,-3.185,-3.1427,-3.1393,-3.1444,-3.1258,-3.119,-3.119,-3.119,-3.119,-3.119,-3.119,-3.119,-3.119,-3.119,-3.119,-3.119,-2.3281,-2.3481,-2.375,-2.3539,-2.3198,-2.3364,-2.3315,-2.312,-2.3101,-2.3227,-2.3467,-2.3516,-2.3603,-2.3682,-2.334,-2.3101,-2.3101,-2.3101,-2.3101,-2.3101,-2.3101,-2.3101,-2.3101,-2.3101,-2.3101,-2.3135,-2.38,-2.484,-2.6431,-2.7574,-2.8636,-2.9611,-2.9779,-2.9779,-2.9779,-2.9779,-2.9779,-2.9779,-2.9779,-2.9779,-2.9779,-2.9729,-2.949,-2.8963,-2.8549,-2.8034,-2.7444,-2.6929,-2.6763,-2.6575,-2.6487,-2.6487,-2.6487,-2.6487,-2.6487,-2.6461,-2.6483,-2.6645,-2.7061,-2.756,-2.8284,-2.8856,-2.9421,-3.0199,-3.0253,-3.0283,-3.0268,-3.0163,-3.0582,-3.0823,-3.0432,-3.0043,-2.9983,-2.9924,-2.9579,-2.9217,-2.8876,-2.8547,-2.8543,-2.8798,-2.9027,-2.918,-2.9322,-2.9653,-3.0521,-3.1401,-3.2334,-3.2818,-3.3223,-3.3711,-3.3457,-3.3326,-3.3173,-3.2936,-3.2882,-3.3119,-3.3389,-3.322,-3.2916,-3.273,-3.2408,-3.1989,-3.1718,-3.1529,-3.1343,-3.119,-3.119,-3.119,-3.119,-3.119,-3.119,-3.119,-3.119,-3.1207,-3.1241,-2.3101,-2.3101,-2.311,-2.3101,-2.3101,-2.3101,-2.3101,-2.3101,-2.3101,-2.3101,-2.313,-2.313,-2.3398,-2.3447,-2.335,-2.3179,-2.3101,-2.3101,-2.3101,-2.3101,-2.3101,-2.3101,-2.3101,-2.3101,-2.3101,-2.3637,-2.4425,-2.5347,-2.6513,-2.7787,-2.8976,-2.965,-2.9779,-2.9779,-2.9779,-2.9779,-2.9779,-2.9779,-2.9779,-2.9779,-2.9779,-2.9779,-2.9503,-2.9214,-2.8838,-2.8373,-2.772,-2.7231,-2.6992,-2.6713,-2.6487,-2.6487,-2.6487,-2.6487,-2.6487,-2.6487,-2.6487,-2.6816,-2.7259,-2.7632,-2.8657,-2.9578,-3.0206,-3.0516,-3.0557,-3.0552,-3.0537,-3.0763,-3.1197,-3.1107,-3.0717,-3.0642,-3.0612,-3.0432,-3.0013,-2.9729,-2.943,-2.9116,-2.9292,-2.9547,-2.9756,-2.9902,-3.0079,-3.0418,-3.1343,-3.221,-3.2833,-3.3195,-3.364,-3.4153,-3.432,-3.4336,-3.4336,-3.4066,-3.3677,-3.3897,-3.4252,-3.3778,-3.3491,-3.3491,-3.3339,-3.2763,-3.2239,-3.1836,-3.163,-3.1478,-3.1258,-3.119,-3.119,-3.1275,-3.119,-3.119,-3.119,-3.1224,-3.1309,-2.3101,-2.3101,-2.3101,-2.3101,-2.3101,-2.3101,-2.3101,-2.3101,-2.3101,-2.3101,-2.3101,-2.3101,-2.3169,-2.3262,-2.3159,-2.3101,-2.3101,-2.3101,-2.3101,-2.3101,-2.3101,-2.3101,-2.3101,-2.3101,-2.3101,-2.38,-2.4882,-2.6141,-2.6924,-2.845,-2.9495,-2.9779,-2.9779,-2.9779,-2.9779,-2.9779,-2.9779,-2.9779,-2.9779,-2.9779,-2.9779,-2.9779,-2.9767,-2.949,-2.9126,-2.8599,-2.8021,-2.7507,-2.704,-2.6675,-2.6487,-2.6487,-2.6487,-2.6487,-2.6487,-2.6487,-2.6487,-2.6714,-2.71,-2.7688,-2.8698,-2.9482,-3.0087,-3.0777,-3.0803,-3.0776,-3.0866,-3.1077,-3.1256,-3.0928,-3.0702,-3.1062,-3.1137,-3.0746,-3.0328,-3.0313,-3.0178,-2.9804,-2.9624,-2.9894,-3.0173,-3.0135,-3.0036,-3.0878,-3.2266,-3.3145,-3.3955,-3.4325,-3.4516,-3.4846,-3.5131,-3.516,-3.5228,-3.4928,-3.4438,-3.4754,-3.494,-3.4433,-3.4112,-3.4197,-3.4011,-3.3419,-3.2933,-3.2374,-3.2056,-3.187,-3.163,-3.1326,-3.141,-3.1478,-3.1275,-3.119,-3.1224,-3.1224,-3.1309]}]]